[[{"header":{"parameterUnit":"m.s-1","parameterCategory":1,"la1":30.6,"la2":28.766,"lo1":-90.7593,"lo2":-88.6598,"dy":0.0162,"dx":0.0183,"nx":116,"ny":114,"refTime":"2023-06-18T18:00:00:Z","depth":0,"parameterNumber":2,"parameterNumberName":"U-component_of_WINDS"},"data":[0.0,0.0,0.0,0.0,0.0,0.0,0.0,0.0,0.0,0.0,0.0,0.0,0.0,0.0,0.0,0.0,0.0,0.0,0.0,0.0,0.0,0.0,0.0,0.0,0.0,0.0,0.0,0.0,0.0,0.0,0.0,0.0,0.0,0.0,0.0,0.0,0.0,0.0,0.0,0.0,0.0,0.0,0.0,0.0,0.0,0.0,0.0,0.0,0.0,0.0,0.0,0.0,0.0,0.0,0.0,0.0,0.0,0.0,0.0,0.0,0.0,0.0,0.0,0.0,0.0,0.0,0.0,0.0,0.0,0.0,0.0,0.0,0.0,0.0,0.0,0.0,0.0,0.0,0.0,0.0,0.0,0.0,0.0,0.0,0.0,0.0,0.0,0.0,0.0,0.0,0.0,0.0,0.0,0.0,0.0,0.0,0.0,0.0,0.0,0.0,0.0,0.0,0.0,0.0,0.0,0.0,0.0,0.0,0.0,0.0,0.0,0.0,0.0,0.0,0.0,0.0,0.0,0.0,0.0,0.0,0.0,0.0,0.0,0.0,0.0,0.0,0.0,0.0,0.0,0.0,0.0,0.0,0.0,0.0,0.0,0.0,0.0,0.0,0.0,0.0,0.0,0.0,0.0,0.0,0.0,0.0,0.0,0.0,0.0,0.0,0.0,0.0,0.0,0.0,0.0,0.0,0.0,0.0,0.0,0.0,0.0,0.0,0.0,0.0,0.0,0.0,0.0,0.0,0.0,0.0,0.0,0.0,0.0,0.0,0.0,0.0,0.0,0.0,0.0,0.0,0.0,0.0,0.0,0.0,0.0,0.0,0.0,0.0,0.0,0.0,0.0,0.0,0.0,0.0,0.0,0.0,0.0,0.0,0.0,0.0,0.0,0.0,0.0,0.0,0.0,0.0,0.0,0.0,0.0,0.0,0.0,0.0,0.0,0.0,0.0,0.0,0.0,0.0,0.0,0.0,0.0,0.0,0.0,0.0,0.0,0.0,0.0,0.0,0.0,0.0,0.0,0.0,0.0,0.0,0.0,0.0,0.0,0.0,0.0,0.0,0.0,0.0,0.0,0.0,0.0,0.0,0.0,0.0,0.0,0.0,0.0,0.0,0.0,0.0,0.0,0.0,0.0,0.0,0.0,0.0,0.0,0.0,0.0,0.0,0.0,0.0,0.0,0.0,0.0,0.0,0.0,0.0,0.0,0.0,0.0,0.0,0.0,0.0,0.0,0.0,0.0,0.0,0.0,0.0,0.0,0.0,0.0,0.0,0.0,0.0,0.0,0.0,0.0,0.0,0.0,0.0,0.0,0.0,0.0,0.0,0.0,0.0,0.0,0.0,0.0,0.0,0.0,0.0,0.0,0.0,0.0,0.0,0.0,0.0,0.0,0.0,0.0,0.0,0.0,0.0,0.0,0.0,0.0,0.0,0.0,0.0,0.0,0.0,0.0,0.0,0.0,0.0,0.0,0.0,0.0,0.0,0.0,0.0,0.0,0.0,0.0,0.0,0.0,0.0,0.0,0.0,0.0,0.0,0.0,0.0,0.0,0.0,0.0,0.0,0.0,0.0,0.0,0.0,0.0,0.0,0.0,0.0,0.0,0.0,0.0,0.0,0.0,0.0,0.0,0.0,0.0,0.0,0.0,0.0,0.0,0.0,0.0,0.0,0.0,0.0,0.0,0.0,0.0,0.0,0.0,0.0,0.0,0.0,0.0,0.0,0.0,0.0,0.0,0.0,0.0,0.0,0.0,0.0,0.0,0.0,0.0,0.0,0.0,0.0,0.0,0.0,0.0,0.0,0.0,0.0,0.0,0.0,0.0,0.0,0.0,0.0,0.0,0.0,0.0,0.0,0.0,0.0,0.0,0.0,0.0,0.0,0.0,0.0,0.0,0.0,0.0,0.0,0.0,0.0,0.0,0.0,0.0,0.0,0.0,0.0,0.0,0.0,0.0,0.0,0.0,0.0,0.0,0.0,0.0,0.0,0.0,0.0,0.0,0.0,0.0,0.0,0.0,0.0,0.0,0.0,0.0,0.0,0.0,0.0,0.0,0.0,0.0,0.0,0.0,0.0,0.0,0.0,0.0,0.0,0.0,0.0,0.0,0.0,0.0,0.0,0.0,0.0,0.0,0.0,0.0,0.0,0.0,0.0,0.0,0.0,0.0,0.0,0.0,0.0,0.0,0.0,0.0,0.0,0.0,0.0,0.0,0.0,0.0,0.0,0.0,0.0,0.0,0.0,0.0,0.0,0.0,0.0,0.0,0.0,0.0,0.0,0.0,0.0,0.0,0.0,0.0,0.0,0.0,0.0,0.0,0.0,0.0,0.0,0.0,0.0,0.0,0.0,0.0,0.0,0.0,0.0,0.0,0.0,0.0,0.0,0.0,0.0,0.0,0.0,0.0,0.0,0.0,0.0,0.0,0.0,0.0,0.0,0.0,0.0,0.0,0.0,0.0,0.0,0.0,0.0,0.0,0.0,0.0,0.0,0.0,0.0,0.0,0.0,0.0,0.0,0.0,0.0,0.0,0.0,0.0,0.0,0.0,0.0,0.0,0.0,0.0,0.0,0.0,0.0,0.0,0.0,0.0,0.0,0.0,0.0,0.0,0.0,0.0,0.0,0.0,0.0,0.0,0.0,0.0,0.0,0.0,0.0,0.0,0.0,0.0,0.0,0.0,0.0,0.0,0.0,0.0,0.0,0.0,0.0,0.0,0.0,0.0,0.0,0.0,0.0,0.0,0.0,0.0,0.0,0.0,0.0,0.0,0.0,0.0,0.0,0.0,0.0,0.0,0.0,0.0,0.0,0.0,0.0,0.0,0.0,0.0,0.0,0.0,0.0,0.0,0.0,0.0,0.0,0.0,0.0,0.0,0.0,0.0,0.0,0.0,0.0,0.0,0.0,0.0,0.0,0.0,0.0,0.0,0.0,0.0,0.0,0.0,0.0,0.0,0.0,0.0,0.0,0.0,0.0,0.0,0.0,0.0,0.0,0.0,0.0,0.0,0.0,0.0,0.0,0.0,0.0,0.0,0.0,0.0,0.0,0.0,0.0,0.0,0.0,0.0,0.0,0.0,0.0,0.0,0.0,0.0,0.0,0.0,0.0,0.0,0.0,0.0,0.0,0.0,0.0,0.0,0.0,0.0,0.0,0.0,0.0,0.0,0.0,0.0,0.0,0.0,0.0,0.0,0.0,0.0,0.0,0.0,0.0,0.0,0.0,0.0,0.0,0.0,0.0,0.0,0.0,0.0,0.0,0.0,0.0,0.0,0.0,0.0,0.0,0.0,0.0,0.0,0.0,0.0,0.0,0.0,0.0,0.0,0.0,0.0,0.0,0.0,0.0,0.0,0.0,0.0,0.0,0.0,0.0,0.0,0.0,0.0,0.0,0.0,0.0,0.0,0.0,0.0,0.0,0.0,0.0,0.0,0.0,0.0,0.0,0.0,0.0,0.0,0.0,0.0,0.0,0.0,0.0,0.0,0.0,0.0,0.0,0.0,0.0,0.0,0.0,0.0,0.0,0.0,0.0,0.0,0.0,0.0,0.0,0.0,0.0,0.0,0.0,0.0,0.0,0.0,0.0,0.0,0.0,0.0,0.0,0.0,0.0,0.0,0.0,0.0,0.0,0.0,0.0,0.0,0.0,0.0,0.0,0.0,0.0,0.0,0.0,0.0,0.0,0.0,0.0,0.0,0.0,0.0,0.0,0.0,0.0,0.0,0.0,0.0,0.0,0.0,0.0,0.0,0.0,0.0,0.0,0.0,0.0,0.0,0.0,0.0,0.0,0.0,0.0,0.0,0.0,0.0,0.0,0.0,0.0,0.0,0.0,0.0,0.0,0.0,0.0,0.0,0.0,0.0,0.0,0.0,0.0,0.0,0.0,0.0,0.0,0.0,0.0,0.0,0.0,0.0,0.0,0.0,0.0,0.0,0.0,0.0,0.0,0.0,0.0,0.0,0.0,0.0,0.0,0.0,0.0,0.0,0.0,0.0,0.0,0.0,0.0,0.0,0.0,0.0,0.0,0.0,0.0,0.0,0.0,0.0,0.0,0.0,0.0,0.0,0.0,0.0,0.0,0.0,0.0,0.0,0.0,0.0,0.0,0.0,0.0,0.0,0.0,0.0,0.0,0.0,0.0,0.0,0.0,0.0,0.0,0.0,0.0,0.0,0.0,0.0,0.0,0.0,0.0,0.0,0.0,0.0,0.0,0.0,0.0,0.0,0.0,0.0,0.0,0.0,0.0,0.0,0.0,0.0,0.0,0.0,0.0,0.0,0.0,0.0,0.0,0.0,0.0,0.0,0.0,0.0,0.0,0.0,0.0,0.0,0.0,0.0,0.0,0.0,0.0,0.0,0.0,0.0,0.0,0.0,0.0,0.0,0.0,0.0,0.0,0.0,0.0,0.0,0.0,0.0,0.0,0.0,0.0,0.0,0.0,0.0,0.0,0.0,0.0,0.0,0.0,0.0,0.0,0.0,0.0,0.0,0.0,0.0,0.0,0.0,0.0,0.0,0.0,0.0,0.0,0.0,0.0,0.0,0.0,0.0,0.0,0.0,0.0,0.0,0.0,0.0,0.0,0.0,0.0,0.0,0.0,0.0,0.0,0.0,0.0,0.0,0.0,0.0,0.0,0.0,0.0,0.0,0.0,0.0,0.0,0.0,0.0,0.0,0.0,0.0,0.0,0.0,0.0,0.0,0.0,0.0,0.0,0.0,0.0,0.0,0.0,0.0,0.0,0.0,0.0,0.0,0.0,0.0,0.0,0.0,0.0,0.0,0.0,0.0,0.0,0.0,0.0,0.0,0.0,0.0,0.0,0.0,0.0,0.0,0.0,0.0,0.0,0.0,0.0,0.0,0.0,0.0,0.0,0.0,0.0,0.0,0.0,0.0,0.0,0.0,0.0,0.0,0.0,0.0,0.0,0.0,0.0,0.0,0.0,0.0,0.0,0.0,0.0,0.0,0.0,0.0,0.0,0.0,0.0,0.0,0.0,0.0,0.0,0.0,0.0,0.0,0.0,0.0,0.0,0.0,0.0,0.0,0.0,0.0,0.0,0.0,0.0,0.0,0.0,0.0,0.0,0.0,0.0,0.0,0.0,0.0,0.0,0.0,0.0,0.0,0.0,0.0,0.0,0.0,0.0,0.0,0.0,0.0,0.0,0.0,0.0,0.0,0.0,0.0,0.0,0.0,0.0,0.0,0.0,0.0,0.0,0.0,0.0,0.0,0.0,0.0,0.0,0.0,0.0,0.0,0.0,0.0,0.0,0.0,0.0,0.0,0.0,0.0,0.0,0.0,0.0,0.0,0.0,0.0,0.0,0.0,0.0,0.0,0.0,0.0,0.0,0.0,0.0,0.0,0.0,0.0,0.0,0.0,0.0,0.0,0.0,0.0,0.0,0.0,0.0,0.0,0.0,0.0,0.0,0.0,0.0,0.0,0.0,0.0,0.0,0.0,0.0,0.0,0.0,0.0,0.0,0.0,0.0,0.0,0.0,0.0,0.0,0.0,0.0,0.0,0.0,0.0,0.0,0.0,0.0,0.0,0.0,0.0,0.0,0.0,0.0,0.0,0.0,0.0,0.0,0.0,0.0,0.0,0.0,0.0,0.0,0.0,0.0,0.0,0.0,0.0,0.0,0.0,0.0,0.0,0.0,0.0,0.0,0.0,0.0,0.0,0.0,0.0,0.0,0.0,0.0,0.0,0.0,0.0,0.0,0.0,0.0,0.0,0.0,0.0,0.0,0.0,0.0,0.0,0.0,0.0,0.0,0.0,0.0,0.0,0.0,0.0,0.0,0.0,0.0,0.0,0.0,0.0,0.0,0.0,0.0,0.0,0.0,0.0,0.0,0.0,0.0,0.0,0.0,0.0,0.0,0.0,0.0,0.0,0.0,0.0,0.0,0.0,0.0,0.0,0.0,0.0,0.0,0.0,0.0,0.0,0.0,0.0,0.0,0.0,0.0,0.0,0.0,0.0,0.0,0.0,0.0,0.0,0.0,0.0,0.0,0.0,0.0,0.0,0.0,0.0,0.0,0.0,0.0,0.0,0.0,0.0,0.0,0.0,0.0,0.0,0.0,0.0,0.0,-2.9297,-2.8874,0.0,0.0,0.0,0.0,0.0,0.0,0.0,0.0,0.0,0.0,0.0,0.0,0.0,0.0,0.0,0.0,0.0,0.0,0.0,0.0,0.0,0.0,0.0,0.0,0.0,0.0,0.0,0.0,0.0,0.0,0.0,0.0,0.0,0.0,0.0,0.0,0.0,0.0,0.0,0.0,0.0,0.0,0.0,0.0,0.0,0.0,0.0,0.0,0.0,0.0,0.0,0.0,0.0,0.0,0.0,0.0,0.0,0.0,0.0,0.0,0.0,0.0,0.0,0.0,0.0,0.0,0.0,0.0,0.0,0.0,0.0,0.0,0.0,0.0,0.0,0.0,0.0,0.0,0.0,0.0,0.0,0.0,0.0,0.0,0.0,0.0,0.0,0.0,0.0,0.0,0.0,0.0,0.0,0.0,0.0,0.0,0.0,0.0,0.0,0.0,0.0,0.0,0.0,0.0,0.0,0.0,0.0,0.0,0.0,0.0,0.0,0.0,0.0,0.0,-3.0094,-2.9693,0.0,0.0,0.0,0.0,0.0,0.0,0.0,0.0,0.0,0.0,0.0,0.0,0.0,0.0,0.0,0.0,0.0,0.0,0.0,0.0,0.0,0.0,0.0,0.0,0.0,0.0,0.0,0.0,0.0,0.0,0.0,0.0,0.0,0.0,0.0,0.0,0.0,0.0,0.0,0.0,0.0,0.0,0.0,0.0,0.0,0.0,0.0,0.0,0.0,0.0,0.0,0.0,0.0,0.0,0.0,0.0,0.0,0.0,0.0,0.0,0.0,0.0,0.0,0.0,0.0,0.0,0.0,0.0,0.0,0.0,0.0,0.0,0.0,0.0,0.0,0.0,0.0,0.0,0.0,0.0,0.0,0.0,0.0,0.0,0.0,0.0,0.0,0.0,0.0,0.0,0.0,0.0,0.0,0.0,0.0,0.0,0.0,0.0,0.0,0.0,0.0,0.0,0.0,0.0,0.0,0.0,0.0,0.0,-3.058,-3.0939,-3.1007,-3.1278,-3.1463,-3.146,-3.0745,-3.0401,-3.0354,-3.0149,0.0,0.0,0.0,0.0,0.0,0.0,0.0,0.0,0.0,0.0,0.0,0.0,0.0,0.0,0.0,0.0,0.0,0.0,0.0,0.0,0.0,0.0,0.0,0.0,0.0,0.0,0.0,0.0,0.0,0.0,0.0,0.0,0.0,0.0,0.0,0.0,0.0,0.0,-2.2909,-2.4072,-2.4556,-2.4556,0.0,0.0,0.0,0.0,0.0,0.0,0.0,0.0,0.0,0.0,0.0,0.0,0.0,0.0,0.0,0.0,0.0,0.0,0.0,0.0,0.0,0.0,0.0,0.0,0.0,0.0,0.0,0.0,0.0,0.0,0.0,0.0,0.0,0.0,0.0,0.0,0.0,0.0,0.0,0.0,0.0,0.0,0.0,0.0,-2.104,-2.1544,0.0,0.0,0.0,0.0,0.0,0.0,0.0,0.0,0.0,0.0,0.0,0.0,0.0,-2.978,-3.0206,-3.0258,-3.0309,-3.0361,-3.0412,-3.065,-3.1007,-3.1075,-3.1211,-3.1513,-3.1385,0.0,-3.124,-3.1577,0.0,0.0,0.0,0.0,0.0,0.0,0.0,0.0,0.0,0.0,0.0,0.0,0.0,0.0,0.0,0.0,0.0,0.0,0.0,0.0,0.0,0.0,0.0,0.0,0.0,0.0,0.0,0.0,0.0,0.0,0.0,0.0,0.0,0.0,0.0,0.0,-2.1873,-2.2853,-2.3304,-2.4351,-2.5,-2.5293,-2.5459,-2.5734,-2.6118,-2.6609,0.0,0.0,0.0,0.0,0.0,0.0,0.0,0.0,0.0,0.0,0.0,0.0,0.0,0.0,0.0,0.0,0.0,0.0,0.0,0.0,0.0,0.0,0.0,0.0,0.0,0.0,0.0,0.0,0.0,0.0,0.0,0.0,0.0,0.0,0.0,0.0,0.0,0.0,0.0,-2.1069,-2.1943,-2.2497,-2.3103,-2.3897,0.0,0.0,0.0,0.0,0.0,0.0,0.0,0.0,0.0,-2.9664,-3.0036,-3.048,-3.1063,-3.1063,-3.1285,-3.1696,-3.1696,-3.1767,-3.1926,-3.1926,-3.2068,-3.2192,-3.2421,-3.2474,-3.2454,-3.2111,-3.1799,-3.1473,0.0,0.0,0.0,0.0,-3.1543,-3.1543,0.0,0.0,0.0,0.0,0.0,0.0,0.0,0.0,0.0,0.0,0.0,0.0,0.0,0.0,0.0,-1.6233,0.0,0.0,0.0,0.0,0.0,0.0,0.0,0.0,0.0,0.0,0.0,0.0,-2.2933,-2.3618,-2.4145,-2.4974,-2.559,-2.6091,-2.6424,-2.6426,-2.6245,-2.6772,-2.7098,0.0,0.0,0.0,0.0,0.0,0.0,0.0,0.0,0.0,0.0,0.0,0.0,0.0,0.0,0.0,0.0,0.0,0.0,0.0,0.0,0.0,0.0,0.0,0.0,0.0,0.0,0.0,0.0,0.0,0.0,0.0,0.0,0.0,0.0,0.0,0.0,0.0,0.0,-2.1949,-2.2788,-2.3333,-2.4101,-2.4894,0.0,0.0,0.0,0.0,0.0,0.0,-2.841,-2.9069,-2.9793,-3.0514,-3.0737,-3.1183,-3.185,-3.185,-3.2124,-3.2689,-3.2689,-3.2689,-3.2689,-3.2689,-3.2689,-3.2762,-3.2999,-3.3145,-3.3131,-3.2735,-3.2471,-3.2358,-3.2765,-3.2771,-3.2588,-3.2588,-3.2661,-3.2753,0.0,0.0,0.0,0.0,0.0,0.0,0.0,0.0,0.0,0.0,0.0,0.0,0.0,0.0,-1.7254,-1.7477,-1.7982,-1.8298,0.0,0.0,0.0,0.0,0.0,0.0,0.0,0.0,0.0,-2.3932,-2.4285,-2.4928,-2.5857,-2.6509,-2.6968,-2.7215,-2.7596,-2.7288,-2.6591,-2.6899,-2.6989,-2.7043,0.0,0.0,0.0,0.0,0.0,0.0,0.0,0.0,0.0,0.0,0.0,0.0,0.0,0.0,0.0,0.0,0.0,0.0,0.0,0.0,0.0,0.0,0.0,0.0,0.0,0.0,0.0,0.0,0.0,0.0,0.0,0.0,0.0,0.0,0.0,0.0,0.0,0.0,0.0,-2.4019,-2.4958,0.0,0.0,0.0,0.0,-2.7629,-2.7979,-2.8324,-2.8753,-2.9457,-3.0223,-3.0943,-3.1653,-3.2227,-3.2621,-3.2621,-3.2638,-3.2689,-3.2689,-3.2689,-3.2689,-3.2689,-3.2689,-3.2689,-3.2762,-3.2762,-3.2818,-3.3856,-3.3803,-3.3188,-3.3605,-3.3285,-3.2588,-3.2588,-3.2845,-3.3193,0.0,0.0,0.0,0.0,0.0,0.0,0.0,0.0,0.0,0.0,0.0,0.0,0.0,-1.7026,-1.7588,-1.7811,-1.8383,-1.8881,-1.9287,0.0,0.0,0.0,0.0,0.0,0.0,0.0,-2.3641,-2.4114,-2.4818,-2.5461,-2.6024,-2.6619,-2.7039,-2.7326,-2.7651,-2.7675,-2.7399,-2.7679,-2.7791,-2.7791,-2.8069,-2.8236,0.0,0.0,0.0,0.0,0.0,0.0,0.0,0.0,0.0,0.0,0.0,0.0,0.0,0.0,0.0,0.0,0.0,0.0,0.0,0.0,0.0,0.0,0.0,0.0,0.0,0.0,0.0,0.0,0.0,0.0,0.0,0.0,0.0,0.0,0.0,0.0,0.0,-2.5359,-2.5959,0.0,-2.7111,-2.7593,-2.7915,-2.8043,-2.8376,-2.8889,-2.9466,-2.9965,-3.0539,-3.1264,-3.1543,-3.2013,-3.2696,-3.2696,-3.2963,-3.3426,-3.3426,-3.3426,-3.3426,-3.3426,-3.3426,-3.3426,-3.3426,-3.3426,-3.35,-3.4377,-3.4375,-3.3679,-3.4321,-3.4422,-3.4165,-3.4165,-3.4257,-3.4385,0.0,0.0,0.0,0.0,0.0,0.0,0.0,0.0,0.0,0.0,0.0,-1.6934,-1.713,-1.7692,-1.8184,-1.8542,-1.9065,-1.9519,-1.9924,0.0,0.0,0.0,0.0,0.0,0.0,-2.3813,-2.4583,-2.4941,-2.5551,-2.6143,-2.6655,-2.7064,-2.749,-2.7897,-2.8129,-2.8168,-2.8226,-2.8399,-2.8309,-2.8049,-2.8276,-2.8408,-2.8427,0.0,0.0,0.0,0.0,0.0,0.0,0.0,0.0,0.0,0.0,0.0,0.0,0.0,0.0,0.0,0.0,0.0,0.0,0.0,0.0,0.0,0.0,0.0,0.0,0.0,0.0,0.0,0.0,0.0,0.0,0.0,0.0,0.0,0.0,-2.465,-2.5469,-2.6292,-2.6847,-2.7358,-2.7799,-2.8201,-2.8456,-2.8583,-2.8916,-2.9409,-2.9978,-3.0365,-3.0893,-3.1457,-3.1622,-3.1952,-3.2634,-3.271,-3.2978,-3.3609,-3.3609,-3.3685,-3.3761,-3.3761,-3.3761,-3.3761,-3.3761,-3.3761,-3.3837,-3.4632,-3.4705,-3.4318,-3.4994,-3.5155,-3.5027,-3.5027,-3.5119,-3.5247,0.0,0.0,0.0,0.0,0.0,0.0,0.0,0.0,0.0,0.0,-1.7014,-1.745,-1.805,-1.8619,-1.914,-1.978,-2.0088,-2.0328,-2.0328,-2.0328,0.0,0.0,0.0,0.0,-2.4579,-2.499,-2.5594,-2.6571,-2.6631,-2.7116,-2.802,-2.802,-2.8379,-2.8975,-2.8975,-2.8975,-2.8975,-2.8975,-2.8535,-2.7801,-2.7801,-2.7972,-2.82,0.0,0.0,0.0,0.0,0.0,0.0,0.0,0.0,0.0,0.0,0.0,0.0,0.0,0.0,0.0,0.0,0.0,0.0,0.0,0.0,0.0,0.0,0.0,0.0,0.0,0.0,0.0,0.0,0.0,0.0,0.0,0.0,0.0,-2.468,-2.5586,-2.6347,-2.6697,-2.7615,-2.8233,-2.8233,-2.8583,-2.8948,-2.9282,-2.9647,-2.9981,-3.0315,-3.0718,-3.1118,-3.1458,-3.1776,-3.2166,-3.2588,-3.2588,-3.2816,-3.3196,-3.3196,-3.3441,-3.3761,-3.3761,-3.3761,-3.3761,-3.3761,-3.3837,-3.393,-3.4649,-3.5025,-3.5082,-3.5503,-3.5412,-3.5064,-3.5082,-3.5339,-3.5724,0.0,0.0,0.0,0.0,0.0,0.0,0.0,0.0,0.0,0.0,-1.7701,-1.802,-1.8588,-1.9055,-1.9528,-2.0117,-2.043,-2.0673,-2.0917,0.0,0.0,0.0,0.0,0.0,-2.4579,-2.5659,-2.6327,-2.6571,-2.7056,-2.7521,-2.802,-2.8277,-2.8576,-2.8975,-2.8975,-2.8874,-2.8636,-2.8636,-2.839,-2.7997,-2.8174,-2.8174,-2.802,0.0,0.0,0.0,0.0,0.0,0.0,0.0,0.0,0.0,0.0,0.0,0.0,0.0,0.0,0.0,0.0,0.0,0.0,0.0,0.0,0.0,0.0,0.0,0.0,0.0,0.0,0.0,0.0,0.0,0.0,0.0,-2.5306,-2.588,-2.5789,-2.6424,-2.7118,-2.771,-2.8275,-2.8614,-2.8614,-2.9171,-2.9568,-2.9679,-2.9997,-3.033,-3.0696,-3.0862,-3.1038,-3.1389,-3.1542,-3.1743,-3.2146,-3.2146,-3.2512,-3.3196,-3.3196,-3.3441,-3.3761,-3.3761,-3.3761,-3.3761,-3.3761,-3.4143,-3.4689,-3.5222,-3.5762,-3.6322,-3.6087,-3.5981,-3.5925,-3.6219,-3.6586,-3.6934,0.0,0.0,0.0,0.0,0.0,0.0,0.0,0.0,0.0,0.0,-1.8174,-1.8432,-1.9186,-1.9453,-1.9861,-2.0585,-2.0801,-2.1017,-2.1375,0.0,0.0,0.0,0.0,-2.4569,-2.518,-2.6144,-2.6692,-2.6995,-2.734,-2.7762,-2.8199,-2.8397,-2.8696,-2.8993,-2.9039,-2.8932,-2.8769,-2.8749,-2.8577,-2.8333,-2.8534,-2.8321,-2.7984,-2.7712,-2.7623,-2.7606,-2.7358,-2.727,-2.7252,-2.7093,0.0,0.0,0.0,0.0,0.0,0.0,0.0,0.0,0.0,0.0,0.0,0.0,0.0,0.0,0.0,0.0,0.0,0.0,0.0,0.0,0.0,0.0,0.0,0.0,-2.6182,-2.6707,-2.6984,-2.7407,-2.7818,-2.8354,-2.89,-2.9218,-2.9218,-2.9711,-3.0092,-3.0251,-3.0442,-3.0696,-3.1061,-3.1077,-3.1172,-3.1379,-3.1395,-3.1533,-3.1763,-3.1763,-3.2146,-3.2968,-3.2968,-3.3373,-3.4076,-3.4076,-3.4162,-3.4316,-3.4452,-3.4803,-3.532,-3.5858,-3.6367,-3.6759,0.0,0.0,0.0,0.0,-3.7228,-3.7429,0.0,0.0,0.0,0.0,0.0,0.0,0.0,0.0,0.0,0.0,0.0,-1.8819,-1.9768,-1.984,-2.0209,-2.1088,-2.1203,-2.1432,0.0,0.0,0.0,-2.353,0.0,-2.5117,-2.5973,-2.6446,-2.6995,-2.7521,-2.7581,-2.79,-2.8517,-2.8517,-2.8696,-2.8934,-2.9034,-2.9033,-2.9008,-2.9013,-2.8877,-2.8644,-2.8644,-2.8412,-2.8023,-2.8023,-2.8006,-2.7953,-2.7953,-2.7935,-2.7847,-2.7511,0.0,0.0,0.0,0.0,0.0,0.0,0.0,0.0,0.0,0.0,0.0,0.0,0.0,0.0,0.0,0.0,0.0,0.0,0.0,0.0,0.0,0.0,0.0,0.0,-2.6904,-2.7576,-2.817,-2.8295,-2.8452,-2.8821,-2.9425,-2.9822,-2.9822,-3.0156,-3.0505,-3.0839,-3.0978,-3.1061,-3.1379,-3.1395,0.0,0.0,0.0,-3.1395,-3.1395,-3.1395,-3.1763,-3.2588,-3.2637,-3.3296,-3.4385,-3.4436,-3.4719,-3.5123,-3.5418,-3.5669,-3.586,-3.6558,-3.6886,-3.6999,-3.7312,-3.7448,-3.7484,-3.7484,-3.7521,-3.7558,0.0,0.0,0.0,0.0,0.0,0.0,0.0,0.0,0.0,-1.8764,-1.8817,-1.9151,-2.0055,-2.0128,-2.039,-2.1159,-2.1432,-2.1847,0.0,0.0,0.0,0.0,0.0,-2.5528,-2.5973,-2.685,-2.7401,-2.7521,-2.802,-2.8397,-2.8517,-2.8755,-2.8815,-2.8594,-2.8931,-2.8788,-2.8333,-2.8657,-2.8581,-2.8329,-2.8329,-2.8226,-2.8168,-2.8168,-2.7961,-2.7685,-2.7685,-2.7496,-2.7237,-2.7168,-2.7151,-2.7134,-2.7065,0.0,0.0,0.0,0.0,0.0,0.0,0.0,0.0,0.0,0.0,0.0,0.0,0.0,0.0,0.0,0.0,0.0,0.0,0.0,0.0,-2.6957,-2.7808,-2.8544,-2.8671,-2.8941,-2.9115,-2.9186,-2.9568,-2.9822,-2.9822,-3.0394,-3.0791,-3.0855,-3.1125,-3.1315,-3.1379,-3.1395,-3.1395,-3.1395,-3.1395,-3.1395,-3.1395,-3.1395,-3.1763,-3.2604,-3.2901,0.0,-3.4402,-3.471,-3.5115,-3.5496,-3.5556,-3.6121,-3.703,-3.7186,-3.7698,-3.8189,-3.7609,-3.7613,-3.7906,-3.7906,-3.8108,-3.8322,0.0,0.0,0.0,0.0,0.0,0.0,0.0,0.0,0.0,0.0,-1.9261,-1.9551,-2.0124,-2.0329,-2.0676,-2.1159,-2.1603,0.0,0.0,0.0,0.0,0.0,0.0,0.0,-2.6199,-2.6873,-2.7526,-2.802,-2.8337,-2.8576,-2.8755,-2.8934,-2.8815,-2.8553,-2.8946,-2.8844,-2.8445,-2.883,-2.8879,-2.8751,-2.8575,-2.851,-2.8459,-2.8086,-2.7689,-2.7332,-2.7332,-2.7097,-2.6856,-2.6856,-2.6722,-2.6571,-2.6571,-2.651,-2.6327,0.0,0.0,0.0,0.0,0.0,0.0,0.0,0.0,0.0,0.0,0.0,0.0,0.0,0.0,-2.6059,-2.6573,0.0,-2.7358,-2.7878,-2.8465,-2.8837,-2.9012,-2.9186,-2.9361,-2.9536,-2.987,-3.014,-3.033,-3.0823,-3.1125,-3.1125,-3.1284,-3.1395,-3.1395,-3.1395,-3.1395,-3.1395,-3.1395,-3.1395,-3.1395,-3.1609,-3.209,-3.2885,-3.3298,-3.4048,-3.495,-3.5391,-3.5817,-3.6149,-3.6605,-3.7123,-3.7697,-3.7934,-3.8219,-3.8603,-3.8416,-3.8301,-3.8328,-3.8328,-3.8614,-3.8956,0.0,0.0,0.0,0.0,0.0,0.0,0.0,0.0,0.0,0.0,-1.9723,-1.9994,-2.0248,-2.053,-2.0852,0.0,0.0,0.0,0.0,0.0,0.0,0.0,0.0,0.0,-2.6371,-2.6889,-2.7588,-2.8517,-2.8576,-2.8755,-2.8975,-2.8975,-2.8815,-2.8433,-2.8897,-2.894,-2.8633,-2.912,-2.925,-2.9185,-2.8939,-2.8741,-2.8543,-2.7925,-2.753,-2.7208,-2.7208,-2.6978,-2.6727,-2.6727,-2.648,-2.6182,-2.6182,-2.6133,-2.6022,-2.6022,-2.5778,0.0,0.0,0.0,0.0,0.0,0.0,0.0,0.0,0.0,-2.6407,-2.6708,-2.6835,-2.7057,-2.7629,-2.7836,-2.8122,-2.8678,-2.8821,-2.8964,-2.925,-2.9298,-2.9425,-2.9628,-2.996,-3.0308,-3.0747,-3.1112,-3.1318,-3.1318,-3.1395,-3.1395,-3.1395,-3.1395,-3.1395,-3.1395,-3.1395,-3.1395,-3.1395,-3.1763,-3.2402,-3.3243,-3.3697,-3.4457,-3.5515,-3.6077,-3.6525,-3.6885,-3.7765,-3.8084,-3.8163,-3.856,-3.8719,-3.8798,-3.9272,-3.9193,-3.8877,-3.8877,-3.9114,-3.943,0.0,0.0,0.0,0.0,0.0,0.0,0.0,0.0,0.0,0.0,0.0,0.0,0.0,0.0,0.0,0.0,0.0,0.0,0.0,0.0,0.0,0.0,0.0,0.0,-2.6371,-2.7105,-2.7807,-2.8517,-2.8815,-2.8975,-2.8975,-2.8975,-2.8677,-2.8115,-2.8774,-2.8815,-2.83,-2.8991,-2.9119,-2.8873,-2.8807,-2.8395,-2.7833,-2.7751,-2.7654,-2.7635,-2.7635,-2.7404,-2.7044,-2.7044,-2.6796,-2.6562,-2.6562,-2.6163,-2.5672,-2.5672,0.0,-2.5244,-2.55,-2.5865,-2.6104,-2.6136,-2.6152,-2.6248,0.0,0.0,-2.6708,-2.7073,-2.7391,-2.7645,-2.7725,-2.8233,-2.8678,-2.8757,-2.9028,-2.925,-2.9298,-2.9298,-2.9281,-2.9247,-2.9591,-2.9875,-3.0218,-3.0653,-3.0871,-3.0871,-3.1164,-3.1395,-3.1395,-3.1395,-3.1395,-3.1395,-3.1395,-3.1395,-3.1395,-3.1763,-3.2402,-3.3243,-3.3887,-3.4711,-3.5515,-3.6275,-3.693,-3.7365,-3.8163,-3.856,-3.856,-3.9035,-3.9193,-3.9272,-3.9666,-3.9823,-3.9745,-3.9745,-3.9823,-3.9823,0.0,0.0,0.0,0.0,0.0,0.0,0.0,0.0,0.0,0.0,0.0,0.0,0.0,0.0,0.0,0.0,0.0,0.0,0.0,0.0,0.0,0.0,0.0,0.0,-2.6324,-2.6885,-2.7584,-2.841,-2.8806,-2.8975,-2.8975,-2.8815,-2.8457,-2.8055,-2.8606,-2.8644,-2.8237,-2.8991,-2.9119,-2.8807,-2.8609,-2.8196,-2.77,-2.7451,-2.7437,-2.744,-2.744,-2.7214,0.0,0.0,-2.6664,-2.6373,-2.6373,-2.615,-2.5959,-2.5959,-2.5833,0.0,-2.5898,-2.6041,-2.6264,-2.6471,-2.6519,-2.6614,-2.6899,-2.6978,-2.7089,-2.7439,-2.7629,-2.7852,-2.8265,-2.8567,-2.8837,-2.9043,-2.9202,-2.9298,-2.9298,-2.9298,-2.9353,-2.9555,-2.968,-2.9875,-3.0233,-3.0576,-3.0856,-3.1164,-3.1318,-3.1395,-3.1395,-3.1395,-3.1395,-3.1395,-3.1395,-3.1533,-3.1763,-3.2146,-3.2786,-3.3553,-3.4311,-3.5155,-3.5929,-3.671,-3.7445,-3.8163,-3.8719,-3.9035,-3.9035,-3.9509,-3.9666,-3.9666,-4.0137,-4.0294,-4.0216,-3.9981,-4.0059,-4.0294,0.0,0.0,0.0,0.0,0.0,0.0,0.0,0.0,0.0,0.0,0.0,0.0,0.0,0.0,0.0,0.0,0.0,0.0,0.0,0.0,0.0,0.0,0.0,0.0,-2.6302,-2.6605,-2.7283,-2.8388,-2.8682,-2.8883,-2.8975,-2.8636,-2.8337,-2.7995,-2.8377,-2.8414,-2.8237,-2.8888,-2.8969,-2.8675,-2.8395,-2.7998,-2.7517,-2.7267,-2.72,-2.72,-2.72,-2.7042,0.0,0.0,-2.6776,-2.6488,-2.66,-2.6536,-2.6472,-2.6472,-2.6472,-2.6488,-2.6359,0.0,0.0,-2.6756,-2.6819,-2.6883,-2.7137,-2.728,-2.7423,-2.7677,-2.7884,-2.817,-2.8678,-2.8853,-2.8996,-2.925,-2.9298,-2.9298,-2.9298,-2.9298,-2.9321,-2.9502,-2.954,-2.9735,-3.0093,-3.0529,-3.0933,-3.1241,-3.1318,-3.1395,-3.1395,-3.1395,-3.1395,-3.1395,-3.1549,-3.1686,-3.1993,-3.2528,-3.3092,-3.3785,-3.4701,-3.5548,-3.6245,-3.7188,-3.8004,-3.8798,-3.9193,-3.9351,-3.9509,-3.9902,-4.0059,-4.0137,-4.0509,-4.0666,-4.0685,-4.0372,-4.0451,-4.0666,0.0,0.0,0.0,0.0,0.0,0.0,0.0,0.0,0.0,0.0,0.0,0.0,0.0,0.0,0.0,0.0,0.0,0.0,0.0,0.0,0.0,0.0,0.0,0.0,-2.6302,-2.632,-2.6996,-2.8388,-2.8407,-2.8608,-2.8975,-2.8636,-2.8337,-2.7977,-2.8079,-2.8154,-2.822,-2.8631,-2.8601,-2.8329,-2.8329,-2.7865,-2.72,-2.72,-2.72,-2.72,-2.72,0.0,0.0,0.0,-2.7473,-2.7247,-2.7555,-2.7454,0.0,-2.7189,-2.718,-2.7117,-2.6791,-2.6914,-2.7169,-2.7185,-2.7185,-2.7185,-2.72,-2.7471,-2.7725,-2.7725,-2.8265,-2.8742,-2.8828,-2.9043,-2.9282,-2.9298,-2.9298,-2.9298,-2.9298,-2.9298,-2.9154,-2.8779,-2.9018,-2.9377,-2.9809,-3.0389,-3.0794,-3.0794,-3.1164,-3.1395,-3.1395,-3.1395,-3.1395,-3.1395,-3.1763,-3.1993,-3.1993,-3.2816,-3.3398,-3.3785,-3.4994,-3.5765,-3.6245,-3.7427,-3.8481,-3.9272,-3.9272,-3.9509,-3.9902,-4.0353,-4.0509,-4.0509,-4.1016,-4.1172,-4.1172,-4.1172,-4.1172,-4.1172,0.0,0.0,0.0,0.0,0.0,0.0,0.0,0.0,0.0,0.0,0.0,0.0,0.0,0.0,0.0,0.0,0.0,0.0,0.0,0.0,0.0,0.0,0.0,-2.503,-2.5579,-2.6066,-2.6614,-2.728,-2.8016,-2.8345,-2.8296,-2.8194,-2.802,-2.7659,-2.7739,-2.7813,-2.7843,-2.8494,-2.8578,-2.8242,-2.8492,-2.8329,-2.7932,-2.7932,-2.7932,-2.7932,0.0,0.0,0.0,0.0,-2.7768,-2.7949,-2.8081,-2.7998,-2.7899,-2.7899,-2.7916,-2.7884,-2.7818,-2.7635,-2.7517,-2.7517,-2.7384,-2.72,-2.72,-2.7471,-2.7788,-2.8011,-2.844,-2.8837,-2.9075,-2.9218,-2.9298,-2.9298,-2.9298,-2.9298,-2.9298,-2.9298,-2.9226,-2.9138,-2.9382,-2.9729,-3.0076,-3.0307,-3.0606,-3.1148,-3.1318,-3.1395,-3.1395,-3.1609,-3.1763,-3.1763,-3.2222,-3.2528,-3.2816,-3.3044,-3.3416,-3.3797,-3.526,-3.6532,-3.7409,-3.8109,-3.8719,-3.9351,-3.9588,-3.9902,-4.0353,-4.0763,-4.0919,-4.0997,-4.1172,-4.1172,-4.125,-4.1483,-4.1618,-4.154,0.0,0.0,0.0,0.0,0.0,0.0,0.0,0.0,0.0,0.0,0.0,0.0,0.0,0.0,0.0,0.0,0.0,0.0,0.0,0.0,0.0,0.0,-2.4479,-2.4923,-2.5165,-2.5632,-2.6104,-2.6527,-2.7293,-2.7691,-2.7728,-2.77,-2.7579,-2.7521,-2.7417,-2.7484,-2.7655,-2.8289,-2.8439,-2.8269,-2.8656,-2.8609,-2.8329,-2.8329,-2.8329,0.0,0.0,0.0,0.0,0.0,-2.8263,-2.8477,-2.8593,-2.8659,-2.8659,-2.8527,-2.8477,-2.8461,-2.8329,-2.813,-2.7915,-2.7915,-2.7733,-2.7632,-2.7761,-2.8067,-2.8337,-2.876,-2.8991,-2.9241,-2.9465,-2.9369,-2.9298,-2.9298,-2.9298,-2.9298,-2.9298,-2.9298,-2.9298,-2.9298,-2.9504,-2.9822,-3.0267,-3.0222,-3.0568,-3.1347,-3.1395,-3.1472,-3.1625,-3.184,-3.2069,-3.2222,-3.2588,-3.2968,-3.3196,-3.3348,-3.3805,-3.4689,-3.5857,-3.7059,-3.8243,-3.864,-3.9114,-3.9509,-3.9981,-4.0372,-4.0763,-4.1094,-4.1172,-4.1172,-4.1327,-4.1405,-4.1463,-4.185,-4.2005,-4.2005,0.0,0.0,0.0,0.0,0.0,0.0,0.0,0.0,0.0,0.0,0.0,0.0,0.0,0.0,0.0,0.0,0.0,0.0,0.0,0.0,0.0,0.0,0.0,0.0,-2.5165,-2.5165,-2.5506,-2.6229,-2.6302,-2.6693,-2.7422,-2.7123,-2.7155,-2.7426,-2.7177,-2.7261,-2.7604,-2.7997,-2.8184,-2.8235,-2.8622,-2.8593,-2.8329,-2.8329,0.0,0.0,0.0,0.0,0.0,0.0,0.0,0.0,-2.9185,-2.9316,-2.925,-2.8939,-2.8807,-2.8741,-2.8461,-2.8329,-2.8329,-2.8329,-2.8329,-2.8362,-2.8725,-2.9071,-2.9435,-2.9814,-2.9895,-2.9926,0.0,-2.9585,-2.9369,-2.9298,-2.9298,-2.9298,-2.9298,-2.9298,-2.9298,-2.9298,-2.9298,-2.9568,-3.0251,-3.0315,-3.0616,-3.1408,-3.1472,-3.1625,-3.1993,-3.2069,-3.2222,-3.2588,-3.3044,-3.3196,-3.3196,-3.3626,-3.4689,-3.6213,-3.6603,-3.7467,-3.864,-3.9114,-3.9509,-3.9902,-4.0353,-4.0763,-4.1172,-4.125,-4.125,-4.125,-4.1695,-4.185,-4.185,-4.2293,-4.2447,-4.2447,0.0,0.0,0.0,0.0,0.0,0.0,0.0,0.0,0.0,0.0,0.0,0.0,0.0,0.0,0.0,0.0,0.0,0.0,0.0,0.0,0.0,0.0,0.0,0.0,0.0,0.0,0.0,0.0,0.0,-2.6314,-2.6241,-2.676,-2.6898,0.0,-2.6996,-2.7124,-2.7227,-2.7604,-2.7918,-2.8247,0.0,-2.8881,-2.9053,0.0,0.0,0.0,0.0,0.0,0.0,0.0,0.0,0.0,0.0,-2.9316,-2.9316,-2.9185,-2.9185,-2.9185,-2.9053,-2.8856,-2.8675,-2.8675,-2.8477,-2.8362,-2.8725,-2.9071,-2.9435,-2.9814,-3.0107,-3.0299,-3.0299,-3.0228,-3.0014,-2.9783,-2.9728,-2.9656,-2.9369,-2.9298,-2.9298,-2.9298,0.0,-2.9713,-3.0727,-3.0792,-3.1232,-3.225,-3.1993,-3.1993,-3.2452,-3.274,-3.2968,-3.3044,-3.3441,-3.3685,-3.3685,-3.4339,-3.532,-3.6638,-3.7041,-3.7686,-3.864,-3.9114,-3.9509,-3.9902,-4.0353,-4.0763,-4.125,-4.154,-4.1618,-4.1695,-4.2082,-4.2216,-4.2293,-4.2697,-4.2851,-4.2851,0.0,0.0,0.0,0.0,0.0,0.0,0.0,0.0,0.0,0.0,0.0,0.0,0.0,0.0,0.0,0.0,0.0,0.0,0.0,0.0,0.0,0.0,0.0,0.0,0.0,0.0,0.0,0.0,0.0,0.0,0.0,-2.6266,-2.665,-2.6922,-2.7148,-2.7339,-2.7513,0.0,0.0,0.0,0.0,0.0,0.0,0.0,0.0,0.0,0.0,0.0,0.0,0.0,0.0,-2.9316,-2.9316,-2.9316,-2.9316,-2.9316,0.0,-2.9316,-2.9316,-2.9185,-2.8988,-2.8988,-2.8856,-2.8859,-2.9396,-2.9664,-2.9966,-3.0503,-3.0647,-3.0655,-3.0655,-3.0513,-3.037,0.0,0.0,0.0,-2.9799,-2.9799,-2.9799,0.0,-2.9799,-3.0146,-3.1097,-3.1236,-3.1679,-3.2766,-3.2512,-3.2452,-3.2816,-3.3044,-3.3272,-3.3441,-3.3685,-3.3998,-3.4305,-3.5128,-3.6005,-3.7095,-3.7492,-3.8007,-3.864,-3.9272,-3.9666,-3.9902,-4.0529,-4.1074,-4.1463,-4.1695,-4.1927,-4.2082,-4.2544,-4.2697,-4.2697,-4.3081,-4.3386,-4.3539,0.0,0.0,0.0,0.0,0.0,0.0,0.0,0.0,0.0,0.0,0.0,0.0,0.0,0.0,0.0,0.0,0.0,0.0,0.0,0.0,0.0,0.0,0.0,0.0,0.0,0.0,0.0,0.0,0.0,0.0,0.0,0.0,0.0,0.0,0.0,0.0,0.0,0.0,0.0,0.0,0.0,0.0,0.0,0.0,0.0,0.0,0.0,0.0,0.0,0.0,-3.0653,-2.9516,-2.945,-2.9416,-2.9382,-2.9316,-2.9316,-2.9316,-2.9316,-2.9316,-2.9316,-2.9316,-2.9316,-2.957,-3.0325,-3.0497,-3.0789,-3.1546,-3.1489,-3.1223,-3.1223,-3.0939,-3.0584,-3.0584,0.0,-3.0442,-3.0442,-3.037,-3.037,-3.037,-3.0491,-3.0772,-3.1522,-3.1638,-3.2085,-3.3222,-3.2985,-3.2985,-3.3272,-3.3272,-3.3441,-3.3837,-3.3964,-3.4398,-3.5145,-3.5994,-3.6755,-3.7463,-3.7903,-3.8322,-3.8719,-3.9509,-3.9902,-4.0059,-4.086,-4.1405,-4.1773,-4.185,-4.2159,-4.2524,-4.2927,-4.3081,-4.3157,-4.3539,-4.3919,-4.4201,0.0,0.0,0.0,0.0,0.0,0.0,0.0,0.0,0.0,0.0,-2.2553,-2.2247,0.0,0.0,0.0,0.0,0.0,0.0,0.0,0.0,0.0,0.0,0.0,0.0,0.0,0.0,0.0,0.0,0.0,0.0,0.0,0.0,0.0,0.0,0.0,0.0,0.0,0.0,0.0,0.0,0.0,0.0,0.0,0.0,0.0,0.0,0.0,0.0,0.0,0.0,-3.1163,-3.0641,-3.031,-2.9952,-2.9691,-2.9364,-2.9316,-2.9316,-2.9316,-2.9316,-2.9316,-2.9316,-2.9495,-2.9882,-3.0731,-3.1108,0.0,0.0,-3.2421,-3.2421,-3.2421,-3.2052,-3.1683,-3.1418,-3.1135,-3.0797,-3.0442,-3.037,-3.037,0.0,-3.0706,-3.1198,-3.1906,-3.2315,-3.2834,-3.3651,-3.3912,-3.3988,-3.3685,-3.3685,-3.3912,-3.429,-3.4965,-3.5546,-3.5994,-3.6773,-3.7402,-3.7896,-3.8286,-3.8719,-3.9193,-3.9666,-4.0059,-4.0431,-4.1016,-4.1405,-4.185,-4.2139,-4.2524,-4.2927,-4.331,-4.3462,-4.3539,-4.3995,-4.4125,-4.4277,0.0,0.0,0.0,0.0,0.0,0.0,0.0,-2.3805,-2.3605,-2.3605,-2.3138,-2.2805,-2.2843,-2.2637,-2.2711,0.0,0.0,0.0,0.0,0.0,0.0,0.0,0.0,0.0,0.0,0.0,-2.4868,-2.5017,0.0,-2.5331,-2.5679,-2.604,-2.6421,-2.6805,-2.7298,0.0,0.0,0.0,0.0,0.0,0.0,0.0,0.0,0.0,0.0,0.0,0.0,0.0,0.0,0.0,-3.2498,-3.2003,-3.1251,-3.0782,-3.0382,-3.0268,-3.0062,-2.9839,-2.9839,-2.9839,-2.9839,-2.9839,-3.0175,-3.054,-3.112,0.0,0.0,0.0,-3.2701,-3.2701,-3.2701,-3.2561,0.0,-3.221,-3.1999,-3.1718,-3.1347,-3.1277,-3.1206,-3.1081,-3.1544,-3.2134,-3.2638,-3.3253,-3.3874,-3.4389,-3.4574,-3.4574,-3.4139,-3.4273,-3.4586,-3.5023,-3.5597,-3.6201,-3.6791,-3.7439,-3.7904,-3.8322,-3.8481,-3.8877,-3.9351,-3.9745,-4.0137,-4.0509,-4.123,-4.1773,-4.2139,-4.2544,-4.2927,-4.331,-4.3767,-4.3919,-4.3995,-4.4352,-4.4654,-4.488,0.0,0.0,0.0,0.0,0.0,0.0,0.0,-2.4053,-2.3904,-2.3904,-2.3655,-2.3406,-2.3188,-2.2962,-2.303,0.0,0.0,0.0,0.0,0.0,0.0,0.0,0.0,0.0,0.0,0.0,0.0,-2.5221,-2.5331,0.0,0.0,0.0,0.0,0.0,-2.7475,-2.8033,-2.8819,0.0,0.0,0.0,0.0,-3.1285,0.0,0.0,0.0,0.0,0.0,0.0,0.0,0.0,-3.3753,-3.3303,-3.2431,-3.1729,-3.1203,-3.1136,-3.087,-3.0502,-3.0502,-3.0497,-3.0378,-3.0378,-3.0728,-3.1251,-3.1644,-3.2105,0.0,-3.3031,-3.3121,-3.3051,-3.3051,0.0,-3.2859,0.0,-3.2771,-3.2561,-3.2263,-3.2263,-3.214,0.0,-3.2522,0.0,-3.3506,-3.4186,-3.4688,-3.4989,-3.5082,-3.4932,-3.4574,-3.4932,-3.5335,-3.5744,-3.6232,-3.6841,-3.7529,-3.7951,-3.831,-3.856,-3.8719,-3.8956,-3.943,-3.9823,-4.0294,-4.0666,-4.1463,-4.2005,-4.2447,-4.2851,-4.3233,-4.3615,-4.405,-4.4201,-4.4277,-4.473,-4.5106,-4.5405,0.0,0.0,0.0,0.0,0.0,0.0,0.0,-2.4301,-2.4152,-2.4152,-2.3954,-2.3755,-2.3755,-2.3473,-2.3507,0.0,0.0,0.0,0.0,0.0,0.0,0.0,0.0,0.0,0.0,0.0,0.0,-2.5221,-2.5734,0.0,0.0,0.0,0.0,0.0,0.0,-2.8033,-2.8748,-2.9145,0.0,0.0,0.0,0.0,0.0,0.0,0.0,0.0,0.0,0.0,0.0,0.0,0.0,-3.4245,-3.4139,-3.3175,-3.1949,-3.163,0.0,0.0,-3.0959,-3.071,-3.0378,-3.0378,-3.0924,-3.1667,-3.2314,0.0,-3.3818,-3.4552,-3.4439,-3.4232,-3.4232,-3.3678,-3.3278,-3.3278,0.0,-3.2701,-3.2631,-3.2631,-3.2755,-3.3109,0.0,0.0,-3.4368,-3.4741,-3.4971,-3.5007,-3.5306,-3.5381,-3.4932,-3.5306,-3.5728,-3.6142,-3.6867,-3.7499,-3.7938,-3.8304,-3.8524,-3.864,-3.9035,-3.943,-3.9823,-4.0275,-4.0685,-4.1172,-4.1618,-4.2005,-4.2447,-4.2851,-4.3233,-4.3615,-4.405,-4.4201,-4.4277,-4.5031,-4.5405,-4.548,0.0,0.0,0.0,0.0,0.0,0.0,-2.4726,-2.4677,-2.4548,-2.4399,-2.4301,-2.4202,-2.4053,-2.4172,-2.4281,-2.435,0.0,0.0,0.0,0.0,0.0,0.0,0.0,0.0,0.0,0.0,-2.5569,-2.5734,-2.5953,0.0,0.0,0.0,0.0,0.0,0.0,-2.8322,-2.9234,-2.9597,0.0,0.0,0.0,0.0,0.0,0.0,0.0,0.0,0.0,0.0,-3.3785,0.0,0.0,0.0,-3.4715,-3.4284,0.0,0.0,-3.2429,-3.2301,-3.2301,-3.2372,-3.2374,-3.2374,-3.2821,-3.3222,-3.3591,0.0,-3.4527,-3.4815,-3.4784,-3.4715,-3.4715,-3.4301,-3.3955,-3.3955,0.0,0.0,-3.3444,-3.3409,-3.3482,-3.3642,-3.4196,-3.4664,-3.4881,-3.5389,-3.5754,-3.5754,-3.5903,-3.5903,-3.5754,-3.6065,-3.6543,-3.6944,-3.7499,-3.7979,-3.8383,-3.8566,-3.8719,-3.9035,-3.9193,-3.9666,-4.0294,-4.0431,-4.0763,-4.125,-4.185,-4.2216,-4.2447,-4.3081,-4.3615,-4.3974,-4.4428,-4.473,-4.4955,-4.5555,-4.5779,-4.5779,0.0,0.0,0.0,0.0,0.0,-2.5039,-2.5039,-2.4941,-2.4824,-2.4627,-2.4627,-2.4585,-2.4467,-2.4743,-2.4926,-2.4948,-2.4844,0.0,0.0,0.0,0.0,0.0,0.0,0.0,0.0,0.0,-2.5898,-2.6118,-2.6282,-2.6554,0.0,0.0,-2.726,-2.7584,0.0,0.0,0.0,0.0,0.0,0.0,0.0,0.0,0.0,0.0,0.0,0.0,0.0,0.0,0.0,0.0,0.0,0.0,0.0,0.0,0.0,0.0,-3.3643,-3.3508,-3.3508,-3.3614,-3.3719,-3.3719,-3.4022,-3.4326,0.0,0.0,-3.5127,-3.5196,-3.5127,-3.5059,-3.5059,-3.4784,-3.4508,-3.4439,0.0,-3.4162,-3.4084,-3.4159,-3.4234,-3.4414,-3.4939,-3.5302,-3.5429,-3.5906,-3.6201,-3.6201,-3.6201,-3.6256,-3.6384,-3.6787,-3.7136,-3.7411,-3.7814,-3.8218,-3.864,-3.8719,-3.8956,-3.9272,-3.9569,-3.9962,-4.0509,-4.0666,-4.0919,-4.1405,-4.2082,-4.2447,-4.26,-4.331,-4.3843,-4.4201,-4.4654,-4.5031,-4.548,-4.5853,-4.6002,-4.6002,0.0,0.0,0.0,0.0,0.0,0.0,-2.5284,-2.5088,-2.4892,-2.4892,-2.4892,-2.4944,-2.5088,-2.5075,-2.5307,-2.5929,-2.5701,0.0,0.0,0.0,0.0,0.0,0.0,0.0,0.0,0.0,-2.6118,-2.6118,-2.6718,-2.6989,-2.6989,-2.726,-2.7584,-2.7906,0.0,0.0,0.0,0.0,0.0,0.0,0.0,0.0,0.0,0.0,0.0,0.0,0.0,0.0,0.0,0.0,0.0,0.0,0.0,0.0,0.0,0.0,-3.4599,-3.4259,-3.4259,-3.3974,-3.3719,-3.3719,-3.4022,-3.4412,0.0,0.0,-3.5626,-3.5947,-3.5743,-3.547,-3.547,-3.5196,-3.4784,-3.4439,-3.4706,0.0,-3.4474,-3.477,-3.5174,0.0,-3.5614,-3.5779,-3.6164,-3.6201,-3.6201,-3.6201,-3.6201,-3.6384,-3.6806,-3.7209,-3.7429,-3.7429,-3.7814,-3.8218,-3.864,-3.9035,-3.9272,-3.9351,-4.0118,-4.0509,-4.0509,-4.0997,-4.1405,-4.185,-4.2216,-4.2621,-4.3004,-4.3462,-4.3843,-4.4201,-4.4654,-4.5031,-4.548,-4.5853,-4.6002,-4.6077,0.0,0.0,0.0,0.0,0.0,0.0,0.0,-2.5479,-2.5382,-2.5186,-2.5186,-2.5241,-2.5409,-2.5507,-2.5744,-2.6231,-2.6021,0.0,0.0,0.0,0.0,0.0,0.0,0.0,0.0,0.0,-2.6518,-2.6718,-2.6935,-2.7206,-2.7638,-2.7906,-2.8194,-2.8461,-2.9079,-2.9808,0.0,0.0,0.0,0.0,0.0,0.0,-3.4797,0.0,0.0,0.0,0.0,0.0,0.0,0.0,0.0,0.0,0.0,0.0,0.0,0.0,0.0,0.0,-3.5141,-3.5162,-3.5336,-3.5586,-3.5731,-3.5916,-3.6321,0.0,-3.618,-3.6336,-3.6064,-3.5811,-3.5811,-3.5769,-3.5685,-3.5546,-3.5698,0.0,0.0,0.0,0.0,-3.5981,-3.6017,-3.6146,-3.6571,-3.659,-3.685,-3.7427,-3.7446,-3.7634,-3.8046,-3.8459,-3.8607,-3.8316,-3.8706,-3.9045,-3.9509,-3.9666,-3.9823,-4.0118,-4.0353,-4.0666,-4.0997,-4.1094,-4.1405,-4.185,-4.2216,-4.2621,-4.3081,-4.3767,-4.4277,-4.4654,-4.5031,-4.548,-4.5853,-4.5928,-4.6151,-4.6448,0.0,0.0,0.0,0.0,0.0,0.0,0.0,-2.5791,-2.5645,-2.5479,-2.5634,-2.5786,-2.5958,-2.6172,-2.6432,-2.6633,-2.6456,0.0,0.0,0.0,0.0,0.0,0.0,0.0,0.0,-2.6682,-2.6845,-2.6989,-2.7206,-2.7584,-2.8067,-2.8354,-2.8621,-2.8907,-2.9595,-3.0364,0.0,0.0,0.0,0.0,0.0,0.0,-3.5694,0.0,0.0,0.0,0.0,0.0,0.0,0.0,0.0,0.0,0.0,0.0,0.0,0.0,-3.6626,0.0,0.0,-3.6287,-3.6491,-3.6654,-3.6722,0.0,0.0,0.0,0.0,-3.6519,-3.6474,-3.6406,-3.6269,-3.6394,-3.6475,-3.6335,-3.654,-3.6618,0.0,0.0,0.0,-3.6627,-3.6664,-3.6738,-3.7034,-3.7165,-3.7446,-3.7915,-3.816,-3.8444,-3.8937,-3.9203,-3.9334,-3.9349,-3.9456,-3.9666,-3.9902,-4.0059,-4.0294,-4.0509,-4.0666,-4.0919,-4.1172,-4.1327,-4.1618,-4.2082,-4.2447,-4.2851,0.0,-4.3919,-4.4428,-4.4805,-4.5256,-4.563,-4.6002,-4.6151,-4.6374,-4.667,0.0,0.0,0.0,0.0,0.0,0.0,0.0,-2.5917,-2.5742,-2.5781,-2.6133,-2.6462,-2.6634,-2.6987,-2.716,-2.706,0.0,0.0,0.0,0.0,0.0,0.0,0.0,0.0,-2.6646,-2.6899,-2.7043,-2.7043,-2.7638,-2.8067,-2.8354,-2.8621,-2.8907,-2.9192,-2.9957,-3.0805,0.0,0.0,0.0,0.0,0.0,0.0,0.0,0.0,0.0,0.0,0.0,0.0,0.0,0.0,0.0,0.0,0.0,0.0,0.0,0.0,0.0,0.0,0.0,-3.7146,-3.7079,-3.7146,-3.7146,0.0,0.0,0.0,0.0,0.0,0.0,0.0,-3.6788,-3.7051,-3.7202,-3.6829,-3.7196,0.0,0.0,-3.7156,0.0,-3.7421,-3.744,-3.7459,-3.7459,-3.7819,-3.8159,-3.8178,-3.8557,-3.9032,-3.9432,-3.947,-3.9796,-4.049,-4.0216,-3.9981,-3.9981,-4.0353,-4.0588,-4.0588,-4.0997,-4.1172,-4.125,-4.1618,-4.2082,-4.2447,-4.2851,-4.3233,-4.3691,-4.405,-4.4504,-4.488,-4.5256,-4.5704,-4.6077,-4.6448,-4.667,-4.6817,0.0,0.0,0.0,0.0,0.0,0.0,0.0,0.0,0.0,0.0,-2.6458,-2.668,-2.737,-2.7317,-2.7338,0.0,0.0,0.0,0.0,0.0,0.0,0.0,0.0,0.0,-2.6881,-2.7152,-2.7422,-2.7691,-2.8014,-2.8354,-2.8621,-2.9132,-2.9578,-2.9957,-3.0967,-3.2015,0.0,0.0,0.0,0.0,0.0,0.0,0.0,0.0,0.0,0.0,-3.7339,-3.7445,0.0,0.0,0.0,0.0,0.0,0.0,0.0,0.0,-3.7904,-3.7904,-3.7904,0.0,-3.7146,-3.7415,-3.7482,-3.7549,0.0,0.0,0.0,0.0,0.0,0.0,0.0,0.0,0.0,-3.7631,0.0,-3.82,-3.7782,-3.7492,0.0,-3.7421,-3.7686,-3.795,-3.8267,-3.8724,-3.9259,-3.9891,-4.0007,-4.024,-4.0763,-4.0783,-4.0822,-4.0997,-4.0938,-4.086,-4.086,-4.1016,-4.1016,-4.1016,-4.1172,-4.1327,-4.1618,-4.1773,-4.2159,-4.2851,-4.2927,-4.3386,-4.405,-4.4504,-4.488,-4.533,-4.5704,-4.6077,-4.6448,-4.6596,-4.6965,-4.7575,0.0,0.0,0.0,0.0,0.0,0.0,0.0,0.0,0.0,0.0,0.0,0.0,0.0,0.0,0.0,0.0,0.0,0.0,0.0,0.0,0.0,0.0,0.0,-2.7152,-2.7152,-2.7476,-2.7799,-2.8067,-2.8354,-2.8727,-2.9099,-2.9652,-3.0142,-3.0677,-3.196,-3.301,0.0,0.0,0.0,0.0,-3.6441,0.0,0.0,0.0,0.0,0.0,-3.7654,-3.7806,0.0,-3.8432,-3.8549,-3.837,0.0,0.0,0.0,0.0,-3.8191,-3.8233,-3.844,-3.8068,-3.7677,-3.8083,-3.8145,-3.8253,0.0,0.0,0.0,0.0,0.0,0.0,0.0,0.0,0.0,0.0,-3.8418,0.0,0.0,0.0,-3.8204,-3.8204,-3.8588,-3.8932,-3.9157,-3.962,-4.0045,-4.0508,-4.0703,-4.0918,-4.1172,-4.1172,-4.1172,-4.1172,-4.1172,-4.1172,-4.1172,-4.1172,-4.1172,-4.1172,-4.1172,-4.1405,-4.1773,-4.2005,-4.239,-4.3004,-4.3157,-4.3615,-4.4201,-4.4654,-4.5031,-4.548,-4.6077,-4.6374,-4.667,-4.7038,-4.7428,-4.7794,0.0,0.0,0.0,0.0,0.0,0.0,0.0,0.0,0.0,0.0,0.0,0.0,0.0,0.0,0.0,0.0,0.0,0.0,0.0,0.0,0.0,0.0,0.0,-2.7476,-2.753,-2.7853,-2.8121,-2.8388,-2.8734,-2.9252,-2.9761,-3.0212,-3.0781,-3.1496,-3.2855,-3.3754,0.0,0.0,-3.5561,-3.6078,-3.6566,0.0,0.0,0.0,0.0,0.0,0.0,0.0,0.0,-3.865,-3.8814,-3.8681,-3.837,0.0,0.0,0.0,0.0,0.0,-3.8662,-3.8564,-3.8398,-3.8765,-3.8889,-3.8993,-3.9316,0.0,0.0,0.0,0.0,0.0,0.0,-3.832,0.0,0.0,-3.8633,-3.8672,-3.8672,-3.9043,-3.9316,-3.9316,-3.9707,-4.0,-4.0,-4.0371,-4.0625,-4.0625,-4.0976,-4.1172,-4.1172,-4.1172,-4.1172,-4.1172,-4.1172,-4.1172,-4.1172,-4.1172,-4.1172,-4.1172,-4.125,-4.1483,-4.1927,-4.2293,-4.2697,-4.3081,-4.3539,-4.3919,-4.4277,-4.473,-4.5106,-4.5555,-4.6299,-4.667,-4.6743,-4.7502,-4.7868,-4.7941,0.0,0.0,0.0,0.0,0.0,0.0,0.0,0.0,0.0,0.0,0.0,0.0,0.0,0.0,0.0,0.0,0.0,0.0,0.0,0.0,0.0,0.0,-2.796,-2.7906,-2.8194,-2.8408,-2.8727,-2.8973,-2.9654,-3.0158,-3.0553,-3.1246,-3.2099,-3.3071,-3.3741,-3.419,-3.4466,-3.5474,-3.5889,-3.61,-3.6915,0.0,0.0,0.0,0.0,0.0,0.0,0.0,0.0,-3.9367,-3.9144,-3.8681,-3.8615,0.0,0.0,0.0,0.0,0.0,-3.8662,-3.8724,-3.8786,-3.9261,-3.9364,-3.9316,-3.9101,0.0,0.0,0.0,0.0,0.0,0.0,-3.8535,-3.8574,0.0,-3.8867,-3.9101,-3.9101,-3.9492,-3.9785,-3.9785,-4.0176,-4.043,-4.043,-4.082,-4.1074,-4.1074,-4.1133,-4.1172,-4.1172,-4.1172,-4.1172,-4.1172,-4.1172,-4.1172,-4.1172,-4.1172,-4.1172,-4.1172,-4.156,-4.1927,-4.2293,-4.2697,-4.3157,-4.3539,-4.3919,-4.4352,-4.473,-4.5106,-4.5555,-4.5928,-4.6448,-4.6817,-4.7186,-4.7648,-4.8013,-4.8328,0.0,0.0,0.0,0.0,0.0,0.0,0.0,0.0,0.0,0.0,0.0,0.0,0.0,0.0,0.0,0.0,0.0,0.0,0.0,0.0,0.0,-2.9118,-2.9011,-2.8903,-2.8903,-2.9411,-2.9802,-3.0052,-3.0581,-3.1008,-3.13,-3.2217,-3.309,-3.3763,-3.4168,-3.4553,-3.4949,-3.567,-3.6187,-3.6413,0.0,0.0,0.0,0.0,0.0,0.0,0.0,0.0,0.0,0.0,-3.9494,-3.9144,-3.8814,0.0,0.0,0.0,0.0,0.0,-3.8972,-3.9158,-3.9323,-3.9815,-3.9725,-3.9622,-3.9657,0.0,0.0,0.0,0.0,0.0,0.0,0.0,-3.8652,-3.8887,-3.9277,-3.957,-3.957,-3.9961,-4.0234,-4.0234,-4.0605,-4.0879,-4.0879,-4.1055,-4.1172,-4.1172,-4.1172,-4.1172,-4.1172,-4.1172,-4.1172,-4.1172,-4.1172,-4.1327,-4.156,-4.154,-4.154,-4.154,-4.1927,-4.2293,-4.2774,-4.2927,-4.331,-4.3919,-4.4125,-4.4579,-4.5106,-4.533,-4.5779,-4.6374,-4.6743,-4.7186,-4.7575,-4.7941,-4.8255,-4.84,0.0,0.0,0.0,0.0,0.0,0.0,0.0,0.0,0.0,0.0,0.0,0.0,0.0,0.0,0.0,0.0,0.0,0.0,0.0,0.0,-2.9494,-2.9937,-3.0112,-3.0057,-2.9773,-3.0279,-3.0736,-3.1121,-3.1498,-3.1897,-3.2353,-3.3265,-3.3853,-3.4199,-3.4532,-3.4884,-3.5255,-3.5867,-3.6347,-3.6741,0.0,0.0,0.0,0.0,0.0,0.0,0.0,0.0,0.0,0.0,0.0,0.0,0.0,0.0,0.0,-3.8304,-3.8191,-3.8378,-3.9288,-3.9468,-3.9626,-4.0157,0.0,-3.981,-4.0033,-3.961,0.0,0.0,0.0,0.0,0.0,-3.8652,-3.8867,-3.9297,-3.9746,-4.0039,-4.0039,-4.041,-4.0684,-4.0684,-4.0976,-4.1172,-4.1172,-4.1172,-4.1172,-4.1172,-4.1172,-4.1172,-4.1172,-4.1172,-4.1172,-4.1172,-4.1327,-4.1483,-4.1773,-4.2005,-4.2005,-4.1927,-4.237,-4.2697,-4.3004,-4.3081,-4.3539,-4.4222,-4.4277,-4.473,-4.5405,-4.548,-4.5928,-4.667,-4.7038,-4.7502,-4.7941,-4.8328,-4.84,-4.84,0.0,0.0,0.0,0.0,0.0,0.0,0.0,0.0,0.0,0.0,0.0,0.0,0.0,0.0,0.0,0.0,0.0,0.0,0.0,0.0,-2.9957,-3.0399,-3.1101,-3.1268,-3.0785,-3.0825,-3.1175,-3.1743,-3.2183,-3.2937,-3.3923,-3.4302,-3.4435,-3.4479,-3.4971,-3.5168,-3.5277,-3.6238,-3.6653,-3.6741,-3.7199,0.0,0.0,0.0,0.0,0.0,0.0,0.0,0.0,0.0,0.0,0.0,0.0,0.0,-3.8615,-3.8304,-3.8191,-3.8378,-3.9288,-3.9468,-3.9626,-4.0157,-4.0289,0.0,-3.9465,-3.9248,0.0,-3.872,0.0,0.0,0.0,-3.8887,-3.9316,-3.9766,-4.0195,-4.0469,-4.0469,-4.0859,-4.1133,-4.1133,-4.1152,-4.1172,-4.1172,-4.1172,-4.1172,-4.1172,-4.1172,-4.1172,-4.1172,-4.1172,-4.1172,-4.1172,-4.154,-4.1773,-4.1773,-4.2544,-4.2697,-4.237,-4.2774,-4.2927,-4.3004,-4.3386,-4.3767,-4.4201,-4.4579,-4.5031,-4.5405,-4.5779,-4.6225,-4.667,-4.7038,-4.7648,-4.84,-4.84,-4.84,-4.8473,0.0,0.0,0.0,0.0,0.0,0.0,0.0,0.0,0.0,0.0,0.0,0.0,0.0,0.0,0.0,0.0,0.0,0.0,0.0,0.0,-3.0683,-3.142,-3.1717,-3.1973,-3.2321,-3.2321,-3.2434,-3.2658,-3.3239,-3.3802,-3.4367,-3.4479,-3.4534,-3.4534,-3.4993,-3.5386,-3.5714,-3.6413,-3.685,-3.7134,-3.7309,-3.7374,0.0,0.0,0.0,0.0,0.0,0.0,0.0,0.0,-4.0214,-3.9953,0.0,-3.9078,-3.888,-3.837,-3.8191,-3.8378,-3.9288,-3.9468,-3.9535,-3.9871,-3.995,0.0,0.0,-3.903,-3.8793,-3.8647,-3.8574,-3.8652,-3.8926,-3.9551,-4.0078,-4.0254,-4.0644,-4.0918,-4.0918,-4.1074,-4.1172,-4.1172,-4.1172,-4.1172,-4.1172,-4.1172,-4.1172,-4.1172,-4.1172,-4.1172,-4.1172,-4.1172,-4.1327,-4.156,-4.1695,-4.2005,-4.2544,-4.2851,-4.3081,-4.3136,-4.331,-4.3386,-4.3386,-4.3767,-4.4201,-4.4579,-4.5031,-4.5405,-4.5779,-4.6225,-4.6596,-4.7038,-4.7721,-4.8086,-4.84,-4.84,-4.8546,-4.8763,0.0,0.0,0.0,0.0,0.0,0.0,0.0,0.0,0.0,0.0,0.0,0.0,0.0,0.0,0.0,0.0,0.0,0.0,-3.0917,-3.1029,-3.1519,-3.2342,-3.2363,-3.2699,-3.3296,-3.3409,-3.3466,-3.3466,-3.3974,-3.4311,-3.4534,-3.4534,-3.46,-3.4753,-3.5233,-3.5736,-3.6216,-3.6697,-3.709,-3.7374,-3.7374,-3.7461,0.0,0.0,0.0,0.0,0.0,0.0,0.0,0.0,0.0,0.0,0.0,0.0,0.0,-3.837,-3.8191,-3.8378,-3.9288,-3.9468,-3.9535,0.0,0.0,0.0,-3.9103,-3.8793,-3.8574,-3.8574,-3.8691,-3.8945,-3.9512,-4.0117,-4.0566,-4.0703,-4.0976,-4.1172,-4.1172,-4.1172,-4.1172,-4.1172,-4.1172,-4.1172,-4.1172,-4.1172,-4.1172,-4.1172,-4.1172,-4.1172,-4.1172,-4.1327,-4.156,-4.1773,-4.2082,-4.2467,-4.3004,-4.3157,-4.331,-4.3615,-4.3615,-4.3615,-4.3615,-4.3974,-4.4428,-4.4805,-4.5256,-4.5704,-4.6225,-4.6522,-4.6891,-4.7502,-4.8159,-4.84,-4.84,-4.8546,-4.8763,-4.9052,0.0,0.0,0.0,0.0,0.0,0.0,0.0,0.0,0.0,0.0,0.0,0.0,0.0,0.0,0.0,0.0,0.0,0.0,-3.1415,-3.1795,-3.2363,-3.3161,-3.3203,-3.3353,-3.3636,-3.3918,-3.4086,-3.4086,-3.4367,-3.4534,-3.4534,-3.4479,-3.4775,-3.5233,-3.5736,-3.6238,-3.6719,-3.7178,-3.7374,-3.7374,-3.7374,-3.768,-3.816,0.0,0.0,0.0,0.0,0.0,0.0,0.0,-4.0279,0.0,0.0,0.0,0.0,-3.837,-3.8191,-3.8398,-3.9288,-3.9468,-3.9556,0.0,0.0,0.0,-3.8793,-3.8574,-3.8574,-3.8574,-3.8926,-3.9492,-4.0351,-4.0527,-4.0664,-4.1094,-4.1172,-4.1172,-4.1172,-4.1172,-4.1172,-4.1172,-4.1172,-4.1172,-4.1172,-4.1172,-4.1172,-4.1172,-4.1172,-4.1172,-4.1172,-4.1618,-4.1773,-4.185,-4.2544,-4.3004,-4.3024,-4.3386,-4.3615,-4.3615,-4.3615,-4.3615,-4.3615,-4.3974,-4.4428,-4.4805,-4.5256,-4.5853,-4.6596,-4.6596,-4.7038,-4.7868,-4.8232,-4.84,-4.8473,-4.8835,-4.898,-4.9124,0.0,0.0,0.0,0.0,0.0,0.0,0.0,0.0,0.0,0.0,0.0,0.0,0.0,0.0,0.0,0.0,0.0,0.0,-3.2382,-3.2572,-3.2902,-3.3445,-3.3466,-3.3636,-3.3918,-3.4255,-3.4367,-3.4367,-3.4479,-3.4534,-3.4534,-3.4862,-3.5081,-3.5233,-3.6107,-3.6566,-3.6719,-3.7178,-3.7374,-3.7374,-3.7374,-3.768,-3.816,0.0,0.0,0.0,0.0,0.0,0.0,0.0,0.0,0.0,0.0,0.0,0.0,-3.837,-3.8398,-3.8771,-3.9302,-3.9716,0.0,0.0,0.0,0.0,0.0,-3.8574,0.0,0.0,-3.9609,-4.0215,-4.0469,-4.0781,-4.1035,-4.1152,-4.1172,-4.1172,-4.1172,-4.1172,-4.1172,-4.1172,-4.1172,-4.1172,-4.1172,-4.1172,-4.1172,-4.1172,-4.1483,-4.1618,-4.1618,-4.2005,-4.237,-4.2621,-4.2851,-4.3157,-4.3386,-4.3539,-4.3615,-4.3615,-4.3615,-4.3767,-4.4071,-4.4428,-4.4805,-4.5256,-4.563,-4.6151,-4.667,-4.7186,-4.7721,-4.8232,-4.8328,-4.8546,-4.8835,-4.898,-4.934,-4.9818,0.0,0.0,0.0,0.0,0.0,0.0,0.0,0.0,0.0,0.0,0.0,0.0,0.0,0.0,0.0,0.0,0.0,0.0,0.0,-3.3082,-3.3394,-3.3784,-3.3805,-3.3918,-3.4255,-3.4534,-3.479,-3.4965,-3.4853,-3.4797,-3.4797,-3.5277,-3.5605,-3.5823,-3.6435,-3.6806,-3.6981,-3.7265,-3.7374,-3.7396,-3.7593,-3.7964,0.0,0.0,0.0,0.0,0.0,0.0,0.0,0.0,0.0,0.0,0.0,0.0,0.0,-3.837,-3.8502,-3.8889,-3.9344,0.0,0.0,0.0,0.0,-3.9775,-3.9228,0.0,0.0,0.0,-4.0039,-4.0586,-4.0742,-4.0996,-4.1172,-4.1172,-4.1172,-4.1172,-4.1172,-4.1172,-4.1172,-4.1172,-4.1172,-4.1172,-4.1172,-4.1172,-4.125,-4.1405,-4.1618,-4.185,-4.2005,-4.2467,-4.2774,-4.3004,-4.3157,-4.3386,-4.3615,-4.3615,-4.3615,-4.3615,-4.3767,-4.405,-4.4428,-4.4654,-4.5031,-4.548,-4.6151,-4.667,-4.7112,-4.7794,-4.8159,-4.84,-4.8618,-4.8763,-4.9052,-4.934,-4.9675,-5.0104,0.0,0.0,0.0,0.0,0.0,0.0,0.0,0.0,0.0,0.0,0.0,0.0,0.0,0.0,0.0,0.0,0.0,0.0,0.0,0.0,-3.3918,-3.4142,-3.4199,-3.4388,-3.4656,-3.4935,-3.5346,-3.5789,-3.5461,-3.529,-3.5391,-3.5859,-3.6319,-3.6756,-3.6741,-3.6981,-3.7374,-3.7374,-3.7396,-3.7483,-3.792,-3.8423,-3.8947,0.0,0.0,0.0,0.0,0.0,0.0,0.0,0.0,0.0,0.0,0.0,-3.9141,-3.8433,-3.8585,-3.8993,0.0,0.0,0.0,0.0,0.0,0.0,-3.9858,-3.9534,-3.9394,-3.9863,-4.0293,-4.0703,-4.1094,-4.1172,-4.1172,-4.1172,-4.1172,-4.1172,-4.1172,-4.1172,-4.1172,-4.1172,-4.1172,-4.1172,-4.1172,-4.125,-4.1405,-4.1773,-4.185,-4.2082,-4.2447,-4.2851,-4.3081,-4.3081,-4.3386,-4.3615,-4.3615,-4.3615,-4.3615,-4.3615,-4.3995,-4.4428,-4.4805,-4.4805,-4.5106,-4.5555,-4.6743,-4.7502,-4.7794,-4.8232,-4.84,-4.8473,-4.8835,-4.9052,-4.9196,-4.9818,-5.0104,-5.0175,0.0,0.0,0.0,0.0,0.0,0.0,0.0,0.0,0.0,0.0,0.0,0.0,0.0,0.0,0.0,0.0,0.0,0.0,0.0,0.0,-3.498,-3.4813,-3.5035,-3.5324,-3.5815,-3.5893,-3.6173,-3.6643,-3.6206,-3.6171,-3.6528,-3.6808,-3.6979,-3.7111,-3.7188,-3.7287,-3.7374,-3.7374,-3.7593,-3.7964,-3.8073,-3.8619,-3.9469,-3.9579,-3.9907,0.0,0.0,0.0,0.0,0.0,0.0,0.0,-3.9407,-3.9465,-3.9583,-3.8911,-3.922,-3.9951,0.0,0.0,0.0,0.0,0.0,-3.9835,-3.9784,-3.9993,-4.0219,-4.0369,-4.0723,-4.1055,-4.1152,-4.1172,-4.1172,-4.1172,-4.1172,-4.1172,-4.1172,-4.1172,-4.1172,-4.1172,-4.1172,-4.1172,-4.1172,-4.1483,-4.1695,-4.1773,-4.239,-4.2774,-4.2851,-4.3233,-4.3462,-4.3462,-4.3539,-4.3615,-4.3615,-4.3615,-4.3615,-4.3615,-4.3995,-4.4428,-4.4805,-4.5106,-4.563,-4.6374,-4.7259,-4.7721,-4.7794,-4.8232,-4.8618,-4.8908,-4.898,-4.934,-4.989,-5.0033,-5.0317,-5.0554,0.0,0.0,0.0,0.0,0.0,0.0,0.0,0.0,0.0,0.0,0.0,0.0,0.0,0.0,0.0,0.0,0.0,0.0,0.0,0.0,-3.5312,-3.5202,-3.5591,-3.5893,-3.6196,-3.6556,-3.703,-3.7447,-3.7393,-3.7336,-3.7215,-3.7613,-3.7681,-3.7562,-3.7648,-3.7555,-3.7396,-3.7636,-3.7876,-3.8139,-3.8597,-3.91,-3.9644,-3.9863,-4.0061,-4.0279,-4.0279,0.0,0.0,0.0,0.0,0.0,0.0,0.0,-4.0138,-3.9595,-3.982,-4.022,0.0,0.0,0.0,0.0,0.0,0.0,-4.0559,-4.0658,-4.0793,-4.1067,-4.117,-4.1172,-4.1172,-4.1172,-4.1172,-4.1172,-4.1172,-4.1172,-4.1172,-4.1172,-4.1172,-4.1172,-4.1172,-4.125,-4.1483,-4.1695,-4.1927,-4.2313,-4.2774,-4.3081,-4.331,-4.3462,-4.3615,-4.3615,-4.3615,-4.3615,-4.3615,-4.3615,-4.3691,-4.3919,-4.4277,-4.488,-4.5704,-4.5853,-4.6299,-4.6891,-4.7502,-4.7941,-4.8086,-4.8546,-4.8835,-4.9052,-4.9412,-4.9747,-5.0104,-5.0341,-5.0554,-5.0696,0.0,0.0,0.0,0.0,0.0,0.0,0.0,0.0,0.0,0.0,0.0,0.0,0.0,0.0,0.0,0.0,0.0,0.0,0.0,0.0,0.0,-3.5645,-3.6106,-3.6398,-3.6635,-3.7269,-3.7838,-3.8339,-3.8572,-3.8455,-3.7907,-3.8297,-3.8298,-3.7998,-3.8027,-3.7808,-3.7527,-3.8029,-3.827,-3.8423,-3.9294,-3.9666,-3.9776,-4.0126,-4.0323,-4.041,-4.041,-4.0454,-4.052,-4.052,0.0,0.0,0.0,0.0,-4.0763,-4.0351,-4.032,-4.0415,0.0,0.0,0.0,0.0,0.0,0.0,-4.1473,-4.1421,-4.1404,-4.1825,-4.154,-4.125,-4.1172,-4.1172,-4.1172,-4.1172,-4.1172,-4.1172,-4.1172,-4.1172,-4.1172,-4.1172,-4.125,-4.1405,-4.1773,-4.1927,-4.2313,-4.2927,-4.3081,-4.3233,-4.3615,-4.3615,-4.3615,-4.3615,-4.3615,-4.3615,-4.3615,-4.3615,-4.3843,-4.4222,-4.4654,-4.548,-4.6596,-4.667,-4.6891,-4.7355,-4.7721,-4.8086,-4.8546,-4.8835,-4.9052,-4.9268,-4.989,-5.0104,-5.0246,-5.0554,-5.0696,-5.0696,0.0,0.0,0.0,0.0,0.0,0.0,0.0,0.0,0.0,0.0,0.0,0.0,0.0,0.0,0.0,0.0,0.0,0.0,0.0,0.0,0.0,-3.6754,-3.6822,-3.7336,-3.8251,-3.8378,-3.8653,-3.9157,-3.9216,-3.9134,-3.9075,-3.8848,-3.8596,-3.8343,-3.8442,-3.8314,-3.8051,-3.8532,-3.8969,-3.9425,-3.9557,-3.9863,-4.0192,-4.0257,-4.0541,-4.0913,-4.0913,-4.1175,-4.1503,-4.1503,-4.1546,0.0,0.0,0.0,-4.1598,-4.0905,-4.1011,-4.1247,0.0,0.0,0.0,0.0,0.0,0.0,0.0,0.0,-4.2165,-4.2269,-4.2005,-4.1618,-4.125,-4.1172,-4.1172,-4.1172,-4.1172,-4.1172,-4.1172,-4.1172,-4.1172,-4.1172,-4.1463,-4.1773,-4.1773,-4.239,-4.2851,-4.3004,-4.331,-4.3539,-4.3615,-4.3615,-4.3615,-4.3615,-4.3615,-4.3615,-4.3615,-4.3615,-4.3843,-4.4201,-4.4955,-4.5779,-4.6596,-4.6965,-4.7355,-4.7721,-4.8159,-4.8546,-4.8908,-4.898,-4.9412,-4.9961,-5.0033,-5.0317,-5.0625,-5.0696,-5.0696,-5.0696,0.0,0.0,0.0,0.0,0.0,0.0,0.0,0.0,0.0,0.0,0.0,0.0,0.0,0.0,0.0,0.0,0.0,0.0,0.0,0.0,0.0,-3.7257,-3.7811,-3.8263,-3.8573,-3.8849,-3.9078,-3.9308,-3.9308,0.0,0.0,-3.9602,-3.9243,-3.8784,-3.8864,-3.8763,-3.8554,-3.9034,-3.9362,-3.9644,-3.9907,-4.0257,-4.0694,-4.0694,-4.0978,-4.1393,-4.1393,-4.1524,-4.1699,-4.1699,-4.1874,-4.2092,-4.191,0.0,0.0,0.0,-4.1799,-4.1664,0.0,0.0,0.0,0.0,0.0,0.0,-4.2233,-4.2488,-4.2679,-4.2749,-4.2621,-4.2313,-4.1618,-4.1327,-4.1172,-4.1172,-4.1172,-4.1172,-4.1172,-4.1405,-4.156,-4.156,-4.1927,-4.2236,-4.2467,-4.2774,-4.3081,-4.331,-4.3462,-4.3615,-4.3615,-4.3615,-4.3615,-4.3615,-4.3615,-4.3615,-4.3615,-4.3572,-4.3697,-4.4113,-4.5183,-4.5977,-4.6563,-4.722,-4.7648,-4.7794,-4.8473,-4.8835,-4.9052,-4.9484,-4.9818,-5.0104,-5.0317,-5.0554,-5.0696,-5.0696,-5.0696,-5.0696,0.0,0.0,0.0,0.0,0.0,0.0,0.0,0.0,0.0,0.0,0.0,0.0,0.0,0.0,0.0,0.0,0.0,0.0,0.0,0.0,0.0,-3.8008,-3.8731,-3.9082,-3.8896,-3.9242,-3.9436,-3.9492,0.0,0.0,-4.0249,-4.0189,-3.9871,-3.9456,-3.9456,-3.9286,-3.9056,-3.9537,-3.9863,-4.0016,-4.0323,-4.076,-4.1175,-4.1175,-4.1459,-4.1874,-4.1874,-4.1961,-4.207,-4.207,-4.2311,-4.2617,-4.2617,-4.2649,0.0,0.0,0.0,-4.1947,0.0,0.0,0.0,0.0,0.0,0.0,0.0,0.0,-4.3125,-4.3172,-4.3081,-4.2774,-4.2236,-4.1773,-4.1483,-4.1483,-4.1483,-4.1483,-4.1483,-4.1773,-4.1927,-4.1927,-4.2313,-4.2697,-4.2927,-4.3081,-4.331,-4.3615,-4.3615,-4.3615,-4.3615,-4.3615,-4.3615,-4.3615,-4.3491,-4.3428,-4.3428,-4.3422,-4.3615,-4.4004,-4.5172,-4.5928,-4.6361,-4.7218,-4.7686,-4.7976,-4.8694,-4.9124,-4.934,-4.989,-5.0175,-5.0246,-5.0554,-5.0696,-5.0696,-5.0696,-5.0696,-5.0696,0.0,0.0,0.0,0.0,0.0,0.0,0.0,0.0,0.0,0.0,0.0,0.0,-3.8736,-3.8526,-3.8262,-3.7974,-3.7732,0.0,0.0,0.0,0.0,-3.9353,-3.9471,0.0,-3.9755,-3.9743,-3.9857,-4.008,0.0,0.0,-4.0778,-4.0448,-4.0327,-4.0464,-4.0464,-4.0107,-3.9601,-4.0039,-4.052,-4.0935,-4.0956,-4.124,-4.1655,-4.1655,-4.1961,-4.2376,-4.2376,-4.2682,-4.3097,-4.3097,-4.3119,-4.3141,-4.3141,-4.3163,-4.3093,0.0,0.0,0.0,0.0,0.0,0.0,0.0,0.0,0.0,0.0,0.0,-4.3573,-4.3615,-4.3233,-4.3024,-4.2927,-4.2621,-4.237,-4.237,-4.237,-4.237,-4.237,-4.237,-4.237,-4.237,-4.2697,-4.3004,-4.3004,-4.331,-4.3615,-4.3615,-4.3615,-4.3615,-4.3615,-4.3615,-4.3615,-4.3615,-4.318,-4.2952,-4.2952,-4.3257,-4.3589,-4.4004,-4.482,-4.5323,-4.5774,-4.6649,-4.7451,-4.8188,-4.8771,-4.9412,-5.0033,-5.0104,-5.0317,-5.0696,-5.0696,-5.0696,-5.0696,-5.0696,-5.0696,-5.0696,0.0,0.0,0.0,0.0,0.0,0.0,0.0,0.0,0.0,0.0,0.0,0.0,0.0,-3.8736,-3.8631,-3.8526,-3.8577,0.0,0.0,0.0,0.0,-3.9732,-4.0087,-4.0174,-4.0071,-4.0163,-4.03,0.0,0.0,-4.08,-4.1306,-4.0995,-4.0891,-4.1024,-4.0434,-4.016,-4.0104,-4.0541,-4.0847,-4.1044,-4.1328,-4.1721,-4.2158,-4.2158,-4.2464,-4.29,-4.29,-4.3032,-4.3184,-4.3184,-4.3184,-4.3184,-4.3184,-4.3184,-4.3184,-4.3023,-4.2938,-4.2821,0.0,0.0,0.0,0.0,0.0,-4.3891,-4.3736,-4.3869,-4.3919,-4.3691,-4.3462,-4.3386,-4.3386,-4.2851,-4.237,-4.237,-4.237,-4.237,-4.237,-4.2621,-4.2774,-4.2774,-4.3157,-4.3386,-4.3386,-4.3539,-4.3615,-4.3615,-4.3615,-4.3615,-4.3615,-4.3615,-4.347,-4.318,-4.3014,-4.2865,-4.2794,-4.3133,-4.3472,-4.3806,-4.4679,-4.5259,-4.5633,-4.6767,-4.7561,-4.8076,-4.8897,-4.9511,-5.0104,-5.0412,-5.0554,-5.0696,-5.0696,-5.0696,-5.0696,-5.0696,-5.0696,-5.0696,0.0,0.0,0.0,0.0,0.0,0.0,0.0,0.0,-3.9775,-3.9569,0.0,0.0,0.0,0.0,-3.9019,-3.9111,-3.9296,-3.9369,-3.9485,-4.0161,-4.0451,-4.0335,-4.0693,-4.0806,-4.0622,-4.0656,0.0,0.0,0.0,0.0,0.0,-4.1393,-4.1193,-4.1293,-4.0622,-4.0409,-4.0541,-4.0869,-4.1197,-4.1503,-4.1808,-4.2223,-4.2682,-4.2682,-4.2879,-4.3184,-4.3302,-4.3372,-4.3394,-4.3687,-4.3823,-4.3775,-4.3881,-4.3784,-4.3643,-4.3643,-4.372,-4.3745,-4.3745,0.0,0.0,0.0,0.0,-4.4497,-4.444,-4.4428,-4.4352,-4.405,-4.3974,-4.3974,-4.3974,-4.3594,-4.3136,-4.283,-4.283,-4.283,-4.283,-4.3004,-4.3157,-4.3157,-4.3462,-4.3615,-4.3615,-4.3615,-4.3615,-4.3615,-4.3615,-4.3615,-4.3615,-4.347,-4.3097,-4.2476,-4.255,-4.2544,-4.2486,-4.2842,-4.3257,-4.3719,-4.4447,-4.4952,-4.5345,-4.6588,-4.7376,-4.7745,-4.8635,-4.9437,-5.0055,-5.0553,-5.0696,-5.0696,-5.0696,-5.0696,-5.0696,-5.0696,-5.0696,-5.0696,0.0,0.0,0.0,0.0,0.0,0.0,0.0,0.0,-4.0134,-4.0134,0.0,0.0,0.0,0.0,0.0,-3.9705,-3.9726,-4.006,-4.0787,-4.0828,-4.0959,-4.123,-4.122,0.0,0.0,0.0,0.0,0.0,0.0,0.0,0.0,0.0,-4.1315,-4.1296,-4.1133,-4.1022,-4.1044,-4.1044,-4.159,-4.242,-4.2442,-4.2748,-4.3184,-4.3184,-4.3184,-4.3254,-4.3603,-4.3719,-4.3877,-4.4763,-4.499,-4.5009,-4.5145,-4.4942,-4.4582,-4.4582,-4.4604,-4.4604,0.0,0.0,0.0,-4.4832,-4.5082,-4.533,-4.488,-4.4805,-4.4805,-4.4805,-4.4805,-4.4805,-4.4805,-4.4805,-4.4504,-4.3767,-4.3615,-4.3615,-4.3615,-4.3615,-4.3615,-4.3615,-4.3615,-4.3615,-4.3615,-4.3615,-4.3594,-4.3594,-4.3594,-4.3594,-4.3573,-4.3139,-4.2476,-4.1659,-4.1928,-4.2057,-4.2018,-4.2441,-4.3001,-4.3697,-4.4135,-4.4457,-4.4891,-4.615,-4.6862,-4.7273,-4.809,-4.9028,-4.9878,-5.0455,-5.0696,-5.0696,-5.0696,-5.0696,-5.0696,-5.0696,-5.0696,-5.0696,0.0,0.0,0.0,0.0,0.0,-4.0744,-4.0542,-4.0466,-4.0389,0.0,0.0,0.0,-4.0313,-4.0387,-4.0475,-4.0571,-4.0938,-4.1175,-4.1163,-4.1281,-4.1573,-4.205,-4.1866,-4.2014,-4.2424,-4.2242,0.0,0.0,0.0,0.0,-4.2275,-4.1637,-4.1495,-4.1788,-4.1199,-4.1393,-4.2027,-4.2027,-4.218,-4.2442,-4.2813,-4.3053,-4.3184,-4.3184,-4.3184,-4.3298,-4.4048,-4.4298,-4.4435,-4.53,-4.5598,-4.555,-4.5279,-4.4942,-4.4582,-4.4582,-4.4845,-4.5129,-4.5129,0.0,0.0,0.0,0.0,0.0,-4.533,-4.5256,-4.5181,-4.488,-4.4805,-4.4805,-4.4805,-4.4805,-4.473,-4.4504,-4.4428,-4.4352,-4.405,-4.405,-4.3919,-4.3615,-4.3615,-4.3615,-4.3615,-4.3615,-4.347,-4.3139,-4.3118,-4.2973,-4.2642,-4.2186,-4.1981,-4.1949,-4.2023,-4.2146,-4.2441,-4.3071,-4.3628,-4.4135,-4.4457,-4.4869,-4.5278,-4.6097,-4.6505,-4.6664,-4.7861,-4.8728,-4.9325,-4.9878,-5.0335,-5.0696,-5.0696,-5.0696,-5.0696,-5.0696,-5.0696,-5.0696,0.0,0.0,0.0,0.0,0.0,-4.0997,-4.0846,-4.0744,-4.0643,0.0,0.0,0.0,-4.1183,-4.1334,-4.1478,-4.163,-4.1927,-4.2083,-4.2164,-4.2144,-4.2305,-4.2701,-4.2455,-4.2543,-4.3072,-4.2814,-4.2767,-4.2817,-4.262,-4.2558,-4.2596,-4.1953,-4.1898,-4.2302,0.0,0.0,-4.242,-4.2638,-4.2726,-4.2769,-4.3053,-4.3184,-4.3206,-4.3381,-4.3468,-4.3582,-4.4631,-4.5021,-4.5158,-4.6172,-4.6631,-4.6573,-4.614,-4.5755,-4.5391,-4.5245,-4.5391,-4.5609,-4.5609,-4.5806,-4.6002,-4.6002,0.0,0.0,-4.5928,-4.5928,-4.5853,-4.5779,-4.5779,-4.5779,-4.5779,-4.5779,-4.5714,-4.5518,-4.5348,-4.5041,-4.4558,-4.428,-4.4004,-4.3627,-4.3385,-4.3206,-4.3035,-4.3056,-4.2932,-4.2663,-4.2642,-4.2456,-4.2073,-4.1783,-4.17,-4.18,-4.1954,-4.2229,-4.2581,-4.335,-4.3927,-4.4273,-4.4663,-4.5074,-4.5619,-4.6136,-4.6473,-4.6697,-4.7566,-4.8387,-4.9109,-4.9421,-4.9998,-5.0696,-5.0696,-5.0696,-5.0696,-5.0696,-5.0696,-5.0696,0.0,0.0,-4.0043,-4.1115,-4.1324,-4.1324,-4.1324,-4.1097,-4.0972,0.0,-4.1338,-4.1749,-4.2261,-4.2312,-4.2462,-4.2747,-4.2798,-4.3033,-4.3497,-4.3227,-4.31,-4.3319,-4.307,-4.3132,-4.3601,-4.3235,-4.3189,-4.342,-4.3042,-4.298,-4.3165,-4.2449,-4.2391,-4.2884,0.0,0.0,-4.2529,-4.2988,-4.3184,-4.3184,-4.3184,-4.3206,-4.3294,-4.3779,-4.3954,-4.4228,-4.5332,-4.5796,-4.6006,-4.7265,-4.7721,-4.7721,-4.7355,-4.6891,-4.6522,-4.6151,-4.6002,-4.6002,-4.6002,-4.6002,-4.6002,-4.6077,-4.6077,0.0,-4.6596,-4.667,-4.6743,-4.7112,-4.7186,-4.7186,-4.7186,-4.7141,-4.6961,-4.6463,-4.6134,-4.5589,-4.4891,-4.439,-4.3912,-4.352,-4.3089,-4.2711,-4.2417,-4.2343,-4.2302,-4.226,-4.2198,-4.1917,-4.1503,-4.1555,-4.1605,-4.1565,-4.1877,-4.23,-4.2721,-4.3419,-4.3974,-4.4342,-4.4732,-4.5278,-4.589,-4.6271,-4.663,-4.6965,-4.7364,-4.8007,-4.8944,-4.9084,-4.9803,-5.0696,-5.0696,-5.0696,-5.0696,-5.0696,-5.0696,-5.0696,0.0,-3.9965,-4.0488,-4.1193,-4.1324,-4.1324,-4.1324,-4.1274,-4.143,-4.1874,-4.2397,-4.2814,-4.3146,-4.3145,-4.3367,-4.3919,-4.3939,-4.4049,-4.436,-4.4087,-4.4042,-4.4203,-4.3928,-4.3869,-4.4178,-4.3807,-4.3734,-4.392,-4.3642,-4.3512,-4.3671,-4.2969,-4.2906,-4.3331,-4.265,0.0,-4.3032,-4.3141,-4.3184,-4.3184,-4.3184,-4.3403,-4.3731,-4.3889,-4.4316,-4.5091,-4.5989,-4.6528,-4.6978,-4.7912,-4.8018,-4.7721,-4.7355,-4.6891,-4.6522,-4.6151,-4.6002,-4.6002,-4.6002,-4.6002,-4.6077,-4.6374,-4.6448,0.0,-4.6965,-4.7038,-4.7112,-4.7186,-4.7186,-4.7186,-4.7186,-4.6872,-4.6508,-4.6396,-4.6061,-4.5456,-4.4678,-4.4271,-4.3863,-4.3498,-4.334,-4.3151,-4.2785,-4.2711,-4.2397,-4.1804,-4.1358,-4.111,-4.1007,-4.1313,-4.1628,-4.1877,-4.23,-4.2791,-4.3489,-4.3927,-4.4319,-4.4732,-4.5347,-4.5754,-4.5957,-4.6563,-4.6874,-4.6851,-4.7298,-4.7638,-4.7877,-4.906,-4.9945,-5.0696,-5.0696,-5.0696,-5.0696,-5.0696,-5.0696,-5.0696,-3.9886,-4.0226,-4.0592,-4.1219,-4.1324,-4.1324,-4.1324,-4.1559,-4.1847,-4.2185,-4.3154,-4.3988,-4.4453,-4.4765,-4.5015,-4.5135,-4.5016,-4.5043,-4.5229,-4.4811,-4.4794,-4.5281,-4.5,-4.4874,-4.5053,-4.4927,-4.4753,-4.4525,-4.4308,-4.424,-4.4199,-4.3689,-4.3624,-4.3892,-4.3274,-4.3061,-4.3184,-4.3184,-4.3302,-4.3463,-4.3495,-4.3665,-4.3976,-4.4623,-4.5168,-4.5672,-4.672,-4.7409,-4.7816,-4.8236,-4.8255,-4.8013,-4.7648,-4.7355,-4.7038,-4.6448,-4.6299,-4.6299,-4.6299,-4.6299,-4.6374,-4.6817,-4.6891,0.0,0.0,-4.7648,-4.7868,-4.8086,-4.8232,-4.8286,-4.8033,-4.7709,-4.7365,-4.6883,-4.6304,-4.5681,-4.499,-4.4485,-4.409,-4.3731,-4.33,-4.2863,-4.2433,-4.2238,-4.1916,-4.1306,-4.1007,-4.0882,-4.0882,-4.1259,-4.1686,-4.2018,-4.237,-4.2931,-4.3697,-4.4135,-4.448,-4.48,-4.5551,-4.6025,-4.616,-4.6764,-4.7032,-4.7141,-4.7431,-4.748,-4.7622,-4.8851,-4.9851,-5.0696,-5.0696,-5.0696,-5.0696,-5.0696,-5.0696,-5.0696,-4.0503,-4.0661,-4.0871,-4.1369,-4.1448,-4.15,-4.1605,-4.2025,-4.2445,-4.2734,-4.4017,-4.5114,-4.5715,-4.629,-4.6569,-4.6389,-4.6148,-4.6167,-4.6375,-4.5889,-4.5746,-4.624,-4.5977,-4.5857,-4.591,-4.5934,-4.5596,-4.5042,-4.5042,-4.4906,-4.475,-4.4436,-4.4233,-4.4273,-4.3858,-4.358,0.0,-4.3302,-4.3555,-4.3944,-4.415,-4.4277,-4.4387,-4.5556,-4.61,-4.6379,-4.7512,-4.8086,-4.84,-4.84,-4.84,-4.8328,-4.7941,-4.7794,-4.7648,-4.6891,-4.6743,-4.6743,-4.6743,-4.6743,-4.6817,-4.7208,-4.7355,-4.7428,0.0,0.0,0.0,-4.9052,-4.9246,-4.9226,-4.8803,-4.8498,-4.8169,-4.7369,-4.6587,-4.5943,-4.5461,-4.4933,-4.4435,-4.3942,-4.3241,-4.2651,-4.2159,-4.1827,-4.1473,-4.1025,-4.1025,-4.1025,-4.1025,-4.1402,-4.1756,-4.2089,-4.2511,-4.3071,-4.3789,-4.4135,-4.4526,-4.5006,-4.5686,-4.616,-4.654,-4.6898,-4.7232,-4.7497,-4.7497,-4.748,-4.7622,-4.8851,-4.9921,-5.0696,-5.0696,-5.0696,-5.0696,-5.0696,-5.0696,-5.0696,-4.1196,-4.1515,-4.1936,-4.2016,-4.2043,-4.2202,-4.2711,-4.2844,-4.3404,-4.4679,-4.5251,-4.5741,-4.6316,-4.6891,-4.7268,-4.7503,-4.7692,-4.793,-4.8186,-4.7842,-4.7334,-4.6855,-4.6792,-4.6499,-4.5934,-4.5934,-4.5763,-4.5493,-4.5493,-4.5419,-4.5278,-4.4914,-4.4549,-4.4273,-4.3858,-4.3719,-4.365,-4.365,-4.408,-4.4853,-4.5296,-4.5497,-4.5542,-4.6172,-4.6883,-4.7653,-4.8159,-4.84,-4.84,-4.84,-4.84,-4.8328,-4.7941,-4.7794,-4.7721,-4.7281,-4.7112,-4.7112,-4.7112,-4.7112,-4.7186,-4.7648,-4.7721,-4.7941,-4.8691,0.0,-4.9052,-4.9365,0.0,-4.8803,-4.8733,0.0,0.0,-4.7252,-4.6761,-4.6206,-4.589,-4.5461,-4.48,-4.3855,-4.3672,-4.328,-4.2581,-4.2159,-4.1806,-4.1473,-4.1402,-4.1402,-4.1402,-4.1735,-4.2159,-4.2511,-4.2953,-4.3511,-4.4204,-4.4273,-4.48,-4.5754,-4.6136,-4.6563,-4.6965,-4.7298,-4.7431,-4.7497,-4.7497,-4.748,-4.7646,-4.9713,-5.0604,-5.0696,-5.0696,-5.0696,-5.0696,-5.0696,-5.0696,-5.0696,-4.1821,-4.1906,-4.2199,-4.2545,-4.2598,-4.2811,-4.3397,-4.396,-4.4758,-4.5998,-4.6694,-4.7205,-4.744,-4.8277,-4.8785,-4.8687,-4.8618,-4.8544,-4.8466,-4.8094,-4.7745,-4.7396,-4.7332,-4.7158,-4.6824,-4.6848,-4.6616,-4.6076,-4.6076,-4.5815,-4.537,-4.5006,-4.4594,-4.4273,-4.3858,-4.3697,-4.3719,-4.4007,-4.4601,-4.543,-4.6198,-4.6657,-4.6868,-4.7128,-4.7613,-4.8159,-4.8328,-4.84,-4.84,-4.84,-4.84,-4.84,-4.8159,-4.8159,-4.8086,-4.7648,-4.7575,-4.7575,-4.7575,-4.7575,-4.7721,-4.8328,-4.8473,-4.8618,-4.9173,-4.946,-4.9675,-4.9818,0.0,0.0,0.0,0.0,0.0,0.0,-4.7041,-4.663,-4.6204,-4.589,-4.5347,-4.4457,-4.3974,-4.3419,-4.263,-4.2441,-4.2229,-4.1806,-4.1806,-4.1806,-4.1806,-4.2159,-4.2441,-4.2559,-4.3141,-4.3719,-4.4273,-4.4457,-4.5006,-4.589,-4.6204,-4.663,-4.7032,-4.7364,-4.7497,-4.7521,-4.749,-4.7512,-4.7669,-4.9842,-5.0683,-5.0696,-5.0696,-5.0696,-5.0696,-5.0696,-5.0554,-5.0317,-4.282,-4.2686,-4.2766,-4.3383,-4.349,-4.3731,-4.4481,-4.5342,-4.6296,-4.7351,-4.8021,-4.842,-4.8616,-4.9662,-5.0245,-4.9903,-4.9878,-4.9657,-4.9343,-4.9027,-4.8693,-4.8403,-4.8428,-4.8272,-4.793,-4.7719,-4.7246,-4.6617,-4.6341,-4.5957,-4.537,-4.5006,-4.4594,-4.4273,-4.3974,-4.3925,-4.4058,-4.4553,-4.531,-4.6189,-4.6894,-4.7496,-4.7823,-4.7949,-4.8159,-4.84,-4.84,-4.84,-4.84,-4.8546,-4.8546,-4.8618,-4.8667,-4.8667,-4.8667,-4.8377,-4.8305,-4.8305,-4.8305,-4.8305,-4.845,-4.8957,-4.9124,-4.9245,-4.958,-4.989,-5.0056,-5.0055,-4.9883,0.0,0.0,0.0,-4.7954,-4.7569,0.0,-4.6965,-4.6473,-4.6227,-4.5754,-4.4937,-4.4181,-4.3419,-4.2791,-4.2791,-4.2581,-4.2229,-4.2159,-4.2159,-4.2159,-4.2441,-4.2651,-4.2791,-4.335,-4.3905,-4.4273,-4.4663,-4.521,-4.6025,-4.6271,-4.6697,-4.7165,-4.7364,-4.7497,-4.7521,-4.7523,-4.7817,-4.8526,-5.0059,-5.0734,-5.072,-5.0673,-5.0697,-5.0673,-5.0554,-5.0341,-5.0056,-4.4536,-4.4149,-4.3932,-4.4505,-4.4614,-4.5071,-4.6238,-4.7163,-4.8018,-4.8912,-4.8811,-4.8969,-4.9774,-5.0864,-5.1419,-5.1068,-5.1756,-5.2072,-5.1743,-5.1371,-5.0838,-5.0124,-5.0124,-4.9786,-4.9081,-4.8192,-4.759,-4.7158,-4.6326,-4.5754,-4.537,-4.5006,-4.4594,-4.4273,-4.4273,-4.4519,-4.4945,-4.5432,-4.635,-4.7525,-4.7548,-4.7918,-4.8377,-4.8377,-4.84,-4.84,-4.84,-4.84,-4.8473,-4.8835,-4.898,-4.9052,-4.9365,-4.9437,-4.9437,-4.9437,-4.9437,-4.9437,-4.9437,-4.9437,-4.9437,-4.9509,-4.9509,-4.958,-4.9961,-5.0104,-5.0032,-4.9928,-4.9469,-4.894,-4.8411,-4.7882,-4.7521,-4.7497,-4.7497,0.0,0.0,-4.6405,-4.6001,-4.4937,-4.4181,-4.358,-4.3232,-4.3184,-4.3023,-4.2651,-4.2559,-4.2559,-4.2559,-4.2559,-4.2791,-4.3184,-4.3511,-4.3905,-4.4273,-4.4663,-4.5324,-4.6405,-4.6405,-4.6741,-4.7497,-4.7497,-4.7497,-4.7521,-4.7523,-4.8695,-5.0582,-5.0649,-5.0734,-5.072,-5.0698,-5.0675,-5.0651,-5.0104,-4.989,-4.9841,-4.5105,-4.5126,-4.5044,-4.5261,-4.5614,-4.6401,-4.7975,-4.8454,-4.8919,-4.9605,-5.0221,-5.0725,-5.0969,-5.2067,-5.2516,-5.1936,-5.2166,-5.2068,-5.1538,-5.1114,-5.0712,-5.0198,-4.9903,-4.9563,-4.9084,-4.8574,-4.8067,-4.7722,-4.7189,-4.6519,-4.5875,-4.523,-4.4703,-4.4273,-4.44,-4.4623,-4.5082,-4.611,-4.6965,-4.7594,-4.801,-4.824,-4.84,-4.84,-4.84,-4.8473,-4.8691,-4.8763,-4.8835,-4.9245,-4.9317,-4.9389,-4.9437,-4.9509,-4.9509,-4.9509,-4.9509,-4.9509,-4.9509,-4.9509,-4.958,-4.9795,-4.989,-5.0033,-5.0412,-5.0483,-5.0457,-5.0253,-4.9652,-4.8984,-4.8724,-4.7991,-4.7497,-4.7497,-4.7497,-4.7232,0.0,-4.6025,-4.5483,-4.4869,-4.4388,-4.3725,-4.2773,-4.2682,-4.246,-4.2065,-4.1975,-4.1975,-4.1975,-4.1975,-4.2196,-4.266,-4.3279,-4.3777,-4.4273,-4.4869,-4.5619,-4.6405,-4.6405,-4.6831,-4.7497,-4.7497,-4.7497,-4.7521,-4.7468,-4.8707,-5.07,-5.0707,-5.0718,-5.0698,-5.0675,-5.008,-4.9175,-4.9011,-4.9223,-4.9553,-4.635,-4.6537,-4.6455,-4.6265,-4.6889,-4.7866,-4.9223,-4.9502,-4.9907,-5.0803,-5.1408,-5.1904,-5.2197,-5.3086,-5.3426,-5.2679,-5.2792,-5.2587,-5.1942,-5.1512,-5.1173,-5.0788,-5.0396,-4.9983,-4.9662,-4.8984,-4.8472,-4.8286,-4.7586,-4.6911,-4.6403,-4.5588,-4.5079,-4.4788,-4.4891,-4.5136,-4.5598,-4.6774,-4.7519,-4.7941,-4.8592,-4.8872,-4.8895,-4.9226,-4.9179,-4.8968,-4.9517,-4.9616,-4.9525,-4.9863,-4.9889,-4.9723,-4.989,-4.9961,-4.9961,-4.9961,-4.9961,-4.9961,-4.9961,-4.9961,-4.9961,-5.0246,-5.0388,-5.0601,-5.0813,-5.0833,-5.0753,-5.0401,-4.9728,-4.9034,-4.8567,-4.807,-4.763,-4.7497,-4.7497,-4.7232,0.0,-4.5822,-4.5142,-4.4619,-4.4187,-4.3664,-4.2716,-4.2335,-4.2027,-4.1721,-4.1699,-4.1699,-4.1699,-4.1699,-4.183,-4.2136,-4.306,-4.3645,-4.3982,-4.4937,-4.5686,-4.6204,-4.6338,-4.6764,-4.7298,-4.7431,-4.7497,-4.7521,-4.7536,-4.8683,-5.07,-5.071,-5.072,-5.0675,-5.008,-4.9293,-4.8411,-4.8367,-4.8673,-4.9024,-4.8082,-4.8219,-4.811,-4.7621,-4.8409,-4.9386,-4.9956,-5.032,-5.1019,-5.2429,-5.2386,-5.2486,-5.3386,-5.3922,-5.3933,-5.3228,-5.3715,-5.3708,-5.3005,-5.2659,-5.2288,-5.1845,-5.1401,-5.1049,-5.0696,-4.9487,-4.8803,-4.8803,-4.7607,-4.6931,-4.6908,-4.6107,-4.5729,-4.5707,-4.5729,-4.6092,-4.6591,-4.7284,-4.7964,-4.8542,-4.9391,-4.9723,-4.989,-5.0772,-5.0604,-4.9936,-5.0845,-5.0828,-5.0453,-5.0816,-5.0556,-5.0223,-5.0554,-5.0696,-5.0696,-5.0696,-5.0767,-5.0767,-5.0767,-5.0767,-5.0767,-5.0767,-5.0954,-5.1211,-5.1211,-5.1101,-5.0862,-5.0321,-4.9756,-4.9057,-4.8189,-4.8026,-4.7894,-4.7563,-4.7497,-4.7232,-4.6473,-4.5822,-4.5027,-4.412,-4.3692,-4.3308,-4.2969,-4.2121,-4.1655,-4.1612,-4.1612,-4.1612,-4.1612,-4.1612,-4.1634,-4.1655,-4.2838,-4.3444,-4.3489,-4.4732,-4.5528,-4.589,-4.6204,-4.663,-4.7032,-4.7298,-4.7497,-4.7521,-4.7523,-4.8695,-5.0582,-5.0634,-5.067,-5.0413,-4.8936,-4.8434,-4.8434,-4.8434,-4.843,-4.84,-4.8082,-4.8544,-4.9006,-4.9277,-4.9576,-4.9983,-5.058,-5.1433,-5.2196,-5.2527,-5.3192,-5.3726,-5.3949,-5.4233,-5.4392,-5.4355,-5.4261,-5.4195,-5.418,-5.3499,-5.29,-5.241,-5.1748,-5.1176,-5.072,-4.9748,-4.9321,-4.9321,-4.8416,-4.7803,-4.7436,-4.6913,0.0,-4.6156,-4.654,-4.6838,-4.6997,-4.7816,-4.8638,-4.9391,-4.9604,-5.0103,-5.0869,-5.1757,-5.2024,-5.1784,-5.1597,-5.1431,-5.1315,-5.1321,-5.125,-5.1082,-5.0816,-5.0908,-5.1095,-5.1095,-5.1306,-5.1541,-5.1541,-5.1541,-5.1541,-5.1541,-5.1611,-5.1656,-5.1656,-5.1333,-5.093,-5.0634,-4.9865,-4.9148,-4.8543,-4.8182,-4.7894,-4.7563,-4.7032,-4.6607,-4.6405,-4.5822,-4.5095,-4.4164,-4.3466,-4.2683,-4.1994,-4.144,-4.1044,-4.0672,-4.0651,-4.0651,-4.0651,-4.0651,-4.0804,-4.1175,-4.2016,-4.2749,-4.3489,-4.439,-4.5182,-4.589,-4.6025,-4.6362,-4.6965,-4.7098,-4.7232,-4.7521,-4.7484,-4.7848,-4.8442,-5.0049,-5.0009,-4.8936,-4.8506,-4.8407,-4.8427,-4.8427,-4.8427,-4.84,-4.9301,-4.9901,-5.0417,-5.0743,-5.1231,-5.1692,-5.2018,-5.2366,-5.2846,-5.3618,-5.3997,-5.4393,-5.4889,-5.4894,-5.4996,-5.5175,-5.4879,-5.4587,-5.4323,-5.3777,-5.3199,-5.2737,-5.2187,-5.1706,-5.1393,-5.0577,-5.0073,-4.9838,-4.9064,-4.8446,-4.7964,-4.7581,0.0,0.0,0.0,-4.7436,-4.7481,-4.8492,-4.9249,-4.9747,-5.0557,-5.1228,0.0,-5.2726,-5.3091,-5.3043,-5.2732,-5.2493,-5.2277,-5.221,-5.2019,-5.1632,-5.1343,-5.136,-5.1446,-5.1446,-5.1586,-5.182,-5.182,-5.182,-5.182,-5.182,-5.196,-5.2099,-5.2099,-5.155,-5.111,-5.0988,-5.0157,-4.9314,-4.8886,-4.851,-4.8092,-4.7563,-4.6898,-4.6405,-4.6405,-4.5822,-4.5003,-4.407,-4.3285,-4.2437,-4.1525,-4.1001,-4.0585,-4.0301,-4.0279,-4.0279,-4.0279,-4.0279,-4.041,-4.0672,-4.1418,-4.2281,-4.3175,-4.4005,-4.4841,-4.5686,-4.5822,-4.6092,-4.6496,-4.6697,-4.7036,-4.749,-4.7484,-4.7134,-4.6773,-4.8802,-4.918,-4.8434,-4.8407,-4.8404,-4.84,-4.84,-4.84,-4.84,-5.0898,-5.1448,-5.1882,-5.2045,-5.2913,-5.3673,-5.3856,-5.3359,-5.3485,-5.4937,-5.4734,-5.4811,-5.5804,-5.5647,-5.5547,-5.5765,-5.5395,-5.4854,-5.4287,-5.3856,-5.3374,-5.2914,-5.2574,-5.2355,-5.2283,-5.1526,-5.0872,-5.0378,-4.9573,-4.8974,-4.8492,0.0,0.0,0.0,0.0,0.0,0.0,-4.9314,-4.9936,-5.0223,-5.1855,-5.2556,-5.275,-5.3504,-5.3822,-5.3822,-5.3822,-5.3534,-5.3149,-5.3151,-5.2671,-5.2111,-5.211,-5.2027,-5.189,-5.189,-5.189,-5.196,-5.196,-5.196,-5.196,-5.196,-5.2238,-5.2446,-5.2446,-5.1872,-5.1272,-5.1272,-5.0368,-4.9525,-4.9137,-4.8772,-4.8313,-4.763,-4.6965,-4.6473,-4.6405,-4.589,-4.5047,-4.3857,-4.3171,0.0,-4.134,-4.0669,-4.0279,-4.0279,-4.0279,-4.0279,-4.0279,-4.0279,-4.0279,-4.0279,-4.1001,-4.1882,-4.2772,-4.36,-4.4436,-4.5438,-4.5686,-4.589,-4.589,-4.6204,-4.6748,-4.7365,-4.7389,-4.6627,-4.5573,-4.7586,-4.8403,-4.8384,-4.8427,-4.84,-4.84,-4.84,-4.84,-4.84,-5.1548,-5.1747,-5.2126,-5.3103,-5.3456,-5.3985,-5.5222,-5.5055,-5.4777,-5.4772,-5.522,-5.5674,-5.5883,-5.5736,-5.5835,-5.6303,-5.574,-5.5368,-5.5309,-5.4967,-5.4328,-5.3497,-5.313,-5.2716,-5.2283,-5.1526,-5.1037,-5.0943,-5.0128,-4.9502,-4.8997,-4.8901,0.0,0.0,0.0,0.0,-4.9388,-5.0044,-5.1029,-5.2048,-5.2363,-5.292,-5.3627,-5.3699,-5.3822,-5.3822,-5.3822,-5.375,-5.3705,-5.3543,-5.3108,-5.267,-5.2492,-5.2425,-5.2308,-5.2308,-5.2515,-5.2723,-5.2723,-5.2723,-5.2723,-5.2723,-5.2792,-5.2792,-5.2792,-5.2008,-5.1272,-5.1272,-5.0368,-4.9525,-4.9137,-4.8551,-4.796,-4.7563,-4.7165,-4.6764,-4.6473,-4.6092,-4.5226,-4.3615,-4.3038,-4.2325,-4.0995,-4.0517,-4.0279,-4.0279,-4.0279,-4.0279,-4.0279,-4.0279,-4.0279,-4.0279,-4.067,-4.1526,-4.2772,-4.3261,-4.4094,-4.5438,-4.5483,-4.5619,-4.589,-4.5957,-4.6251,-4.661,-4.6594,-4.6126,-4.557,-4.7586,-4.84,-4.8427,-4.8377,-4.84,-4.84,-4.84,-4.84,-4.84,-5.255,-5.2995,-5.3423,-5.4132,-5.4538,-5.497,-5.561,-5.5775,-5.5829,-5.5631,-5.6059,-5.6484,-5.6771,-5.6364,-5.6354,-5.6918,-5.6251,-5.5772,-5.5607,-5.5263,-5.4696,-5.4032,-5.3661,-5.3341,-5.3077,-5.2482,-5.199,-5.1483,-5.0908,-5.0256,-4.9525,-4.9525,-4.9411,-4.9181,0.0,-4.9739,-5.0142,-5.11,-5.1923,-5.2533,-5.2968,-5.3456,-5.3822,-5.3822,-5.3822,-5.3822,-5.3822,-5.3822,-5.3849,-5.3957,-5.3644,-5.3153,-5.3313,-5.3023,-5.2654,-5.2654,-5.2792,-5.2929,-5.2929,-5.2929,-5.2929,-5.2929,-5.2929,-5.2929,-5.2929,-5.2302,-5.1624,-5.1348,-5.0619,-4.9812,-4.9187,-4.8682,-4.8182,-4.7828,-4.7298,-4.6831,-4.6473,-4.6092,-4.5293,-4.3748,-4.3104,-4.2325,-4.1189,-4.0604,-4.0279,-4.0279,-4.0279,-4.0279,-4.0279,-4.0279,-4.0279,-4.0279,-4.0716,-4.1507,-4.2772,-4.3219,-4.4052,-4.5438,-4.5438,-4.5483,-4.5619,-4.5619,-4.5754,-4.589,-4.5891,-4.5737,-4.5549,-4.756,-4.8372,-4.84,-4.84,-4.84,-4.84,-4.84,-4.84,-4.84,-5.3619,-5.4167,-5.4529,-5.4897,-5.5451,-5.5847,-5.5776,-5.6396,-5.6792,-5.6619,-5.682,-5.7163,-5.7678,-5.7132,-5.6867,-5.7354,-5.6656,-5.6072,-5.5632,-5.5263,-5.4794,-5.4397,-5.4047,-5.3822,-5.3822,-5.337,-5.2878,-5.2174,-5.167,-5.1036,-5.0227,-5.0076,-5.0008,-5.0065,-5.0606,-5.0877,-5.0974,-5.2163,-5.2675,-5.2872,-5.3504,-5.3822,-5.3822,-5.3897,-5.3972,-5.3972,-5.4047,-5.3972,-5.3972,-5.4496,-5.4084,-5.349,-5.3992,-5.3528,-5.2929,-5.2929,-5.2929,-5.2929,-5.2929,-5.2929,-5.2929,-5.2929,-5.2929,-5.2929,-5.2929,-5.2503,-5.195,-5.1398,-5.072,-4.9987,-4.9212,-4.8837,-4.8445,-4.8092,-4.7497,-4.6965,-4.6563,-4.6227,-4.5495,-4.4055,-4.3303,-4.2457,-4.1405,-4.0799,-4.0409,-4.0279,-4.0279,-4.0279,-4.0279,-4.0279,-4.0279,-4.0279,-4.076,-4.1573,-4.2794,-4.3242,-4.4166,-4.5438,-4.5438,-4.5438,-4.5438,-4.5438,-4.5438,-4.5438,-4.5438,-4.5394,-4.5526,-4.7603,-4.839,-4.84,-4.84,-4.84,-4.84,-4.84,-4.84,-4.84,-5.4223,-5.4277,-5.4517,-5.5066,-5.5652,-5.6172,-5.6357,-5.7319,-5.7709,-5.6866,-5.7285,-5.7678,-5.773,-5.7494,-5.7328,-5.7379,-5.6656,-5.6072,-5.5632,-5.5263,-5.4794,-5.4397,-5.4047,-5.3822,-5.3822,-5.337,-5.3143,-5.3096,-5.2313,-5.1698,-5.1135,-5.0733,-5.0457,-5.049,-5.1353,-5.1939,-5.2336,-5.2934,-5.3374,-5.3675,-5.3798,-5.3822,-5.3822,-5.4173,-5.4322,-5.4397,-5.4719,-5.4645,-5.4472,-5.5238,-5.4547,-5.349,-5.4277,-5.3808,-5.2929,-5.2929,-5.2929,-5.2929,-5.2929,-5.2929,-5.2929,-5.2929,-5.2929,-5.2929,-5.2929,-5.2503,-5.195,-5.1398,-5.0419,-4.9536,-4.9137,-4.8837,-4.8445,-4.8092,-4.7696,-4.7298,-4.6965,-4.663,-4.5829,-4.4472,-4.37,-4.272,-4.1405,-4.0971,-4.0647,-4.0344,-4.0279,-4.0279,-4.0279,-4.0279,-4.0279,-4.0279,-4.076,-4.1573,-4.2794,-4.3242,-4.4166,-4.5438,-4.5438,-4.5438,-4.5438,-4.5438,-4.5438,-4.5438,-4.5438,-4.537,-4.5563,-4.7553,-4.839,-4.84,-4.84,-4.84,-4.84,-4.84,-4.84,-4.84,-5.4762,-5.4815,-5.507,-5.5868,-5.6173,-5.6556,-5.7099,-5.7624,-5.7896,-5.7817,-5.8026,-5.8183,-5.8183,-5.7752,-5.7379,-5.7379,-5.6656,-5.6146,-5.5999,-5.5337,-5.4967,-5.4794,-5.4122,-5.3822,-5.3822,-5.3672,-5.3446,-5.3243,-5.2863,-5.2518,-5.2079,-5.1927,-5.181,-5.1774,-5.2363,-5.2783,-5.2934,-5.3374,-5.3672,-5.3822,-5.4047,-5.4197,-5.4197,-5.4645,-5.4719,-5.4794,-5.4967,-5.4719,-5.4496,-5.5041,-5.4401,-5.3562,-5.4348,-5.3808,-5.2929,-5.2929,-5.2929,-5.2929,-5.2929,-5.2929,-5.2929,-5.2929,-5.2929,-5.2929,-5.2929,-5.2754,-5.2352,-5.1473,-5.0368,-4.9525,-4.9396,-4.8967,-4.8535,-4.8379,-4.7918,-4.7364,-4.7032,-4.663,-4.6013,-4.4957,-4.3949,-4.2899,-4.1873,-4.1213,-4.0647,-4.0344,-4.0279,-4.0279,-4.0279,-4.0279,-4.041,-4.0716,-4.1175,-4.1992,-4.3197,-4.3713,-4.446,-4.5438,-4.5438,-4.5438,-4.5438,-4.5438,-4.5438,-4.5438,-4.5438,-4.5416,-4.5524,-4.7607,-4.8376,-4.8413,-4.8381,-4.84,-4.84,-4.84,-4.84,-4.84,-5.5551,-5.5696,-5.5895,-5.6446,-5.6735,-5.7062,-5.7599,-5.7791,-5.8052,-5.847,-5.8381,-5.8284,-5.8284,-5.7739,-5.7379,-5.7235,-5.6583,-5.6219,-5.6219,-5.5485,-5.4967,-5.4967,-5.4197,-5.3822,-5.3822,-5.3822,-5.3672,-5.337,-5.3243,-5.3068,-5.2764,-5.2764,-5.2764,-5.2764,-5.3219,-5.337,-5.337,-5.3672,-5.3897,-5.3972,-5.4272,-5.4472,-5.4645,-5.5016,-5.5189,-5.5189,-5.5189,-5.4942,-5.4645,-5.4892,-5.4328,-5.349,-5.4206,-5.3738,-5.2929,-5.2929,-5.2929,-5.2929,-5.2929,-5.2929,-5.2929,-5.2929,-5.2929,-5.2929,-5.2929,-5.2929,-5.2628,-5.1498,-5.0519,-4.9791,-4.9615,-4.9032,-4.86,-4.86,-4.7984,-4.7431,-4.7165,-4.6697,-4.6083,-4.5392,-4.4196,-4.3099,-4.2361,-4.1455,-4.0777,-4.0453,-4.0344,-4.0279,-4.0279,-4.0279,-4.0498,-4.1,-4.1459,-4.2256,-4.3489,-4.4004,-4.4686,-4.5438,-4.5438,-4.5438,-4.5438,-4.5438,-4.5438,-4.5438,-4.5438,-4.5416,-4.5529,-4.6935,-4.7911,-4.8372,-4.8387,-4.8381,-4.8377,-4.843,-4.8407,-4.8384,-5.6771,-5.6771,-5.6771,-5.6798,-5.7268,-5.7704,-5.773,-5.8131,-5.8497,-5.8523,-5.8141,-5.7927,-5.7927,-5.7595,-5.7235,-5.6874,-5.6438,-5.6219,-5.6219,-5.5485,-5.4967,-5.4967,-5.4197,-5.3822,-5.3822,-5.3822,-5.3822,-5.3822,-5.337,-5.3243,-5.3143,-5.3143,-5.3143,-5.3243,-5.3596,-5.3822,-5.3822,-5.3822,-5.4047,-5.4397,-5.4397,-5.4645,-5.5041,-5.5411,-5.5632,-5.5632,-5.5632,-5.5337,-5.4967,-5.4967,-5.4328,-5.349,-5.3849,-5.3528,-5.2929,-5.2929,-5.2929,-5.2929,-5.2929,-5.2929,-5.2929,-5.2929,-5.2929,-5.2929,-5.2929,-5.2929,-5.2628,-5.1498,-5.082,-5.0243,-4.969,-4.9032,-4.86,-4.86,-4.7984,-4.7497,-4.7497,-4.6874,-4.6217,-4.5724,-4.4592,-4.3493,-4.2688,-4.1801,-4.1164,-4.0841,-4.0453,-4.0279,-4.0279,-4.0279,-4.0498,-4.1,-4.1459,-4.2256,-4.3489,-4.4004,-4.4686,-4.5438,-4.5438,-4.5438,-4.5438,-4.5438,-4.5438,-4.5438,-4.5438,-4.5416,-4.5391,-4.5414,-4.6631,-4.842,-4.842,-4.8413,-4.8427,-4.8393,-4.842,-4.8374,-5.6798,-5.6798,-5.6928,-5.732,-5.7529,-5.7721,-5.783,-5.7966,-5.7999,-5.781,-5.7667,-5.7451,-5.7163,-5.7091,-5.6946,-5.6801,-5.6438,-5.6219,-5.6219,-5.5485,-5.4967,-5.4967,-5.4197,-5.3822,-5.3822,-5.3822,-5.3822,-5.3822,-5.3672,-5.3596,-5.3596,-5.3596,-5.3596,-5.3596,-5.3747,-5.3822,-5.3822,-5.4122,-5.4248,-5.4472,-5.5016,-5.5312,-5.5485,-5.5852,-5.5999,-5.5999,-5.5705,-5.5337,-5.4967,-5.4967,-5.4328,-5.349,-5.3849,-5.3458,-5.2929,-5.2929,-5.2929,-5.2929,-5.2929,-5.2929,-5.2929,-5.2929,-5.2929,-5.2929,-5.2929,-5.2628,-5.2277,-5.1925,-5.1071,-5.0368,-5.0193,-4.928,-4.86,-4.86,-4.7984,-4.7497,-4.7497,-4.6898,-4.6358,-4.6194,-4.4801,-4.3608,-4.3142,-4.1981,-4.1164,-4.0841,-4.0453,-4.0279,-4.0279,-4.0585,-4.1,-4.1459,-4.1939,-4.2762,-4.4004,-4.4183,-4.4686,-4.5438,-4.5438,-4.5438,-4.5438,-4.5438,-4.5438,-4.5438,-4.5438,-4.5415,-4.5416,-4.5369,-4.578,-4.6446,-4.7865,-4.8403,-4.8425,-4.8379,-4.7536,-4.6345,-5.7451,-5.7451,-5.7556,-5.7921,-5.7974,-5.7964,-5.7947,-5.8109,-5.812,-5.7759,-5.7568,-5.7397,-5.7106,-5.6782,-5.6583,-5.6583,-5.6365,-5.6219,-5.6219,-5.5632,-5.5263,-5.5263,-5.4421,-5.4047,-5.4047,-5.3897,-5.3822,-5.3822,-5.3822,-5.3822,-5.3822,-5.3822,-5.3897,-5.4047,-5.4047,-5.4122,-5.4272,-5.4496,-5.4719,-5.4868,-5.5386,-5.5705,-5.5852,-5.6072,-5.6146,-5.5926,-5.5558,-5.5115,-5.4794,-5.4794,-5.4157,-5.349,-5.3849,-5.3458,-5.2929,-5.2929,-5.2929,-5.2929,-5.2929,-5.2929,-5.2929,-5.2929,-5.2929,-5.2929,-5.2929,-5.2653,-5.2352,-5.2151,-5.1548,-5.0921,-5.0494,-4.9553,-4.8821,-4.8625,-4.7984,-4.7497,-4.7497,-4.6898,-4.6405,-4.6405,-4.4894,-4.3742,-4.3479,-4.2266,-4.1357,-4.1035,-4.0824,-4.0672,-4.0563,-4.0847,-4.1306,-4.1939,-4.2267,-4.3005,-4.4273,-4.4273,-4.4686,-4.5438,-4.5438,-4.5438,-4.5438,-4.5438,-4.5438,-4.5438,-4.5438,-4.5438,-4.537,-4.5394,-4.5416,-4.5529,-4.6796,-4.7259,-4.7282,-4.7283,-4.6471,-4.5385,-5.8523,-5.8523,-5.8523,-5.8523,-5.8523,-5.8381,-5.7979,-5.8399,-5.8615,-5.8203,-5.7811,-5.7565,-5.7565,-5.6765,-5.6219,-5.6219,-5.6219,-5.6219,-5.6219,-5.5852,-5.5632,-5.5632,-5.4868,-5.4397,-5.4397,-5.4047,-5.3897,-5.3897,-5.3897,-5.3897,-5.3897,-5.3897,-5.4122,-5.4397,-5.4397,-5.4645,-5.4967,-5.5041,-5.5263,-5.5632,-5.5632,-5.5852,-5.6219,-5.6219,-5.5999,-5.5632,-5.5189,-5.4794,-5.4472,-5.4472,-5.401,-5.349,-5.3921,-5.3528,-5.2929,-5.2929,-5.2929,-5.2929,-5.2929,-5.2929,-5.2929,-5.2929,-5.2929,-5.2929,-5.2929,-5.2929,-5.2779,-5.2277,-5.2126,-5.1774,-5.072,-4.9942,-4.9256,-4.8723,-4.8009,-4.7497,-4.7431,-4.6831,-4.6405,-4.6338,-4.4851,-4.3854,-4.3854,-4.2658,-4.1791,-4.1405,-4.1504,-4.1441,-4.1109,-4.1109,-4.1503,-4.2398,-4.2464,-4.3049,-4.4273,-4.4273,-4.4686,-4.5438,-4.5438,-4.5438,-4.5438,-4.5438,-4.5438,-4.5438,-4.5438,-4.5438,-4.5438,-4.5438,-4.5416,-4.5438,-4.5438,-4.5411,-4.5428,-4.539,-4.5438,-4.5392,-5.8523,-5.8523,-5.8523,-5.8523,-5.8523,-5.844,-5.8161,-5.8294,-5.8232,-5.7998,-5.7447,-5.7096,-5.7096,-5.6619,-5.6219,-5.6219,-5.6219,-5.6219,-5.6219,-5.5852,-5.5632,-5.5632,-5.509,-5.4868,-5.4868,-5.4719,-5.4744,-5.4744,-5.4744,-5.4744,-5.4744,-5.4744,-5.4744,-5.4868,-5.4868,-5.4892,-5.5041,-5.5337,-5.5485,-5.5632,-5.5926,-5.6146,-5.6219,-5.6219,-5.6146,-5.5999,-5.5632,-5.5411,-5.5312,-5.5312,-5.4668,-5.3921,-5.4348,-5.3738,-5.2929,-5.2929,-5.2929,-5.2929,-5.2929,-5.2929,-5.2929,-5.2929,-5.2929,-5.2929,-5.2929,-5.2929,-5.2879,-5.2754,-5.2402,-5.2026,-5.1749,-5.0464,-4.9379,-4.9256,-4.8227,-4.7431,-4.7165,-4.6697,-4.6294,-4.6025,-4.5064,-4.4428,-4.4428,-4.3502,-4.2809,-4.2502,-4.2216,-4.2125,-4.207,-4.2092,-4.218,-4.242,-4.2791,-4.3262,-4.3858,-4.4135,-4.4686,-4.5438,-4.5438,-4.5438,-4.5438,-4.5438,-4.5438,-4.5438,-4.5438,-4.5438,-4.5438,-4.5438,-4.5415,-4.5416,-4.5416,-4.5393,-4.5371,-4.5371,-4.5416,-4.5393,-5.8523,-5.8523,-5.8523,-5.8523,-5.8523,-5.8414,-5.8151,-5.8264,-5.8328,-5.7847,-5.7446,-5.717,-5.7022,-5.6545,-5.6219,-5.6219,-5.6219,-5.6219,-5.6219,-5.5999,-5.5852,-5.5852,-5.5485,-5.5263,-5.5263,-5.5115,-5.4967,-5.4967,-5.4967,-5.4967,-5.4967,-5.4967,-5.5115,-5.5263,-5.5263,-5.5411,-5.5558,-5.5779,-5.5852,-5.5926,-5.6146,-5.6219,-5.6219,-5.6219,-5.6072,-5.5926,-5.5705,-5.5485,-5.5337,-5.5558,-5.4911,-5.4063,-5.4491,-5.3808,-5.2929,-5.2929,-5.2929,-5.2929,-5.2929,-5.2929,-5.2929,-5.2929,-5.2929,-5.2929,-5.2929,-5.2929,-5.2929,-5.2929,-5.2678,-5.2402,-5.2151,-5.1035,-4.9995,-4.9503,-4.8519,-4.7652,-4.7079,-4.663,-4.6271,-4.5957,-4.5112,-4.4612,-4.4612,-4.3798,-4.3171,-4.2861,-4.266,-4.2476,-4.2398,-4.2638,-4.2769,-4.2769,-4.3032,-4.3372,-4.3697,-4.425,-4.48,-4.5438,-4.5438,-4.5438,-4.5438,-4.5438,-4.5438,-4.5438,-4.5438,-4.5438,-4.5438,-4.5438,-4.5438,-4.5438,-4.5438,-4.5438,-4.5438,-4.5438,-4.5438,-4.5438,-5.8523,-5.8523,-5.8523,-5.8523,-5.8523,-5.8407,-5.8057,-5.8497,-5.8543,-5.7887,-5.7763,-5.7565,-5.7096,-5.6619,-5.6292,-5.6219,-5.6219,-5.6219,-5.6219,-5.6219,-5.6219,-5.6219,-5.5852,-5.5705,-5.5705,-5.5337,-5.5189,-5.5189,-5.5189,-5.5189,-5.5189,-5.5189,-5.5337,-5.5705,-5.5705,-5.5852,-5.6219,-5.6219,-5.6219,-5.6219,-5.6219,-5.6219,-5.6219,-5.6219,-5.5999,-5.5705,-5.5705,-5.5485,-5.5263,-5.5558,-5.4959,-5.4135,-5.4491,-5.3808,-5.2929,-5.2929,-5.2929,-5.2929,-5.2929,-5.2929,-5.2929,-5.2929,-5.2929,-5.2929,-5.2929,-5.2929,-5.2929,-5.2929,-5.2929,-5.2779,-5.2327,-5.1514,-5.0709,-4.9699,-4.881,-4.7964,-4.7036,-4.663,-4.6271,-4.589,-4.5182,-4.4727,-4.4727,-4.398,-4.3397,-4.3085,-4.3038,-4.285,-4.2529,-4.2944,-4.3184,-4.3184,-4.3184,-4.3372,-4.3789,-4.4457,-4.5006,-4.5438,-4.5438,-4.5438,-4.5438,-4.5438,-4.5438,-4.5438,-4.5438,-4.5438,-4.5438,-4.5438,-4.5438,-4.5438,-4.5438,-4.5438,-4.5438,-4.5438,-4.5438,-4.5438,-5.8523,-5.8523,-5.8523,-5.8523,-5.8523,-5.8537,-5.86,-5.8756,-5.877,-5.8792,-5.836,-5.7932,-5.7565,-5.7058,-5.6583,-5.6219,-5.6219,-5.6219,-5.6219,-5.6219,-5.6219,-5.6219,-5.6146,-5.6146,-5.6146,-5.6072,-5.5999,-5.5999,-5.5999,-5.5999,-5.5999,-5.5999,-5.6072,-5.6146,-5.6146,-5.6146,-5.6219,-5.6219,-5.6219,-5.6219,-5.6219,-5.6219,-5.6219,-5.6219,-5.6146,-5.6146,-5.6146,-5.6072,-5.5999,-5.6072,-5.5393,-5.4491,-5.4561,-5.3808,-5.2929,-5.2929,-5.2929,-5.2929,-5.2929,-5.2929,-5.2929,-5.2929,-5.2929,-5.2929,-5.2929,-5.2929,-5.2929,-5.2929,-5.2929,-5.2904,-5.2804,-5.1762,-5.0832,-5.0192,-4.9053,-4.7897,-4.6678,-4.6405,-4.6136,-4.5551,-4.5346,-4.53,-4.53,-4.4823,-4.4437,-4.4095,-4.3749,-4.3448,-4.3053,-4.3141,-4.3184,-4.3184,-4.3184,-4.3511,-4.4204,-4.4594,-4.5006,-4.5438,-4.5438,-4.5438,-4.5438,-4.5438,-4.5438,-4.5438,-4.5438,-4.5438,-4.5438,-4.5438,-4.5438,-4.5438,-4.5438,-4.5438,-4.5438,-4.5438,-4.5438,-4.5438,-5.8523,-5.8523,-5.8523,-5.8523,-5.8523,-5.853,-5.8603,-5.8629,-5.8589,-5.8414,-5.8208,-5.7909,-5.7546,-5.7099,-5.6729,-5.651,-5.6365,-5.6219,-5.6219,-5.6219,-5.6219,-5.6219,-5.6219,-5.6219,-5.6219,-5.6219,-5.6219,-5.6219,-5.6219,-5.6219,-5.6219,-5.6219,-5.6219,-5.6219,-5.6219,-5.6219,-5.6219,-5.6219,-5.6219,-5.6219,-5.6219,-5.6219,-5.6219,-5.6219,-5.6219,-5.6219,-5.6219,-5.6219,-5.6168,-5.5867,-5.5239,-5.4511,-5.421,-5.3557,-5.2929,-5.2929,-5.2929,-5.2929,-5.2929,-5.2929,-5.2929,-5.2929,-5.2929,-5.2929,-5.2929,-5.2929,-5.2929,-5.2929,-5.2929,-5.2929,-5.2929,-5.2084,-5.123,-5.0758,-4.9538,-4.8396,-4.7329,-4.6728,-4.6227,-4.5754,-4.5483,-4.5438,-4.5438,-4.4869,-4.448,-4.4342,-4.3789,-4.3372,-4.3184,-4.3372,-4.3441,-4.3441,-4.3441,-4.3858,-4.4526,-4.4732,-4.5006,-4.5438,-4.5438,-4.5438,-4.5438,-4.5438,-4.5438,-4.5438,-4.5438,-4.5438,-4.5438,-4.5438,-4.5438,-4.5438,-4.5438,-4.5438,-4.5438,-4.5438,-4.5438,-4.5438,-5.8735,-5.8735,-5.8735,-5.8735,-5.8735,-5.8735,-5.8664,-5.8664,-5.8523,-5.807,-5.807,-5.7927,-5.7523,-5.7235,-5.7019,-5.6946,-5.6583,-5.6365,-5.6365,-5.6292,-5.6219,-5.6219,-5.6219,-5.6219,-5.6219,-5.6219,-5.6219,-5.6219,-5.6219,-5.6219,-5.6219,-5.6219,-5.6219,-5.6219,-5.6219,-5.6219,-5.6219,-5.6219,-5.6219,-5.6219,-5.6219,-5.6219,-5.6219,-5.6219,-5.6219,-5.6219,-5.6219,-5.6219,-5.6118,-5.5566,-5.5013,-5.4461,-5.3884,-5.3356,-5.2929,-5.2929,-5.2929,-5.2929,-5.2929,-5.2929,-5.2929,-5.2929,-5.2929,-5.2929,-5.2929,-5.2929,-5.2929,-5.2929,-5.2929,-5.2929,-5.2929,-5.2377,-5.1693,-5.1127,-5.004,-4.8892,-4.7957,-4.7005,-4.6271,-4.5957,-4.5619,-4.5438,-4.5438,-4.48,-4.4411,-4.4342,-4.3789,-4.3372,-4.3302,-4.365,-4.3858,-4.3974,-4.3974,-4.425,-4.48,-4.4869,-4.5074,-4.5438,-4.5438,-4.5438,-4.5438,-4.5438,-4.5438,-4.5438,-4.5438,-4.5438,-4.5438,-4.5438,-4.5438,-4.5438,-4.5438,-4.5438,-4.5438,-4.5438,-4.5438,-4.5438,-5.9508,-5.9508,-5.9508,-5.9508,-5.9508,-5.9438,-5.9088,-5.9044,-5.8876,-5.8523,-5.8452,-5.8284,-5.7927,-5.7856,-5.7713,-5.7379,-5.7019,-5.6729,-5.6729,-5.6438,-5.6219,-5.6219,-5.6219,-5.6219,-5.6219,-5.6219,-5.6219,-5.6219,-5.6219,-5.6219,-5.6219,-5.6219,-5.6219,-5.6219,-5.6219,-5.6219,-5.6219,-5.6219,-5.6219,-5.6219,-5.6219,-5.6219,-5.6219,-5.6219,-5.6219,-5.6219,-5.6219,-5.6219,-5.6118,-5.5566,-5.5013,-5.4461,-5.3884,-5.3356,-5.2929,-5.2929,-5.2929,-5.2929,-5.2929,-5.2929,-5.2929,-5.2929,-5.2929,-5.2929,-5.2929,-5.2929,-5.2929,-5.2929,-5.2929,-5.2929,-5.2929,-5.2585,-5.204,-5.1127,-5.0269,-4.9189,-4.7957,-4.7005,-4.6271,-4.5957,-4.5619,-4.5438,-4.5438,-4.5006,-4.4663,-4.4342,-4.4273,-4.4066,-4.3719,-4.4066,-4.4411,-4.4732,-4.4732,-4.4732,-4.48,-4.5142,-4.5347,-4.5438,-4.5438,-4.5438,-4.5438,-4.5438,-4.5438,-4.5438,-4.5438,-4.5438,-4.5438,-4.5438,-4.5438,-4.5438,-4.5438,-4.5438,-4.5438,-4.5438,-4.5438,-4.5438,-5.9578,-5.9578,-5.9578,-5.9578,-5.9578,-5.9578,-5.9438,-5.9438,-5.9298,-5.8947,-5.8876,-5.8735,-5.8284,-5.807,-5.7856,-5.7713,-5.7379,-5.7163,-5.7163,-5.6801,-5.6438,-5.6219,-5.6219,-5.6219,-5.6219,-5.6219,-5.6219,-5.6219,-5.6219,-5.6219,-5.6219,-5.6219,-5.6219,-5.6219,-5.6219,-5.6219,-5.6219,-5.6219,-5.6219,-5.6219,-5.6219,-5.6219,-5.6219,-5.6219,-5.6219,-5.6219,-5.6219,-5.5993,-5.5616,-5.5064,-5.4486,-5.3934,-5.3381,-5.308,-5.2929,-5.2929,-5.2929,-5.2929,-5.2929,-5.2929,-5.2929,-5.2929,-5.2929,-5.2929,-5.2929,-5.2929,-5.2929,-5.2929,-5.2929,-5.2929,-5.2929,-5.2654,-5.2233,-5.1595,-5.0758,-4.981,-4.8707,-4.7841,-4.6985,-4.6318,-4.589,-4.5619,-4.5415,-4.5006,-4.4732,-4.4594,-4.4411,-4.4273,-4.4066,-4.4388,-4.48,-4.5142,-4.5142,-4.5142,-4.5142,-4.5278,-4.5438,-4.5438,-4.5438,-4.5438,-4.5438,-4.5438,-4.5438,-4.5438,-4.5438,-4.5438,-4.5438,-4.5438,-4.5438,-4.5438,-4.5438,-4.5438,-4.5438,-4.5438,-4.5438,-4.5438,-5.9996,-5.9996,-5.9996,-5.9996,-5.9996,-5.9927,-5.9787,-5.9787,-5.9648,-5.9298,-5.9228,-5.9088,-5.8735,-5.8452,-5.8212,-5.807,-5.7739,-5.7595,-5.7595,-5.7235,-5.6729,-5.6219,-5.6219,-5.6219,-5.6219,-5.6219,-5.6219,-5.6219,-5.6219,-5.6219,-5.6219,-5.6219,-5.6219,-5.6219,-5.6219,-5.6219,-5.6219,-5.6219,-5.6219,-5.6219,-5.6219,-5.6219,-5.6219,-5.6219,-5.6219,-5.6219,-5.6219,-5.5867,-5.5315,-5.4762,-5.4185,-5.3607,-5.308,-5.2929,-5.2929,-5.2929,-5.2929,-5.2929,-5.2929,-5.2929,-5.2929,-5.2929,-5.2929,-5.2929,-5.2929,-5.2929,-5.2929,-5.2929,-5.2929,-5.2929,-5.2929,-5.2723,-5.2446,-5.203,-5.119,-5.0308,-4.9431,-4.8424,-4.7424,-4.6543,-4.6092,-4.5754,-4.5415,-4.5142,-4.4937,-4.48,-4.4663,-4.4686,-4.4686,-4.4869,-4.5074,-4.537,-4.5438,-4.5438,-4.5438,-4.5438,-4.5438,-4.5438,-4.5438,-4.5438,-4.5438,-4.5438,-4.5438,-4.5438,-4.5438,-4.5438,-4.5438,-4.5438,-4.5438,-4.5438,-4.5438,-4.5438,-4.5438,-4.5438,-4.5438,-4.5438,-6.0782,-6.0782,-6.0782,-6.0782,-6.0782,-6.0687,-6.0246,-6.0177,-6.0039,-5.9648,-5.9578,-5.9508,-5.9158,-5.9114,-5.8947,-5.8523,-5.8141,-5.7927,-5.7927,-5.7595,-5.7019,-5.6219,-5.6219,-5.6219,-5.6219,-5.6219,-5.6219,-5.6219,-5.6219,-5.6219,-5.6219,-5.6219,-5.6219,-5.6219,-5.6219,-5.6219,-5.6219,-5.6219,-5.6219,-5.6219,-5.6219,-5.6219,-5.6219,-5.6219,-5.6219,-5.6219,-5.6219,-5.5867,-5.529,-5.4737,-5.4185,-5.3607,-5.308,-5.2929,-5.2929,-5.2929,-5.2929,-5.2929,-5.2929,-5.2929,-5.2929,-5.2929,-5.2929,-5.2929,-5.2929,-5.2929,-5.2929,-5.2929,-5.2929,-5.2929,-5.2929,-5.2929,-5.2792,-5.2446,-5.1605,-5.072,-4.9796,-4.8584,-4.7492,-4.6543,-4.6092,-4.5754,-4.5415,-4.5438,-4.521,-4.48,-4.5142,-4.5438,-4.5438,-4.5438,-4.5438,-4.5438,-4.5438,-4.5438,-4.5438,-4.5438,-4.5438,-4.5438,-4.5438,-4.5438,-4.5438,-4.5438,-4.5438,-4.5438,-4.5438,-4.5438,-4.5438,-4.5438,-4.5438,-4.5438,-4.5438,-4.5438,-4.5438,-4.5438,-4.5438,-4.5438,-6.0782,-6.0782,-6.0782,-6.0782,-6.0782,-6.0755,-6.0618,-6.0618,-6.048,-6.0039,-6.0039,-5.99,-5.9508,-5.9438,-5.9368,-5.9298,-5.8947,-5.8523,-5.7927,-5.7784,-5.7498,-5.7091,-5.6801,-5.651,-5.6219,-5.6219,-5.6219,-5.6219,-5.6219,-5.6219,-5.6219,-5.6219,-5.6219,-5.6219,-5.6219,-5.6219,-5.6219,-5.6219,-5.6219,-5.6219,-5.6219,-5.6219,-5.6219,-5.6219,-5.6219,-5.6219,-5.6219,-5.5616,-5.4787,-5.4612,-5.3934,-5.313,-5.298,-5.2929,-5.2929,-5.2929,-5.2929,-5.2929,-5.2929,-5.2929,-5.2929,-5.2929,-5.2929,-5.2929,-5.2929,-5.2929,-5.2929,-5.2929,-5.2929,-5.2929,-5.2929,-5.2929,-5.2792,-5.2446,-5.2159,-5.1561,-5.0332,-4.9616,-4.8744,-4.7515,-4.7001,-4.6429,-4.5822,-4.5754,-4.5619,-4.521,-4.5347,-4.5438,-4.5438,-4.5438,-4.5438,-4.5438,-4.5438,-4.5438,-4.5438,-4.5438,-4.5438,-4.5438,-4.5438,-4.5438,-4.5438,-4.5438,-4.5438,-4.5438,-4.5438,-4.5438,-4.5438,-4.5438,-4.5438,-4.5438,-4.5438,-4.5438,-4.5415,-4.5391,-4.5435,-4.5412,-6.0782,-6.0782,-6.0782,-6.0782,-6.0782,-6.0782,-6.0782,-6.0782,-6.0687,-6.048,-6.048,-6.0273,-5.99,-5.9857,-5.9787,-5.9648,-5.9438,-5.9017,-5.8452,-5.8355,-5.8141,-5.7595,-5.7379,-5.7091,-5.6656,-5.651,-5.6438,-5.6438,-5.6292,-5.6219,-5.6219,-5.6219,-5.6219,-5.6219,-5.6219,-5.6219,-5.6219,-5.6219,-5.6219,-5.6219,-5.6219,-5.6219,-5.6219,-5.6219,-5.6219,-5.6194,-5.5968,-5.5315,-5.4536,-5.4285,-5.3658,-5.2929,-5.2929,-5.2929,-5.2929,-5.2929,-5.2929,-5.2929,-5.2929,-5.2929,-5.2929,-5.2929,-5.2929,-5.2929,-5.2929,-5.2929,-5.2929,-5.2929,-5.2929,-5.2929,-5.2929,-5.2929,-5.2861,-5.2654,-5.2515,-5.204,-5.099,-5.0177,-4.9233,-4.816,-4.7432,-4.6764,-4.616,-4.5957,-4.5754,-4.5438,-4.5438,-4.5438,-4.5438,-4.5438,-4.5438,-4.5438,-4.5438,-4.5438,-4.5438,-4.5438,-4.5438,-4.5438,-4.5438,-4.5438,-4.5438,-4.5438,-4.5438,-4.5438,-4.5438,-4.5483,-4.5619,-4.5642,-4.5686,-4.5708,-4.5731,-4.5822,-4.5822,-4.5797,-4.5978,-4.6251,-6.0782,-6.0782,-6.0782,-6.0782,-6.0782,-6.0782,-6.0782,-6.0782,-6.0782,-6.0782,-6.0782,-6.0687,-6.0315,-6.0246,-6.0108,-5.9718,-5.9648,-5.9508,-5.9158,-5.9158,-5.8806,-5.807,-5.7999,-5.7882,-5.7523,-5.7091,-5.6874,-5.6874,-5.651,-5.6292,-5.6292,-5.6292,-5.6292,-5.6292,-5.6292,-5.6292,-5.6292,-5.6292,-5.6292,-5.6292,-5.6292,-5.6219,-5.6219,-5.6219,-5.6219,-5.6143,-5.5591,-5.5039,-5.4461,-5.3833,-5.3306,-5.2929,-5.2929,-5.2929,-5.2929,-5.2929,-5.2929,-5.2929,-5.2929,-5.2929,-5.2929,-5.2929,-5.2929,-5.2929,-5.2929,-5.2929,-5.2929,-5.2929,-5.2929,-5.2929,-5.2929,-5.2929,-5.2929,-5.2929,-5.2654,-5.2272,-5.175,-5.0591,-4.9417,-4.857,-4.7705,-4.6946,-4.6496,-4.616,-4.5822,-4.5483,-4.5415,-4.5415,-4.5438,-4.5438,-4.5438,-4.5438,-4.5438,-4.5438,-4.5438,-4.5438,-4.5438,-4.5438,-4.5438,-4.5438,-4.5438,-4.5438,-4.5415,-4.5415,-4.5483,-4.5686,-4.5957,-4.6071,-4.616,-4.611,-4.6315,-4.6405,-4.6429,-4.6405,-4.6906,-4.748,-6.0782,-6.0782,-6.0782,-6.0782,-6.0782,-6.0782,-6.0782,-6.0782,-6.0782,-6.0782,-6.0782,-6.0782,-6.0687,-6.0687,-6.0618,-6.0549,-6.0273,-5.99,-5.9508,-5.9508,-5.9298,-5.8876,-5.8806,-5.8664,-5.831,-5.7595,-5.7235,-5.7235,-5.7163,-5.6946,-5.6656,-5.6656,-5.6656,-5.6656,-5.6656,-5.6874,-5.7163,-5.7163,-5.6946,-5.6656,-5.6656,-5.651,-5.6219,-5.6219,-5.6219,-5.6143,-5.5591,-5.5039,-5.4411,-5.3432,-5.303,-5.2929,-5.2929,-5.2929,-5.2929,-5.2929,-5.2929,-5.2929,-5.2929,-5.2929,-5.2929,-5.2929,-5.2929,-5.2929,-5.2929,-5.2929,-5.2929,-5.2929,-5.2929,-5.2929,-5.2929,-5.2929,-5.2929,-5.2929,-5.2861,-5.2673,-5.2272,-5.1569,-5.0752,-4.9534,-4.8864,-4.8045,-4.7012,-4.6496,-4.616,-4.5822,-4.5822,-4.5686,-4.5415,-4.5438,-4.5438,-4.5438,-4.5438,-4.5438,-4.5438,-4.5438,-4.5438,-4.5438,-4.5438,-4.5438,-4.5415,-4.5686,-4.5822,-4.5822,-4.6092,-4.6204,-4.6271,-4.6294,-4.6338,-4.6315,-4.6405,-4.652,-4.6701,-4.6674,-4.7036,-4.7514,-6.1029,-6.0892,-6.0782,-6.0782,-6.0782,-6.0782,-6.0782,-6.0782,-6.0782,-6.0782,-6.0782,-6.0782,-6.0782,-6.0782,-6.0782,-6.0782,-6.0618,-6.0342,-5.99,-5.99,-5.9718,-5.9368,-5.9368,-5.9158,-5.8806,-5.8381,-5.8025,-5.7667,-5.7451,-5.7307,-5.7091,-5.7091,-5.7091,-5.7091,-5.7091,-5.7235,-5.7379,-5.7379,-5.7307,-5.7091,-5.6874,-5.6656,-5.6438,-5.6292,-5.6219,-5.6118,-5.529,-5.4486,-5.3708,-5.313,-5.2929,-5.2929,-5.2929,-5.2929,-5.2929,-5.2929,-5.2929,-5.2929,-5.2929,-5.2929,-5.2929,-5.2929,-5.2929,-5.2929,-5.2929,-5.2929,-5.2929,-5.2929,-5.2929,-5.2929,-5.2929,-5.2929,-5.2929,-5.2929,-5.2929,-5.2861,-5.2654,-5.2042,-5.129,-5.0315,-4.9438,-4.8367,-4.7079,-4.6831,-4.6563,-4.616,-4.616,-4.6092,-4.589,-4.589,-4.589,-4.589,-4.589,-4.589,-4.589,-4.589,-4.589,-4.589,-4.5686,-4.5619,-4.5619,-4.6025,-4.616,-4.616,-4.6338,-4.6496,-4.6697,-4.6697,-4.6764,-4.6898,-4.6898,-4.6989,-4.7146,-4.7165,-4.7255,-4.7479,-6.137,-6.1166,-6.0961,-6.0961,-6.0961,-6.0961,-6.0961,-6.0961,-6.0961,-6.0961,-6.0961,-6.0961,-6.0961,-6.0961,-6.0961,-6.0961,-6.0961,-6.0824,-6.0384,-6.0384,-6.0177,-5.9718,-5.9718,-5.9508,-5.9158,-5.9158,-5.8806,-5.7999,-5.7739,-5.7523,-5.7523,-5.7523,-5.7523,-5.7523,-5.7523,-5.7523,-5.7595,-5.7595,-5.7523,-5.7451,-5.7091,-5.6874,-5.6729,-5.6365,-5.6143,-5.5942,-5.4938,-5.3858,-5.2929,-5.2929,-5.2929,-5.2929,-5.2929,-5.2929,-5.2929,-5.2929,-5.2929,-5.2929,-5.2929,-5.2929,-5.2929,-5.2929,-5.2929,-5.2929,-5.2929,-5.2929,-5.2929,-5.2929,-5.2929,-5.2929,-5.2929,-5.2929,-5.2929,-5.2929,-5.2929,-5.2929,-5.2929,-5.2254,-5.1526,-5.0787,-4.9541,-4.8337,-4.7279,-4.7098,-4.6898,-4.654,-4.6473,-4.6473,-4.6405,-4.6405,-4.6405,-4.6405,-4.6405,-4.6405,-4.6405,-4.6405,-4.6405,-4.6405,-4.6227,-4.6025,-4.6025,-4.6338,-4.6473,-4.6496,-4.654,-4.6764,-4.7098,-4.7098,-4.7232,-4.7497,-4.7497,-4.7497,-4.7497,-4.7401,-4.7305,-4.7226,-6.1749,-6.1681,-6.1681,-6.1681,-6.1681,-6.1681,-6.1681,-6.1681,-6.1681,-6.1681,-6.1681,-6.1681,-6.1681,-6.1681,-6.1681,-6.1681,-6.1681,-6.1546,-6.1166,-6.1166,-6.0824,-6.0177,-6.0108,-5.99,-5.9508,-5.9508,-5.9158,-5.8452,-5.8381,-5.8141,-5.7856,-5.7856,-5.7856,-5.7856,-5.7856,-5.7999,-5.8381,-5.8381,-5.8141,-5.7784,-5.7451,-5.7091,-5.6729,-5.6365,-5.5917,-5.5415,-5.4787,-5.3858,-5.2929,-5.2929,-5.2929,-5.2929,-5.2929,-5.2929,-5.2929,-5.2929,-5.2929,-5.2929,-5.2929,-5.2929,-5.2929,-5.2929,-5.2929,-5.2929,-5.2929,-5.2929,-5.2929,-5.2929,-5.2929,-5.2929,-5.2929,-5.2929,-5.2929,-5.2929,-5.2929,-5.2929,-5.2929,-5.2785,-5.2223,-5.0879,-4.9131,-4.8033,-4.7894,-4.763,-4.7298,-4.6965,-4.6898,-4.6764,-4.6405,-4.6405,-4.6405,-4.6405,-4.6405,-4.6405,-4.6405,-4.6405,-4.6405,-4.6405,-4.6697,-4.6697,-4.6362,-4.6764,-4.6898,-4.6898,-4.7232,-4.7364,-4.7431,-4.7431,-4.7431,-4.7497,-4.7497,-4.7497,-4.7449,-4.6992,-4.673,-4.6512,-6.218,-6.1951,-6.1789,-6.1789,-6.1789,-6.1789,-6.1789,-6.1789,-6.1789,-6.1789,-6.1789,-6.1789,-6.1789,-6.1789,-6.1789,-6.1789,-6.1789,-6.1749,-6.1614,-6.1546,-6.1343,-6.0824,-6.0824,-6.0549,-5.9969,-5.99,-5.9648,-5.9088,-5.8947,-5.8664,-5.8212,-5.8212,-5.8212,-5.8212,-5.8212,-5.8284,-5.8523,-5.8523,-5.8381,-5.8212,-5.781,-5.7451,-5.7091,-5.6729,-5.6085,-5.5265,-5.4411,-5.3582,-5.2929,-5.2929,-5.2929,-5.2929,-5.2929,-5.2929,-5.2929,-5.2929,-5.2929,-5.2929,-5.2929,-5.2929,-5.2929,-5.2929,-5.2929,-5.2929,-5.2929,-5.2929,-5.2929,-5.2929,-5.2929,-5.2929,-5.2929,-5.2929,-5.2929,-5.2929,-5.2929,-5.2929,-5.2929,-5.2653,-5.1915,-5.0456,-4.9282,-4.8551,-4.8379,-4.796,-4.7696,-4.7563,-4.7364,-4.7165,-4.7032,-4.7032,-4.7032,-4.7032,-4.7032,-4.7032,-4.7032,-4.7032,-4.7032,-4.7032,-4.7165,-4.7098,-4.6764,-4.7098,-4.7298,-4.7298,-4.7119,-4.7064,-4.704,-4.6752,-4.6631,-4.6631,-4.6631,-4.6631,-4.6583,-4.6561,-4.6512,-4.6397]},{"header":{"parameterUnit":"m.s-1","parameterCategory":1,"la1":30.6,"la2":28.766,"lo1":-90.7593,"lo2":-88.6598,"dy":0.0162,"dx":0.0183,"nx":116,"ny":114,"refTime":"2023-06-18T18:00:00:Z","depth":0,"parameterNumber":3,"parameterNumberName":"V-component_of_WINDS"},"data":[0.0,0.0,0.0,0.0,0.0,0.0,0.0,0.0,0.0,0.0,0.0,0.0,0.0,0.0,0.0,0.0,0.0,0.0,0.0,0.0,0.0,0.0,0.0,0.0,0.0,0.0,0.0,0.0,0.0,0.0,0.0,0.0,0.0,0.0,0.0,0.0,0.0,0.0,0.0,0.0,0.0,0.0,0.0,0.0,0.0,0.0,0.0,0.0,0.0,0.0,0.0,0.0,0.0,0.0,0.0,0.0,0.0,0.0,0.0,0.0,0.0,0.0,0.0,0.0,0.0,0.0,0.0,0.0,0.0,0.0,0.0,0.0,0.0,0.0,0.0,0.0,0.0,0.0,0.0,0.0,0.0,0.0,0.0,0.0,0.0,0.0,0.0,0.0,0.0,0.0,0.0,0.0,0.0,0.0,0.0,0.0,0.0,0.0,0.0,0.0,0.0,0.0,0.0,0.0,0.0,0.0,0.0,0.0,0.0,0.0,0.0,0.0,0.0,0.0,0.0,0.0,0.0,0.0,0.0,0.0,0.0,0.0,0.0,0.0,0.0,0.0,0.0,0.0,0.0,0.0,0.0,0.0,0.0,0.0,0.0,0.0,0.0,0.0,0.0,0.0,0.0,0.0,0.0,0.0,0.0,0.0,0.0,0.0,0.0,0.0,0.0,0.0,0.0,0.0,0.0,0.0,0.0,0.0,0.0,0.0,0.0,0.0,0.0,0.0,0.0,0.0,0.0,0.0,0.0,0.0,0.0,0.0,0.0,0.0,0.0,0.0,0.0,0.0,0.0,0.0,0.0,0.0,0.0,0.0,0.0,0.0,0.0,0.0,0.0,0.0,0.0,0.0,0.0,0.0,0.0,0.0,0.0,0.0,0.0,0.0,0.0,0.0,0.0,0.0,0.0,0.0,0.0,0.0,0.0,0.0,0.0,0.0,0.0,0.0,0.0,0.0,0.0,0.0,0.0,0.0,0.0,0.0,0.0,0.0,0.0,0.0,0.0,0.0,0.0,0.0,0.0,0.0,0.0,0.0,0.0,0.0,0.0,0.0,0.0,0.0,0.0,0.0,0.0,0.0,0.0,0.0,0.0,0.0,0.0,0.0,0.0,0.0,0.0,0.0,0.0,0.0,0.0,0.0,0.0,0.0,0.0,0.0,0.0,0.0,0.0,0.0,0.0,0.0,0.0,0.0,0.0,0.0,0.0,0.0,0.0,0.0,0.0,0.0,0.0,0.0,0.0,0.0,0.0,0.0,0.0,0.0,0.0,0.0,0.0,0.0,0.0,0.0,0.0,0.0,0.0,0.0,0.0,0.0,0.0,0.0,0.0,0.0,0.0,0.0,0.0,0.0,0.0,0.0,0.0,0.0,0.0,0.0,0.0,0.0,0.0,0.0,0.0,0.0,0.0,0.0,0.0,0.0,0.0,0.0,0.0,0.0,0.0,0.0,0.0,0.0,0.0,0.0,0.0,0.0,0.0,0.0,0.0,0.0,0.0,0.0,0.0,0.0,0.0,0.0,0.0,0.0,0.0,0.0,0.0,0.0,0.0,0.0,0.0,0.0,0.0,0.0,0.0,0.0,0.0,0.0,0.0,0.0,0.0,0.0,0.0,0.0,0.0,0.0,0.0,0.0,0.0,0.0,0.0,0.0,0.0,0.0,0.0,0.0,0.0,0.0,0.0,0.0,0.0,0.0,0.0,0.0,0.0,0.0,0.0,0.0,0.0,0.0,0.0,0.0,0.0,0.0,0.0,0.0,0.0,0.0,0.0,0.0,0.0,0.0,0.0,0.0,0.0,0.0,0.0,0.0,0.0,0.0,0.0,0.0,0.0,0.0,0.0,0.0,0.0,0.0,0.0,0.0,0.0,0.0,0.0,0.0,0.0,0.0,0.0,0.0,0.0,0.0,0.0,0.0,0.0,0.0,0.0,0.0,0.0,0.0,0.0,0.0,0.0,0.0,0.0,0.0,0.0,0.0,0.0,0.0,0.0,0.0,0.0,0.0,0.0,0.0,0.0,0.0,0.0,0.0,0.0,0.0,0.0,0.0,0.0,0.0,0.0,0.0,0.0,0.0,0.0,0.0,0.0,0.0,0.0,0.0,0.0,0.0,0.0,0.0,0.0,0.0,0.0,0.0,0.0,0.0,0.0,0.0,0.0,0.0,0.0,0.0,0.0,0.0,0.0,0.0,0.0,0.0,0.0,0.0,0.0,0.0,0.0,0.0,0.0,0.0,0.0,0.0,0.0,0.0,0.0,0.0,0.0,0.0,0.0,0.0,0.0,0.0,0.0,0.0,0.0,0.0,0.0,0.0,0.0,0.0,0.0,0.0,0.0,0.0,0.0,0.0,0.0,0.0,0.0,0.0,0.0,0.0,0.0,0.0,0.0,0.0,0.0,0.0,0.0,0.0,0.0,0.0,0.0,0.0,0.0,0.0,0.0,0.0,0.0,0.0,0.0,0.0,0.0,0.0,0.0,0.0,0.0,0.0,0.0,0.0,0.0,0.0,0.0,0.0,0.0,0.0,0.0,0.0,0.0,0.0,0.0,0.0,0.0,0.0,0.0,0.0,0.0,0.0,0.0,0.0,0.0,0.0,0.0,0.0,0.0,0.0,0.0,0.0,0.0,0.0,0.0,0.0,0.0,0.0,0.0,0.0,0.0,0.0,0.0,0.0,0.0,0.0,0.0,0.0,0.0,0.0,0.0,0.0,0.0,0.0,0.0,0.0,0.0,0.0,0.0,0.0,0.0,0.0,0.0,0.0,0.0,0.0,0.0,0.0,0.0,0.0,0.0,0.0,0.0,0.0,0.0,0.0,0.0,0.0,0.0,0.0,0.0,0.0,0.0,0.0,0.0,0.0,0.0,0.0,0.0,0.0,0.0,0.0,0.0,0.0,0.0,0.0,0.0,0.0,0.0,0.0,0.0,0.0,0.0,0.0,0.0,0.0,0.0,0.0,0.0,0.0,0.0,0.0,0.0,0.0,0.0,0.0,0.0,0.0,0.0,0.0,0.0,0.0,0.0,0.0,0.0,0.0,0.0,0.0,0.0,0.0,0.0,0.0,0.0,0.0,0.0,0.0,0.0,0.0,0.0,0.0,0.0,0.0,0.0,0.0,0.0,0.0,0.0,0.0,0.0,0.0,0.0,0.0,0.0,0.0,0.0,0.0,0.0,0.0,0.0,0.0,0.0,0.0,0.0,0.0,0.0,0.0,0.0,0.0,0.0,0.0,0.0,0.0,0.0,0.0,0.0,0.0,0.0,0.0,0.0,0.0,0.0,0.0,0.0,0.0,0.0,0.0,0.0,0.0,0.0,0.0,0.0,0.0,0.0,0.0,0.0,0.0,0.0,0.0,0.0,0.0,0.0,0.0,0.0,0.0,0.0,0.0,0.0,0.0,0.0,0.0,0.0,0.0,0.0,0.0,0.0,0.0,0.0,0.0,0.0,0.0,0.0,0.0,0.0,0.0,0.0,0.0,0.0,0.0,0.0,0.0,0.0,0.0,0.0,0.0,0.0,0.0,0.0,0.0,0.0,0.0,0.0,0.0,0.0,0.0,0.0,0.0,0.0,0.0,0.0,0.0,0.0,0.0,0.0,0.0,0.0,0.0,0.0,0.0,0.0,0.0,0.0,0.0,0.0,0.0,0.0,0.0,0.0,0.0,0.0,0.0,0.0,0.0,0.0,0.0,0.0,0.0,0.0,0.0,0.0,0.0,0.0,0.0,0.0,0.0,0.0,0.0,0.0,0.0,0.0,0.0,0.0,0.0,0.0,0.0,0.0,0.0,0.0,0.0,0.0,0.0,0.0,0.0,0.0,0.0,0.0,0.0,0.0,0.0,0.0,0.0,0.0,0.0,0.0,0.0,0.0,0.0,0.0,0.0,0.0,0.0,0.0,0.0,0.0,0.0,0.0,0.0,0.0,0.0,0.0,0.0,0.0,0.0,0.0,0.0,0.0,0.0,0.0,0.0,0.0,0.0,0.0,0.0,0.0,0.0,0.0,0.0,0.0,0.0,0.0,0.0,0.0,0.0,0.0,0.0,0.0,0.0,0.0,0.0,0.0,0.0,0.0,0.0,0.0,0.0,0.0,0.0,0.0,0.0,0.0,0.0,0.0,0.0,0.0,0.0,0.0,0.0,0.0,0.0,0.0,0.0,0.0,0.0,0.0,0.0,0.0,0.0,0.0,0.0,0.0,0.0,0.0,0.0,0.0,0.0,0.0,0.0,0.0,0.0,0.0,0.0,0.0,0.0,0.0,0.0,0.0,0.0,0.0,0.0,0.0,0.0,0.0,0.0,0.0,0.0,0.0,0.0,0.0,0.0,0.0,0.0,0.0,0.0,0.0,0.0,0.0,0.0,0.0,0.0,0.0,0.0,0.0,0.0,0.0,0.0,0.0,0.0,0.0,0.0,0.0,0.0,0.0,0.0,0.0,0.0,0.0,0.0,0.0,0.0,0.0,0.0,0.0,0.0,0.0,0.0,0.0,0.0,0.0,0.0,0.0,0.0,0.0,0.0,0.0,0.0,0.0,0.0,0.0,0.0,0.0,0.0,0.0,0.0,0.0,0.0,0.0,0.0,0.0,0.0,0.0,0.0,0.0,0.0,0.0,0.0,0.0,0.0,0.0,0.0,0.0,0.0,0.0,0.0,0.0,0.0,0.0,0.0,0.0,0.0,0.0,0.0,0.0,0.0,0.0,0.0,0.0,0.0,0.0,0.0,0.0,0.0,0.0,0.0,0.0,0.0,0.0,0.0,0.0,0.0,0.0,0.0,0.0,0.0,0.0,0.0,0.0,0.0,0.0,0.0,0.0,0.0,0.0,0.0,0.0,0.0,0.0,0.0,0.0,0.0,0.0,0.0,0.0,0.0,0.0,0.0,0.0,0.0,0.0,0.0,0.0,0.0,0.0,0.0,0.0,0.0,0.0,0.0,0.0,0.0,0.0,0.0,0.0,0.0,0.0,0.0,0.0,0.0,0.0,0.0,0.0,0.0,0.0,0.0,0.0,0.0,0.0,0.0,0.0,0.0,0.0,0.0,0.0,0.0,0.0,0.0,0.0,0.0,0.0,0.0,0.0,0.0,0.0,0.0,0.0,0.0,0.0,0.0,0.0,0.0,0.0,0.0,0.0,0.0,0.0,0.0,0.0,0.0,0.0,0.0,0.0,0.0,0.0,0.0,0.0,0.0,0.0,0.0,0.0,0.0,0.0,0.0,0.0,0.0,0.0,0.0,0.0,0.0,0.0,0.0,0.0,0.0,0.0,0.0,0.0,0.0,0.0,0.0,0.0,0.0,0.0,0.0,0.0,0.0,0.0,0.0,0.0,0.0,0.0,0.0,0.0,0.0,0.0,0.0,0.0,0.0,0.0,0.0,0.0,0.0,0.0,0.0,0.0,0.0,0.0,0.0,0.0,0.0,0.0,0.0,0.0,0.0,0.0,0.0,0.0,0.0,0.0,0.0,0.0,0.0,0.0,0.0,0.0,0.0,0.0,0.0,0.0,0.0,0.0,0.0,0.0,0.0,0.0,0.0,0.0,0.0,0.0,0.0,0.0,0.0,0.0,0.0,0.0,0.0,0.0,0.0,0.0,0.0,0.0,0.0,0.0,0.0,0.0,0.0,0.0,0.0,0.0,0.0,0.0,0.0,0.0,0.0,0.0,0.0,0.0,0.0,0.0,0.0,0.0,0.0,0.0,0.0,0.0,0.0,0.0,0.0,0.0,0.0,0.0,0.0,0.0,0.0,0.0,0.0,0.0,0.0,0.0,0.0,0.0,0.0,0.0,0.0,0.0,0.0,0.0,0.0,0.0,0.0,0.0,0.0,0.0,0.0,0.0,0.0,0.0,0.0,0.0,0.0,0.0,0.0,0.0,0.0,0.0,0.0,0.0,0.0,0.0,0.0,0.0,0.0,0.0,0.0,0.0,0.0,0.0,0.0,0.0,0.0,0.0,0.0,0.0,0.0,0.0,0.0,0.0,0.0,0.0,0.0,0.0,0.0,0.0,0.0,0.0,0.0,0.0,0.0,0.0,0.0,0.0,0.0,0.0,0.0,0.0,0.0,0.0,0.0,0.0,0.0,0.0,0.0,-5.41,-5.3041,0.0,0.0,0.0,0.0,0.0,0.0,0.0,0.0,0.0,0.0,0.0,0.0,0.0,0.0,0.0,0.0,0.0,0.0,0.0,0.0,0.0,0.0,0.0,0.0,0.0,0.0,0.0,0.0,0.0,0.0,0.0,0.0,0.0,0.0,0.0,0.0,0.0,0.0,0.0,0.0,0.0,0.0,0.0,0.0,0.0,0.0,0.0,0.0,0.0,0.0,0.0,0.0,0.0,0.0,0.0,0.0,0.0,0.0,0.0,0.0,0.0,0.0,0.0,0.0,0.0,0.0,0.0,0.0,0.0,0.0,0.0,0.0,0.0,0.0,0.0,0.0,0.0,0.0,0.0,0.0,0.0,0.0,0.0,0.0,0.0,0.0,0.0,0.0,0.0,0.0,0.0,0.0,0.0,0.0,0.0,0.0,0.0,0.0,0.0,0.0,0.0,0.0,0.0,0.0,0.0,0.0,0.0,0.0,0.0,0.0,0.0,0.0,0.0,0.0,-5.6598,-5.5262,0.0,0.0,0.0,0.0,0.0,0.0,0.0,0.0,0.0,0.0,0.0,0.0,0.0,0.0,0.0,0.0,0.0,0.0,0.0,0.0,0.0,0.0,0.0,0.0,0.0,0.0,0.0,0.0,0.0,0.0,0.0,0.0,0.0,0.0,0.0,0.0,0.0,0.0,0.0,0.0,0.0,0.0,0.0,0.0,0.0,0.0,0.0,0.0,0.0,0.0,0.0,0.0,0.0,0.0,0.0,0.0,0.0,0.0,0.0,0.0,0.0,0.0,0.0,0.0,0.0,0.0,0.0,0.0,0.0,0.0,0.0,0.0,0.0,0.0,0.0,0.0,0.0,0.0,0.0,0.0,0.0,0.0,0.0,0.0,0.0,0.0,0.0,0.0,0.0,0.0,0.0,0.0,0.0,0.0,0.0,0.0,0.0,0.0,0.0,0.0,0.0,0.0,0.0,0.0,0.0,0.0,0.0,0.0,-6.201,-6.2225,-6.2191,-6.2055,-6.1917,-6.1744,-5.8904,-5.7629,-5.7389,-5.6702,0.0,0.0,0.0,0.0,0.0,0.0,0.0,0.0,0.0,0.0,0.0,0.0,0.0,0.0,0.0,0.0,0.0,0.0,0.0,0.0,0.0,0.0,0.0,0.0,0.0,0.0,0.0,0.0,0.0,0.0,0.0,0.0,0.0,0.0,0.0,0.0,0.0,0.0,-5.1758,-5.1184,-5.091,-5.091,0.0,0.0,0.0,0.0,0.0,0.0,0.0,0.0,0.0,0.0,0.0,0.0,0.0,0.0,0.0,0.0,0.0,0.0,0.0,0.0,0.0,0.0,0.0,0.0,0.0,0.0,0.0,0.0,0.0,0.0,0.0,0.0,0.0,0.0,0.0,0.0,0.0,0.0,0.0,0.0,0.0,0.0,0.0,0.0,-5.4811,-5.4867,0.0,0.0,0.0,0.0,0.0,0.0,0.0,0.0,0.0,0.0,0.0,0.0,0.0,-6.1228,-6.1932,-6.2038,-6.2143,-6.2248,-6.2354,-6.2324,-6.2191,-6.2157,-6.2089,-6.1848,-6.1431,0.0,-6.0012,-5.9702,0.0,0.0,0.0,0.0,0.0,0.0,0.0,0.0,0.0,0.0,0.0,0.0,0.0,0.0,0.0,0.0,0.0,0.0,0.0,0.0,0.0,0.0,0.0,0.0,0.0,0.0,0.0,0.0,0.0,0.0,0.0,0.0,0.0,0.0,0.0,0.0,-5.2162,-5.1783,-5.1582,-5.1052,-5.0694,-5.0592,-5.0509,-5.0369,-5.0171,-4.9913,0.0,0.0,0.0,0.0,0.0,0.0,0.0,0.0,0.0,0.0,0.0,0.0,0.0,0.0,0.0,0.0,0.0,0.0,0.0,0.0,0.0,0.0,0.0,0.0,0.0,0.0,0.0,0.0,0.0,0.0,0.0,0.0,0.0,0.0,0.0,0.0,0.0,0.0,0.0,-5.5428,-5.5885,-5.6212,-5.6472,-5.6989,0.0,0.0,0.0,0.0,0.0,0.0,0.0,0.0,0.0,-6.1501,-6.1755,-6.2494,-6.3688,-6.3688,-6.4144,-6.4987,-6.4987,-6.4952,-6.4918,-6.4918,-6.4848,-6.4743,-6.4672,-6.4427,-6.3868,-6.1848,-6.0601,-5.9978,0.0,0.0,0.0,0.0,-5.9323,-5.9323,0.0,0.0,0.0,0.0,0.0,0.0,0.0,0.0,0.0,0.0,0.0,0.0,0.0,0.0,0.0,-5.1486,0.0,0.0,0.0,0.0,0.0,0.0,0.0,0.0,0.0,0.0,0.0,0.0,-5.243,-5.2125,-5.1927,-5.1489,-5.1186,-5.0932,-5.076,-5.0495,-5.0149,-4.9825,-4.9649,0.0,0.0,0.0,0.0,0.0,0.0,0.0,0.0,0.0,0.0,0.0,0.0,0.0,0.0,0.0,0.0,0.0,0.0,0.0,0.0,0.0,0.0,0.0,0.0,0.0,0.0,0.0,0.0,0.0,0.0,0.0,0.0,0.0,0.0,0.0,0.0,0.0,0.0,-5.6261,-5.6937,-5.7391,-5.8005,-5.8646,0.0,0.0,0.0,0.0,0.0,0.0,-6.1273,-6.2517,-6.317,-6.3086,-6.3195,-6.3934,-6.5303,-6.5303,-6.5865,-6.7023,-6.7023,-6.7023,-6.7023,-6.7023,-6.7023,-6.6987,-6.6915,-6.6843,-6.6632,-6.39,-6.2542,-6.216,-6.1947,-6.1634,-6.1289,-6.1289,-6.1427,-6.1599,0.0,0.0,0.0,0.0,0.0,0.0,0.0,0.0,0.0,0.0,0.0,0.0,0.0,0.0,-5.1194,-5.1118,-5.2597,-5.3521,0.0,0.0,0.0,0.0,0.0,0.0,0.0,0.0,0.0,-5.3911,-5.3753,-5.3458,-5.3015,-5.2736,-5.2502,-5.2419,-5.2175,-5.1321,-5.0011,-4.9801,-4.9708,-4.9679,0.0,0.0,0.0,0.0,0.0,0.0,0.0,0.0,0.0,0.0,0.0,0.0,0.0,0.0,0.0,0.0,0.0,0.0,0.0,0.0,0.0,0.0,0.0,0.0,0.0,0.0,0.0,0.0,0.0,0.0,0.0,0.0,0.0,0.0,0.0,0.0,0.0,0.0,0.0,-5.8166,-5.8619,0.0,0.0,0.0,0.0,-6.2057,-6.2842,-6.3244,-6.3093,-6.3715,-6.4263,-6.4873,-6.5442,-6.6075,-6.6883,-6.6883,-6.6918,-6.7023,-6.7023,-6.7023,-6.7023,-6.7023,-6.7023,-6.7023,-6.6987,-6.6987,-6.6917,-6.6266,-6.5107,-6.3754,-6.3535,-6.2599,-6.1289,-6.1289,-6.1772,-6.2427,0.0,0.0,0.0,0.0,0.0,0.0,0.0,0.0,0.0,0.0,0.0,0.0,0.0,-5.0158,-5.108,-5.1003,-5.2458,-5.3318,-5.3172,0.0,0.0,0.0,0.0,0.0,0.0,0.0,-5.421,-5.4001,-5.3681,-5.3379,-5.3063,-5.2811,-5.2641,-5.2493,-5.2278,-5.1912,-5.1395,-5.1245,-5.1184,-5.1184,-5.1032,-5.094,0.0,0.0,0.0,0.0,0.0,0.0,0.0,0.0,0.0,0.0,0.0,0.0,0.0,0.0,0.0,0.0,0.0,0.0,0.0,0.0,0.0,0.0,0.0,0.0,0.0,0.0,0.0,0.0,0.0,0.0,0.0,0.0,0.0,0.0,0.0,0.0,0.0,-5.9382,-6.006,0.0,-6.1432,-6.2158,-6.2699,-6.2985,-6.3734,-6.4318,-6.4657,-6.5374,-6.6055,-6.6666,-6.688,-6.7306,-6.7975,-6.7975,-6.815,-6.8533,-6.8533,-6.8533,-6.8533,-6.8533,-6.8533,-6.8533,-6.8533,-6.8533,-6.8496,-6.8017,-6.6922,-6.5567,-6.5233,-6.4738,-6.4255,-6.4255,-6.4427,-6.4669,0.0,0.0,0.0,0.0,0.0,0.0,0.0,0.0,0.0,0.0,0.0,-4.8661,-4.8882,-5.0134,-5.0996,-5.1116,-5.238,-5.3088,-5.2937,0.0,0.0,0.0,0.0,0.0,0.0,-5.4603,-5.4732,-5.457,-5.433,-5.4048,-5.3754,-5.3549,-5.3376,-5.3164,-5.3042,-5.2977,-5.2946,-5.2853,-5.2547,-5.2066,-5.1943,-5.1915,-5.1816,0.0,0.0,0.0,0.0,0.0,0.0,0.0,0.0,0.0,0.0,0.0,0.0,0.0,0.0,0.0,0.0,0.0,0.0,0.0,0.0,0.0,0.0,0.0,0.0,0.0,0.0,0.0,0.0,0.0,0.0,0.0,0.0,0.0,0.0,-5.9511,-6.0184,-6.0469,-6.1377,-6.2177,-6.2622,-6.3341,-6.3912,-6.4198,-6.4947,-6.5668,-6.6355,-6.6823,-6.7398,-6.8041,-6.8007,-6.8328,-6.9,-6.8964,-6.9139,-6.9486,-6.9486,-6.9449,-6.9412,-6.9412,-6.9412,-6.9412,-6.9412,-6.9412,-6.9376,-6.8895,-6.8113,-6.7171,-6.6512,-6.6117,-6.5876,-6.5876,-6.6048,-6.629,0.0,0.0,0.0,0.0,0.0,0.0,0.0,0.0,0.0,0.0,-4.855,-4.8769,-4.9424,-5.0131,-5.0853,-5.1529,-5.2331,-5.2783,-5.2783,-5.2783,0.0,0.0,0.0,0.0,-5.5205,-5.5963,-5.6162,-5.5706,-5.5677,-5.5443,-5.4992,-5.4992,-5.4807,-5.4494,-5.4494,-5.4494,-5.4494,-5.4494,-5.3667,-5.2287,-5.2287,-5.2196,-5.2073,0.0,0.0,0.0,0.0,0.0,0.0,0.0,0.0,0.0,0.0,0.0,0.0,0.0,0.0,0.0,0.0,0.0,0.0,0.0,0.0,0.0,0.0,0.0,0.0,0.0,0.0,0.0,0.0,0.0,0.0,0.0,0.0,0.0,-5.9583,-6.0644,-6.1509,-6.14,-6.2576,-6.3413,-6.3413,-6.4198,-6.5019,-6.5768,-6.6589,-6.7338,-6.8088,-6.7992,-6.8282,-6.9029,-6.8926,-6.9176,-6.9885,-6.9885,-6.9778,-6.9598,-6.9598,-6.9524,-6.9412,-6.9412,-6.9412,-6.9412,-6.9412,-6.9376,-6.9374,-6.893,-6.874,-6.8667,-6.748,-6.66,-6.5945,-6.5979,-6.6462,-6.7187,0.0,0.0,0.0,0.0,0.0,0.0,0.0,0.0,0.0,0.0,-4.8304,-4.8519,-4.9224,-4.9966,-5.0706,-5.1399,-5.2199,-5.2649,-5.2595,0.0,0.0,0.0,0.0,0.0,-5.5205,-5.5659,-5.5822,-5.5706,-5.5472,-5.5199,-5.4992,-5.4904,-5.4749,-5.4494,-5.4494,-5.4592,-5.4717,-5.4717,-5.4537,-5.4213,-5.4121,-5.4121,-5.4113,0.0,0.0,0.0,0.0,0.0,0.0,0.0,0.0,0.0,0.0,0.0,0.0,0.0,0.0,0.0,0.0,0.0,0.0,0.0,0.0,0.0,0.0,0.0,0.0,0.0,0.0,0.0,0.0,0.0,0.0,0.0,-6.0719,-6.1155,-6.094,-6.1688,-6.2367,-6.279,-6.3693,-6.4269,-6.4269,-6.5518,-6.641,-6.666,-6.7374,-6.8123,-6.8944,-6.8912,-6.9305,-7.0089,-7.002,-7.0058,-7.0132,-7.0132,-6.992,-6.9598,-6.9598,-6.9524,-6.9412,-6.9412,-6.9412,-6.9412,-6.9412,-6.9617,-6.9957,-6.9691,-6.981,-6.9961,-6.8409,-6.7669,-6.7566,-6.8118,-6.8808,-6.9463,0.0,0.0,0.0,0.0,0.0,0.0,0.0,0.0,0.0,0.0,-4.8128,-4.849,-4.9497,-5.0022,-5.0744,-5.176,-5.2304,-5.2513,-5.241,0.0,0.0,0.0,0.0,-5.4225,-5.4934,-5.5433,-5.5648,-5.5502,-5.5289,-5.5079,-5.49,-5.4842,-5.4686,-5.4529,-5.4903,-5.5136,-5.5265,-5.5671,-5.5935,-5.6059,-5.6001,-5.5583,-5.4922,-5.4535,-5.4361,-5.4326,-5.3838,-5.3664,-5.3629,-5.3316,0.0,0.0,0.0,0.0,0.0,0.0,0.0,0.0,0.0,0.0,0.0,0.0,0.0,0.0,0.0,0.0,0.0,0.0,0.0,0.0,0.0,0.0,0.0,0.0,-6.1494,-6.2162,-6.2808,-6.3221,-6.3596,-6.3872,-6.4912,-6.5625,-6.5625,-6.6731,-6.7588,-6.7945,-6.8373,-6.8944,-6.9765,-6.98,-7.0015,-7.0478,-7.0514,-7.041,-7.0306,-7.0306,-7.0132,-6.9706,-6.9706,-6.9773,-6.9867,-6.9867,-7.0043,-7.0359,-7.0248,-7.038,-7.0647,-7.0375,-7.0422,-7.0614,0.0,0.0,0.0,0.0,-7.0015,-7.0394,0.0,0.0,0.0,0.0,0.0,0.0,0.0,0.0,0.0,0.0,0.0,-4.855,-5.0025,-5.0206,-5.0816,-5.2358,-5.248,-5.2387,0.0,0.0,0.0,-5.285,0.0,-5.4016,-5.4606,-5.529,-5.5502,-5.5199,-5.5169,-5.5053,-5.478,-5.478,-5.4686,-5.456,-5.5479,-5.592,-5.6021,-5.6941,-5.7447,-5.7608,-5.7608,-5.6675,-5.5297,-5.5297,-5.5262,-5.5157,-5.5157,-5.5122,-5.4948,-5.4286,0.0,0.0,0.0,0.0,0.0,0.0,0.0,0.0,0.0,0.0,0.0,0.0,0.0,0.0,0.0,0.0,0.0,0.0,0.0,0.0,0.0,0.0,0.0,0.0,-6.2247,-6.3233,-6.4593,-6.488,-6.4854,-6.4733,-6.6089,-6.6981,-6.6981,-6.7731,-6.8516,-6.9265,-6.9374,-6.9765,-7.0478,-7.0514,0.0,0.0,0.0,-7.0514,-7.0514,-7.0514,-7.0306,-6.9885,-6.9991,-7.0199,-7.0499,-7.0604,-7.0988,-7.1616,-7.1427,-7.1346,-7.1338,-7.0982,-7.0857,-7.0886,-7.0545,-7.0429,-7.0498,-7.0498,-7.0567,-7.0636,0.0,0.0,0.0,0.0,0.0,0.0,0.0,0.0,0.0,-4.7943,-4.7922,-4.8463,-4.9952,-5.0134,-5.0786,-5.2371,-5.2387,-5.2258,0.0,0.0,0.0,0.0,0.0,-5.3823,-5.4606,-5.5051,-5.5259,-5.5199,-5.4992,-5.4842,-5.478,-5.4655,-5.4623,-5.4783,-5.5577,-5.6046,-5.6365,-5.7164,-5.7639,-5.7763,-5.7763,-5.7553,-5.7276,-5.7276,-5.6856,-5.6295,-5.6295,-5.5909,-5.5383,-5.5243,-5.5208,-5.5173,-5.5033,0.0,0.0,0.0,0.0,0.0,0.0,0.0,0.0,0.0,0.0,0.0,0.0,0.0,0.0,0.0,0.0,0.0,0.0,0.0,0.0,-6.2182,-6.3387,-6.43,-6.4586,-6.5193,-6.5586,-6.5554,-6.641,-6.6981,-6.6981,-6.8266,-6.9158,-6.9301,-6.9907,-7.0336,-7.0478,-7.0514,-7.0514,-7.0514,-7.0514,-7.0514,-7.0514,-7.0514,-7.0306,-6.992,-7.0557,0.0,-7.0534,-7.1166,-7.1403,-7.1389,-7.1315,-7.1469,-7.1706,-7.1625,-7.1843,-7.2202,-7.0918,-7.0739,-7.1291,-7.1291,-7.167,-7.2264,0.0,0.0,0.0,0.0,0.0,0.0,0.0,0.0,0.0,0.0,-4.8125,-4.885,-4.9967,-5.0474,-5.1176,-5.2371,-5.2317,0.0,0.0,0.0,0.0,0.0,0.0,0.0,-5.3717,-5.4343,-5.476,-5.4992,-5.4873,-5.4749,-5.4655,-5.456,-5.4623,-5.4849,-5.6053,-5.6763,-5.7052,-5.83,-5.8885,-5.8948,-5.9077,-5.9108,-5.9003,-5.8229,-5.7726,-5.7464,-5.7464,-5.697,-5.6306,-5.6306,-5.6024,-5.5706,-5.5706,-5.5735,-5.5822,0.0,0.0,0.0,0.0,0.0,0.0,0.0,0.0,0.0,0.0,0.0,0.0,0.0,0.0,-5.9931,-6.1113,0.0,-6.2177,-6.3357,-6.4122,-6.4769,-6.5161,-6.5554,-6.5946,-6.6339,-6.7088,-6.7695,-6.8123,-6.9229,-6.9907,-6.9907,-7.0264,-7.0514,-7.0514,-7.0514,-7.0514,-7.0514,-7.0514,-7.0514,-7.0514,-7.0375,-7.0415,-7.0522,-7.0803,-7.1182,-7.1658,-7.1963,-7.2232,-7.2503,-7.2231,-7.2273,-7.2416,-7.2292,-7.2451,-7.2602,-7.1683,-7.1656,-7.2084,-7.2084,-7.2242,-7.2501,0.0,0.0,0.0,0.0,0.0,0.0,0.0,0.0,0.0,0.0,-4.8359,-4.9177,-4.9959,-5.0814,-5.1611,0.0,0.0,0.0,0.0,0.0,0.0,0.0,0.0,0.0,-5.2892,-5.3637,-5.4291,-5.478,-5.4749,-5.4655,-5.4494,-5.4494,-5.4623,-5.4911,-5.6561,-5.7416,-5.7744,-5.9376,-6.0139,-6.0171,-6.0333,-6.0427,-6.0348,-5.9042,-5.8537,-5.8515,-5.8515,-5.8019,-5.7317,-5.7317,-5.6786,-5.6148,-5.6148,-5.6042,-5.5964,-5.5964,-5.6077,0.0,0.0,0.0,0.0,0.0,0.0,0.0,0.0,0.0,-5.9137,-5.9987,-6.0272,-6.0772,-6.2057,-6.2521,-6.3163,-6.4412,-6.4733,-6.5054,-6.5697,-6.5804,-6.6089,-6.6939,-6.7689,-6.8475,-6.9263,-7.0084,-7.0548,-7.0548,-7.0514,-7.0514,-7.0514,-7.0514,-7.0514,-7.0514,-7.0514,-7.0514,-7.0514,-7.0306,-7.0487,-7.1088,-7.1046,-7.1636,-7.2816,-7.2757,-7.3058,-7.3577,-7.3129,-7.2963,-7.2922,-7.2713,-7.2628,-7.2586,-7.2331,-7.2373,-7.2544,-7.2544,-7.2416,-7.2245,0.0,0.0,0.0,0.0,0.0,0.0,0.0,0.0,0.0,0.0,0.0,0.0,0.0,0.0,0.0,0.0,0.0,0.0,0.0,0.0,0.0,0.0,0.0,0.0,-5.2892,-5.3485,-5.4135,-5.478,-5.4623,-5.4494,-5.4494,-5.4494,-5.4652,-5.5031,-5.6624,-5.7479,-5.7864,-5.944,-6.0202,-6.0364,-6.0396,-6.0547,-6.0722,-6.0544,-5.9987,-5.9264,-5.9264,-5.8768,-5.8161,-5.8161,-5.7629,-5.6963,-5.6963,-5.6588,-5.6169,-5.6169,0.0,-5.6534,-5.7275,-5.7925,-5.846,-5.8531,-5.8567,-5.8781,0.0,0.0,-5.9987,-6.0808,-6.1521,-6.2092,-6.2271,-6.3413,-6.4412,-6.459,-6.5197,-6.5697,-6.5804,-6.5804,-6.6153,-6.7064,-6.7852,-6.8708,-6.9496,-7.0286,-7.0788,-7.0788,-7.0616,-7.0514,-7.0514,-7.0514,-7.0514,-7.0514,-7.0514,-7.0514,-7.0514,-7.0306,-7.0487,-7.1088,-7.1648,-7.2164,-7.2816,-7.3357,-7.3467,-7.3334,-7.2922,-7.2713,-7.2713,-7.2459,-7.2373,-7.2331,-7.2115,-7.2029,-7.2072,-7.2072,-7.2029,-7.2029,0.0,0.0,0.0,0.0,0.0,0.0,0.0,0.0,0.0,0.0,0.0,0.0,0.0,0.0,0.0,0.0,0.0,0.0,0.0,0.0,0.0,0.0,0.0,0.0,-5.2085,-5.2764,-5.3415,-5.3998,-5.4319,-5.4494,-5.4494,-5.4623,-5.4811,-5.5061,-5.6753,-5.7608,-5.7895,-5.944,-6.0202,-6.0396,-6.0489,-6.064,-6.0782,-6.0938,-6.073,-6.0386,-6.0386,-5.9888,0.0,0.0,-5.8679,-5.8039,-5.8039,-5.7883,-5.7626,-5.7626,-5.7683,0.0,-5.8167,-5.8488,-5.8816,-5.928,-5.9387,-5.9601,-6.0415,-6.0594,-6.0843,-6.1628,-6.2057,-6.2556,-6.3484,-6.4162,-6.4769,-6.5233,-6.559,-6.5804,-6.5804,-6.5804,-6.6121,-6.6971,-6.7855,-6.8708,-6.9532,-7.032,-7.0752,-7.0616,-7.0548,-7.0514,-7.0514,-7.0514,-7.0514,-7.0514,-7.0514,-7.041,-7.0306,-7.0132,-7.0309,-7.0942,-7.1533,-7.2079,-7.2656,-7.3228,-7.3293,-7.2922,-7.2628,-7.2459,-7.2459,-7.2202,-7.2115,-7.2115,-7.1854,-7.1766,-7.181,-7.1942,-7.1898,-7.1766,0.0,0.0,0.0,0.0,0.0,0.0,0.0,0.0,0.0,0.0,0.0,0.0,0.0,0.0,0.0,0.0,0.0,0.0,0.0,0.0,0.0,0.0,0.0,0.0,-5.1483,-5.2074,-5.2691,-5.3391,-5.3942,-5.4322,-5.4494,-5.4717,-5.4873,-5.5092,-5.6606,-5.746,-5.7895,-5.9229,-6.0058,-6.0458,-6.0547,-6.0732,-6.0908,-6.1064,-6.1093,-6.1093,-6.1093,-6.0736,0.0,0.0,-5.9614,-5.8973,-5.8879,-5.8737,-5.8594,-5.8594,-5.8766,-5.8973,-5.903,0.0,0.0,-6.0094,-6.0237,-6.038,-6.095,-6.1272,-6.1593,-6.2164,-6.2628,-6.327,-6.4412,-6.4804,-6.5126,-6.5697,-6.5804,-6.5804,-6.5804,-6.5804,-6.605,-6.6653,-6.7533,-6.8385,-6.9209,-7.0212,-7.0718,-7.0582,-7.0548,-7.0514,-7.0514,-7.0514,-7.0514,-7.0514,-7.0445,-7.0341,-7.0202,-6.9956,-7.0166,-7.0832,-7.1344,-7.1886,-7.2499,-7.2986,-7.3005,-7.2586,-7.2373,-7.2288,-7.2202,-7.1985,-7.1898,-7.1854,-7.16,-7.1512,-7.1546,-7.1722,-7.1678,-7.1512,0.0,0.0,0.0,0.0,0.0,0.0,0.0,0.0,0.0,0.0,0.0,0.0,0.0,0.0,0.0,0.0,0.0,0.0,0.0,0.0,0.0,0.0,0.0,0.0,-5.1483,-5.1517,-5.2136,-5.3391,-5.3425,-5.3804,-5.4494,-5.4717,-5.4873,-5.5057,-5.6012,-5.6935,-5.786,-5.8702,-5.9628,-6.0578,-6.0578,-6.0793,-6.1093,-6.1093,-6.1093,-6.1093,-6.1093,0.0,0.0,0.0,-6.0285,-5.9615,-5.943,-5.8874,0.0,-5.8308,-5.8958,-5.9675,-5.9822,-6.0451,-6.1022,-6.1058,-6.1058,-6.1058,-6.1093,-6.17,-6.2271,-6.2271,-6.3484,-6.4555,-6.4559,-6.5233,-6.5768,-6.5804,-6.5804,-6.5804,-6.5804,-6.5804,-6.5867,-6.599,-6.6737,-6.7561,-6.8353,-6.989,-7.0821,-7.0821,-7.0616,-7.0514,-7.0514,-7.0514,-7.0514,-7.0514,-7.0306,-7.0202,-7.0202,-6.9778,-7.0021,-7.0832,-7.1157,-7.1734,-7.2499,-7.2864,-7.2755,-7.2331,-7.2331,-7.2202,-7.1985,-7.1688,-7.16,-7.16,-7.1401,-7.1312,-7.1312,-7.1312,-7.1312,-7.1312,0.0,0.0,0.0,0.0,0.0,0.0,0.0,0.0,0.0,0.0,0.0,0.0,0.0,0.0,0.0,0.0,0.0,0.0,0.0,0.0,0.0,0.0,0.0,-5.0897,-5.0886,-5.1296,-5.1674,-5.1988,-5.2969,-5.3591,-5.3925,-5.4595,-5.4992,-5.5174,-5.6094,-5.6711,-5.7087,-5.8421,-5.9249,-5.9713,-6.0242,-6.0578,-6.0762,-6.0762,-6.0762,-6.0762,0.0,0.0,0.0,0.0,-6.058,-6.0281,-6.022,-6.0043,-5.983,-5.983,-6.0038,-6.0311,-6.0342,-6.064,-6.0908,-6.0908,-6.0968,-6.1093,-6.1093,-6.17,-6.2414,-6.2913,-6.3877,-6.4769,-6.5304,-6.5625,-6.5804,-6.5804,-6.5804,-6.5804,-6.5804,-6.5804,-6.5836,-6.5832,-6.6578,-6.7364,-6.8151,-6.9287,-7.0179,-7.0581,-7.0548,-7.0514,-7.0514,-7.0375,-7.0306,-7.0306,-7.0097,-6.9956,-6.9778,-6.967,-6.9666,-6.9873,-7.0721,-7.1698,-7.2829,-7.2818,-7.2628,-7.2288,-7.2159,-7.1985,-7.1688,-7.1501,-7.1412,-7.1367,-7.1312,-7.1312,-7.1267,-7.1131,-7.1007,-7.1052,0.0,0.0,0.0,0.0,0.0,0.0,0.0,0.0,0.0,0.0,0.0,0.0,0.0,0.0,0.0,0.0,0.0,0.0,0.0,0.0,0.0,0.0,-5.1034,-5.0819,-5.0612,-5.099,-5.1233,-5.1367,-5.229,-5.3052,-5.3693,-5.4365,-5.4864,-5.5199,-5.5904,-5.635,-5.6701,-5.8,-5.8796,-5.9267,-6.0078,-6.0489,-6.0578,-6.0578,-6.0578,0.0,0.0,0.0,0.0,0.0,-6.0609,-6.0552,-6.0454,-6.0423,-6.0423,-6.0485,-6.0552,-6.0516,-6.0578,-6.0671,-6.0727,-6.0727,-6.0854,-6.0985,-6.127,-6.1946,-6.2724,-6.3476,-6.4357,-6.5102,-6.5601,-6.5772,-6.5804,-6.5804,-6.5804,-6.5804,-6.5804,-6.5804,-6.5804,-6.5804,-6.6268,-6.6981,-6.798,-6.8684,-6.9471,-7.0407,-7.0514,-7.048,-7.0411,-7.0272,-7.0167,-7.0097,-6.9885,-6.9706,-6.9598,-6.9525,-6.9695,-6.9957,-7.0946,-7.1955,-7.288,-7.2671,-7.2416,-7.2202,-7.1942,-7.1722,-7.1501,-7.1356,-7.1312,-7.1312,-7.1222,-7.1176,-7.1098,-7.087,-7.0779,-7.0779,0.0,0.0,0.0,0.0,0.0,0.0,0.0,0.0,0.0,0.0,0.0,0.0,0.0,0.0,0.0,0.0,0.0,0.0,0.0,0.0,0.0,0.0,0.0,0.0,-5.0612,-5.0612,-5.0879,-5.1476,-5.1483,-5.2248,-5.3674,-5.3957,-5.4465,-5.5159,-5.5413,-5.5894,-5.6596,-5.7403,-5.8268,-5.9197,-6.0008,-6.0454,-6.0578,-6.0578,0.0,0.0,0.0,0.0,0.0,0.0,0.0,0.0,-6.0171,-6.0107,-6.0139,-6.0333,-6.0396,-6.0427,-6.0516,-6.0578,-6.0578,-6.0578,-6.0578,-6.0822,-6.16,-6.2344,-6.3123,-6.3937,-6.4847,-6.5477,0.0,-6.5675,-6.5772,-6.5804,-6.5804,-6.5804,-6.5804,-6.5804,-6.5804,-6.5804,-6.5804,-6.641,-6.7945,-6.8088,-6.8766,-7.0337,-7.048,-7.0411,-7.0202,-7.0167,-7.0097,-6.9885,-6.967,-6.9598,-6.9598,-6.9521,-6.9957,-7.1072,-7.1837,-7.2359,-7.2671,-7.2416,-7.2202,-7.1985,-7.1688,-7.1501,-7.1312,-7.1267,-7.1267,-7.1267,-7.0961,-7.087,-7.087,-7.0561,-7.0469,-7.0469,0.0,0.0,0.0,0.0,0.0,0.0,0.0,0.0,0.0,0.0,0.0,0.0,0.0,0.0,0.0,0.0,0.0,0.0,0.0,0.0,0.0,0.0,0.0,0.0,0.0,0.0,0.0,0.0,0.0,-5.1784,-5.2345,-5.3527,-5.4244,0.0,-5.5197,-5.5613,-5.5823,-5.6596,-5.7399,-5.8237,0.0,-5.971,-6.0234,0.0,0.0,0.0,0.0,0.0,0.0,0.0,0.0,0.0,0.0,-6.0107,-6.0107,-6.0171,-6.0171,-6.0171,-6.0234,-6.0329,-6.0458,-6.0458,-6.0552,-6.0822,-6.16,-6.2344,-6.3123,-6.3937,-6.4749,-6.5349,-6.5349,-6.5382,-6.548,-6.5542,-6.5611,-6.5643,-6.5772,-6.5804,-6.5804,-6.5804,0.0,-6.6346,-6.7817,-6.7959,-6.8531,-6.9955,-7.0202,-7.0202,-6.9991,-6.9813,-6.9706,-6.967,-6.9524,-6.9449,-6.9449,-6.9825,-7.0647,-7.1907,-7.192,-7.2202,-7.2671,-7.2416,-7.2202,-7.1985,-7.1688,-7.1501,-7.1267,-7.1052,-7.1007,-7.0961,-7.0733,-7.0608,-7.0561,-7.0363,-7.027,-7.027,0.0,0.0,0.0,0.0,0.0,0.0,0.0,0.0,0.0,0.0,0.0,0.0,0.0,0.0,0.0,0.0,0.0,0.0,0.0,0.0,0.0,0.0,0.0,0.0,0.0,0.0,0.0,0.0,0.0,0.0,0.0,-5.2682,-5.3451,-5.4145,-5.46,-5.4984,-5.5334,0.0,0.0,0.0,0.0,0.0,0.0,0.0,0.0,0.0,0.0,0.0,0.0,0.0,0.0,-6.0107,-6.0107,-6.0107,-6.0107,-6.0107,0.0,-6.0107,-6.0107,-6.0171,-6.0266,-6.0266,-6.0329,-6.0674,-6.1803,-6.2367,-6.3002,-6.4131,-6.4798,-6.5182,-6.5182,-6.5249,-6.5316,0.0,0.0,0.0,-6.5578,-6.5578,-6.5578,0.0,-6.5578,-6.615,-6.7648,-6.7756,-6.8325,-6.9672,-6.992,-6.9991,-6.9778,-6.967,-6.9561,-6.9524,-6.9449,-6.9514,-6.9755,-7.0263,-7.1046,-7.2024,-7.2214,-7.2431,-7.2671,-7.2331,-7.2115,-7.1985,-7.1634,-7.1323,-7.1098,-7.0961,-7.0825,-7.0733,-7.0456,-7.0363,-7.0363,-7.0129,-6.9941,-6.9846,0.0,0.0,0.0,0.0,0.0,0.0,0.0,0.0,0.0,0.0,0.0,0.0,0.0,0.0,0.0,0.0,0.0,0.0,0.0,0.0,0.0,0.0,0.0,0.0,0.0,0.0,0.0,0.0,0.0,0.0,0.0,0.0,0.0,0.0,0.0,0.0,0.0,0.0,0.0,0.0,0.0,0.0,0.0,0.0,0.0,0.0,0.0,0.0,0.0,0.0,-6.1145,-6.0183,-6.0215,-6.0145,-6.0075,-6.0107,-6.0107,-6.0107,-6.0107,-6.0107,-6.0107,-6.0107,-6.0107,-6.0461,-6.2005,-6.2356,-6.2778,-6.4321,-6.474,-6.4912,-6.4912,-6.5048,-6.5216,-6.5216,0.0,-6.5282,-6.5282,-6.5316,-6.5316,-6.5316,-6.5389,-6.599,-6.7408,-6.7655,-6.8222,-6.9456,-6.9741,-6.9741,-6.9561,-6.9561,-6.9524,-6.9376,-6.9444,-6.9753,-7.0298,-7.0832,-7.1364,-7.1966,-7.2617,-7.2838,-7.2628,-7.2202,-7.1985,-7.1898,-7.1491,-7.1176,-7.0916,-7.087,-7.0687,-7.0423,-7.0223,-7.0129,-7.0082,-6.9846,-6.9607,-6.9382,0.0,0.0,0.0,0.0,0.0,0.0,0.0,0.0,0.0,0.0,-4.6369,-4.6905,0.0,0.0,0.0,0.0,0.0,0.0,0.0,0.0,0.0,0.0,0.0,0.0,0.0,0.0,0.0,0.0,0.0,0.0,0.0,0.0,0.0,0.0,0.0,0.0,0.0,0.0,0.0,0.0,0.0,0.0,0.0,0.0,0.0,0.0,0.0,0.0,0.0,0.0,-6.1325,-6.0626,-6.0792,-6.0403,-5.9879,-6.004,-6.0107,-6.0107,-6.0107,-6.0107,-6.0107,-6.0107,-5.9975,-6.0264,-6.1805,-6.2053,0.0,0.0,-6.4322,-6.4322,-6.4322,-6.4463,-6.4602,-6.4775,-6.4911,-6.5115,-6.5282,-6.5316,-6.5316,0.0,-6.5849,-6.6524,-6.727,-6.7941,-6.8645,-6.9379,-6.9339,-6.9302,-6.9449,-6.9449,-6.9339,-6.9153,-6.9558,-7.014,-7.0832,-7.1399,-7.2041,-7.2797,-7.2769,-7.2628,-7.2373,-7.2115,-7.1898,-7.1644,-7.1401,-7.1176,-7.087,-7.0654,-7.0423,-7.0223,-6.9988,-6.9893,-6.9846,-6.9559,-6.943,-6.9334,0.0,0.0,0.0,0.0,0.0,0.0,0.0,-4.5607,-4.571,-4.571,-4.5905,-4.6245,-4.6705,-4.7326,-4.8155,0.0,0.0,0.0,0.0,0.0,0.0,0.0,0.0,0.0,0.0,0.0,-5.0846,-5.0729,0.0,-5.053,-5.0397,-5.0695,-5.1026,-5.1355,-5.2023,0.0,0.0,0.0,0.0,0.0,0.0,0.0,0.0,0.0,0.0,0.0,0.0,0.0,0.0,0.0,-6.2263,-6.164,-6.15,-6.0905,-6.0276,-6.0377,-6.013,-5.9849,-5.9849,-5.9849,-5.9849,-5.9849,-6.003,-6.059,-6.1741,0.0,0.0,0.0,-6.418,-6.418,-6.418,-6.4251,0.0,-6.4428,-6.4533,-6.4672,-6.4809,-6.4843,-6.4877,-6.498,-6.5581,-6.6251,-6.6918,-6.7617,-6.8313,-6.8973,-6.8967,-6.8967,-6.9227,-6.9118,-6.918,-6.9485,-6.9675,-7.0288,-7.1434,-7.1538,-7.2043,-7.2838,-7.2755,-7.2544,-7.2288,-7.2072,-7.1854,-7.16,-7.1233,-7.0916,-7.0654,-7.0456,-7.0223,-6.9988,-6.9703,-6.9607,-6.9559,-6.9285,-6.9091,-6.8945,0.0,0.0,0.0,0.0,0.0,0.0,0.0,-4.5476,-4.5554,-4.5554,-4.5684,-4.5812,-4.5879,-4.669,-4.7613,0.0,0.0,0.0,0.0,0.0,0.0,0.0,0.0,0.0,0.0,0.0,0.0,-5.0585,-5.053,0.0,0.0,0.0,0.0,0.0,-5.0867,-5.163,-5.2803,0.0,0.0,0.0,0.0,-5.644,0.0,0.0,0.0,0.0,0.0,0.0,0.0,0.0,-6.3147,-6.2634,-6.2299,-6.1606,-6.091,-6.0944,-6.0422,-5.9864,-5.9864,-5.9692,-5.9621,-5.9621,-6.0144,-6.0841,-6.1606,-6.2335,0.0,-6.3791,-6.3965,-6.4001,-6.4001,0.0,-6.4143,0.0,-6.4144,-6.4251,-6.4358,-6.4358,-6.4463,0.0,-6.5408,0.0,-6.6837,-6.7457,-6.8078,-6.867,-6.8667,-6.8743,-6.8967,-6.8743,-6.8976,-6.9776,-6.9788,-7.0395,-7.1711,-7.1753,-7.205,-7.2713,-7.2628,-7.2501,-7.2245,-7.2029,-7.1766,-7.1512,-7.1098,-7.0779,-7.0469,-7.027,-7.0035,-6.9798,-6.9478,-6.9382,-6.9334,-6.9042,-6.8797,-6.86,0.0,0.0,0.0,0.0,0.0,0.0,0.0,-4.5344,-4.5423,-4.5423,-4.5528,-4.5632,-4.5632,-4.5822,-4.6637,0.0,0.0,0.0,0.0,0.0,0.0,0.0,0.0,0.0,0.0,0.0,0.0,-5.0585,-5.0369,0.0,0.0,0.0,0.0,0.0,0.0,-5.123,-5.1862,-5.258,0.0,0.0,0.0,0.0,0.0,0.0,0.0,0.0,0.0,0.0,0.0,0.0,0.0,-6.3237,-6.3205,-6.2393,-6.1536,-6.1745,0.0,0.0,-6.0596,-6.0109,-5.9621,-5.9621,-6.0043,-6.067,-6.1257,0.0,-6.2447,-6.298,-6.3265,-6.3377,-6.3377,-6.3673,-6.3927,-6.3927,0.0,-6.418,-6.4216,-6.4216,-6.446,-6.5156,0.0,0.0,-6.7452,-6.8183,-6.8635,-6.8705,-6.8551,-6.8513,-6.8743,-6.8551,-6.8817,-6.9614,-7.0073,-7.0711,-7.1539,-7.223,-7.2644,-7.2671,-7.2459,-7.2245,-7.2029,-7.1732,-7.1546,-7.1312,-7.1007,-7.0779,-7.0469,-7.027,-7.0035,-6.9798,-6.9478,-6.9382,-6.9334,-6.8847,-6.86,-6.855,0.0,0.0,0.0,0.0,0.0,0.0,-4.5069,-4.5096,-4.5211,-4.5291,-4.5344,-4.5397,-4.5476,-4.5943,-4.6768,-4.8049,0.0,0.0,0.0,0.0,0.0,0.0,0.0,0.0,0.0,0.0,-5.0453,-5.0369,-5.0257,0.0,0.0,0.0,0.0,0.0,0.0,-5.0444,-5.141,-5.1653,0.0,0.0,0.0,0.0,0.0,0.0,0.0,0.0,0.0,0.0,-6.095,0.0,0.0,0.0,-6.3114,-6.2816,0.0,0.0,-6.1638,-6.091,-6.091,-6.0563,-6.0251,-6.0251,-6.0765,-6.1347,-6.1547,0.0,-6.2771,-6.2969,-6.3076,-6.3114,-6.3114,-6.334,-6.3526,-6.3526,0.0,0.0,-6.4589,-6.4695,-6.5009,-6.5849,-6.6575,-6.7125,-6.7364,-6.7981,-6.8319,-6.8319,-6.8241,-6.8241,-6.8319,-6.8729,-6.9273,-7.0033,-7.0711,-7.1429,-7.2188,-7.2533,-7.2628,-7.2459,-7.2373,-7.2115,-7.1766,-7.1644,-7.1501,-7.1267,-7.087,-7.0608,-7.0469,-7.0129,-6.9798,-6.9526,-6.9237,-6.9042,-6.8896,-6.8501,-6.8351,-6.8351,0.0,0.0,0.0,0.0,0.0,-4.494,-4.494,-4.4995,-4.5015,-4.5123,-4.5123,-4.528,-4.5654,-4.617,-4.7003,-4.8182,-4.8367,0.0,0.0,0.0,0.0,0.0,0.0,0.0,0.0,0.0,-5.0285,-5.0171,-5.0086,-4.9942,0.0,0.0,-4.956,-4.9381,0.0,0.0,0.0,0.0,0.0,0.0,0.0,0.0,0.0,0.0,0.0,0.0,0.0,0.0,0.0,0.0,0.0,0.0,0.0,0.0,0.0,0.0,-6.1963,-6.1236,-6.1236,-6.0955,-6.0674,-6.0674,-6.122,-6.1767,0.0,0.0,-6.2885,-6.2847,-6.2885,-6.2923,-6.2923,-6.3076,-6.3227,-6.3265,0.0,-6.408,-6.4784,-6.5098,-6.5587,-6.6462,-6.6938,-6.7277,-6.7519,-6.7886,-6.8083,-6.8083,-6.8083,-6.8187,-6.8428,-6.9187,-6.9842,-7.036,-7.1118,-7.1877,-7.2671,-7.2628,-7.2501,-7.2331,-7.2124,-7.1907,-7.16,-7.1512,-7.1412,-7.1176,-7.0733,-7.0469,-7.0376,-6.9988,-6.9655,-6.9382,-6.9091,-6.8847,-6.855,-6.8301,-6.8201,-6.8201,0.0,0.0,0.0,0.0,0.0,0.0,-4.4803,-4.4913,-4.5022,-4.5022,-4.5022,-4.535,-4.6206,-4.6302,-4.6976,-4.8637,-4.8979,0.0,0.0,0.0,0.0,0.0,0.0,0.0,0.0,0.0,-5.0171,-5.0171,-4.9854,-4.9708,-4.9708,-4.956,-4.9381,-4.9199,0.0,0.0,0.0,0.0,0.0,0.0,0.0,0.0,0.0,0.0,0.0,0.0,0.0,0.0,0.0,0.0,0.0,0.0,0.0,0.0,0.0,0.0,-6.2419,-6.1804,-6.1804,-6.1292,-6.0674,-6.0674,-6.122,-6.1763,0.0,0.0,-6.2649,-6.242,-6.2537,-6.2693,-6.2693,-6.2847,-6.3076,-6.3265,-6.392,0.0,-6.4666,-6.5393,-6.6152,0.0,-6.698,-6.729,-6.8014,-6.8083,-6.8083,-6.8083,-6.8083,-6.8428,-6.9222,-6.998,-7.0394,-7.0394,-7.1118,-7.1877,-7.2671,-7.2459,-7.2331,-7.2288,-7.182,-7.16,-7.16,-7.1367,-7.1176,-7.087,-7.0608,-7.041,-7.0176,-6.9893,-6.9655,-6.9382,-6.9091,-6.8847,-6.855,-6.8301,-6.8201,-6.8151,0.0,0.0,0.0,0.0,0.0,0.0,0.0,-4.4692,-4.4748,-4.4858,-4.4858,-4.5186,-4.6075,-4.6735,-4.7539,-4.8564,-4.881,0.0,0.0,0.0,0.0,0.0,0.0,0.0,0.0,0.0,-5.0005,-4.9854,-4.9737,-4.959,-4.935,-4.9199,-4.908,-4.8925,-4.9243,-4.9854,0.0,0.0,0.0,0.0,0.0,0.0,-5.5686,0.0,0.0,0.0,0.0,0.0,0.0,0.0,0.0,0.0,0.0,0.0,0.0,0.0,0.0,0.0,-6.2429,-6.2149,-6.1825,-6.1637,-6.1733,-6.1897,-6.166,0.0,-6.2195,-6.215,-6.2308,-6.2498,-6.2498,-6.3062,-6.3558,-6.3635,-6.4401,0.0,0.0,0.0,0.0,-6.7669,-6.7738,-6.7803,-6.7885,-6.7919,-6.8045,-6.8398,-6.8432,-6.8775,-6.9529,-7.0283,-7.0736,-7.0938,-7.166,-7.2099,-7.2202,-7.2115,-7.2029,-7.182,-7.1688,-7.1512,-7.1367,-7.1356,-7.1176,-7.087,-7.0608,-7.041,-7.0129,-6.9703,-6.9334,-6.9091,-6.8847,-6.855,-6.8301,-6.8251,-6.8101,-6.7899,0.0,0.0,0.0,0.0,0.0,0.0,0.0,-4.4559,-4.4643,-4.4692,-4.4964,-4.5461,-4.6351,-4.7216,-4.8054,-4.8924,-4.9108,0.0,0.0,0.0,0.0,0.0,0.0,0.0,0.0,-4.9918,-4.983,-4.9708,-4.959,-4.9381,-4.9107,-4.8987,-4.8832,-4.8709,-4.9254,-4.9792,0.0,0.0,0.0,0.0,0.0,0.0,-5.5626,0.0,0.0,0.0,0.0,0.0,0.0,0.0,0.0,0.0,0.0,0.0,0.0,0.0,-6.2024,0.0,0.0,-6.2223,-6.2104,-6.1917,-6.1877,0.0,0.0,0.0,0.0,-6.1997,-6.2386,-6.2741,-6.2821,-6.3515,-6.4143,-6.4223,-6.4914,-6.5722,0.0,0.0,0.0,-6.7811,-6.7879,-6.7839,-6.7678,-6.7918,-6.8254,-6.8576,-6.8842,-6.9354,-7.0064,-7.0542,-7.096,-7.1354,-7.1919,-7.2115,-7.1985,-7.1898,-7.1766,-7.16,-7.1512,-7.1412,-7.1312,-7.1222,-7.1007,-7.0733,-7.0469,-7.027,0.0,-6.9607,-6.9237,-6.8994,-6.8699,-6.8451,-6.8201,-6.8101,-6.7949,-6.7746,0.0,0.0,0.0,0.0,0.0,0.0,0.0,-4.444,-4.4587,-4.4654,-4.5263,-4.6065,-4.6956,-4.7699,-4.8498,-4.958,0.0,0.0,0.0,0.0,0.0,0.0,0.0,0.0,-4.9982,-4.9801,-4.9679,-4.9679,-4.935,-4.9107,-4.8987,-4.8832,-4.8709,-4.8584,-4.9125,-4.9659,0.0,0.0,0.0,0.0,0.0,0.0,0.0,0.0,0.0,0.0,0.0,0.0,0.0,0.0,0.0,0.0,0.0,0.0,0.0,0.0,0.0,0.0,0.0,-6.1669,-6.1709,-6.1669,-6.1669,0.0,0.0,0.0,0.0,0.0,0.0,0.0,-6.3558,-6.4174,-6.4762,-6.493,-6.5576,0.0,0.0,-6.7031,0.0,-6.751,-6.7544,-6.7578,-6.7578,-6.8227,-6.8664,-6.8698,-6.9381,-7.0055,-7.0772,-7.084,-7.1061,-7.1566,-7.181,-7.1942,-7.1942,-7.1688,-7.1556,-7.1556,-7.1367,-7.1312,-7.1267,-7.1007,-7.0733,-7.0469,-7.027,-7.0035,-6.9751,-6.9478,-6.9188,-6.8945,-6.8699,-6.8401,-6.8151,-6.7899,-6.7746,-6.7644,0.0,0.0,0.0,0.0,0.0,0.0,0.0,0.0,0.0,0.0,-4.5481,-4.621,-4.7526,-4.7916,-4.8443,0.0,0.0,0.0,0.0,0.0,0.0,0.0,0.0,0.0,-4.9767,-4.9619,-4.9471,-4.932,-4.9138,-4.8987,-4.8832,-4.8483,-4.8624,-4.9125,-4.9558,-5.0375,0.0,0.0,0.0,0.0,0.0,0.0,0.0,0.0,0.0,0.0,-5.7773,-5.8494,0.0,0.0,0.0,0.0,0.0,0.0,0.0,0.0,-6.1252,-6.1252,-6.1252,0.0,-6.1669,-6.1506,-6.1465,-6.1424,0.0,0.0,0.0,0.0,0.0,0.0,0.0,0.0,0.0,-6.5508,0.0,-6.6667,-6.695,-6.7291,0.0,-6.751,-6.7988,-6.8288,-6.8156,-6.8795,-6.939,-6.9795,-6.9998,-7.0405,-7.1141,-7.1175,-7.1243,-7.1367,-7.1446,-7.1491,-7.1491,-7.1401,-7.1401,-7.1401,-7.1312,-7.1222,-7.1007,-7.0916,-7.0687,-7.027,-7.0223,-6.9941,-6.9478,-6.9188,-6.8945,-6.8649,-6.8401,-6.8151,-6.7899,-6.7797,-6.7542,-6.7161,0.0,0.0,0.0,0.0,0.0,0.0,0.0,0.0,0.0,0.0,0.0,0.0,0.0,0.0,0.0,0.0,0.0,0.0,0.0,0.0,0.0,0.0,0.0,-4.9619,-4.9619,-4.9441,-4.926,-4.9107,-4.8987,-4.8769,-4.8549,-4.8625,-4.8828,-4.9094,-4.9807,-5.071,0.0,0.0,0.0,0.0,-5.4154,0.0,0.0,0.0,0.0,0.0,-5.7568,-5.8215,0.0,-6.0181,-6.0802,-6.0961,0.0,0.0,0.0,0.0,-6.1119,-6.1185,-6.1516,-6.1518,-6.1483,-6.1692,-6.1792,-6.1816,0.0,0.0,0.0,0.0,0.0,0.0,0.0,0.0,0.0,0.0,-6.6542,0.0,0.0,0.0,-6.7698,-6.7698,-6.8378,-6.8812,-6.8685,-6.932,-6.9887,-7.0161,-7.05,-7.0872,-7.1312,-7.1312,-7.1312,-7.1312,-7.1312,-7.1312,-7.1312,-7.1312,-7.1312,-7.1312,-7.1312,-7.1176,-7.0916,-7.0779,-7.0549,-7.0176,-7.0082,-6.9798,-6.9382,-6.9091,-6.8847,-6.855,-6.8151,-6.7949,-6.7746,-6.7491,-6.7265,-6.7005,0.0,0.0,0.0,0.0,0.0,0.0,0.0,0.0,0.0,0.0,0.0,0.0,0.0,0.0,0.0,0.0,0.0,0.0,0.0,0.0,0.0,0.0,0.0,-4.9441,-4.9411,-4.9229,-4.9077,-4.8923,-4.8902,-4.8684,-4.8329,-4.9061,-4.926,-4.9084,-5.0112,-5.0876,0.0,0.0,-5.2721,-5.3362,-5.4211,0.0,0.0,0.0,0.0,0.0,0.0,0.0,0.0,-6.0088,-6.0633,-6.0717,-6.0961,0.0,0.0,0.0,0.0,0.0,-6.2022,-6.1715,-6.145,-6.2188,-6.2387,-6.2553,-6.3226,0.0,0.0,0.0,0.0,0.0,0.0,-6.6373,0.0,0.0,-6.6914,-6.6981,-6.6981,-6.7624,-6.8098,-6.8098,-6.8774,-6.9282,-6.9282,-6.9925,-7.0364,-7.0364,-7.0973,-7.1312,-7.1312,-7.1312,-7.1312,-7.1312,-7.1312,-7.1312,-7.1312,-7.1312,-7.1312,-7.1312,-7.1267,-7.1131,-7.0825,-7.0561,-7.0363,-7.0129,-6.9846,-6.9607,-6.9334,-6.9042,-6.8797,-6.8501,-6.8,-6.7746,-6.7695,-6.7213,-6.6953,-6.6901,0.0,0.0,0.0,0.0,0.0,0.0,0.0,0.0,0.0,0.0,0.0,0.0,0.0,0.0,0.0,0.0,0.0,0.0,0.0,0.0,0.0,0.0,-4.9168,-4.9199,-4.908,-4.8956,-4.8769,-4.8578,-4.8989,-4.9094,-4.8895,-4.9521,-4.9904,-5.0203,-5.0978,-5.129,-5.134,-5.2592,-5.3207,-5.3395,-5.4729,0.0,0.0,0.0,0.0,0.0,0.0,0.0,0.0,-5.9902,-6.042,-6.0717,-6.076,0.0,0.0,0.0,0.0,0.0,-6.2022,-6.2122,-6.2221,-6.2984,-6.315,-6.3226,-6.3496,0.0,0.0,0.0,0.0,0.0,0.0,-6.6745,-6.6812,0.0,-6.732,-6.7726,-6.7726,-6.8402,-6.891,-6.891,-6.9586,-7.0026,-7.0026,-7.0703,-7.1142,-7.1142,-7.1244,-7.1312,-7.1312,-7.1312,-7.1312,-7.1312,-7.1312,-7.1312,-7.1312,-7.1312,-7.1312,-7.1312,-7.1086,-7.0825,-7.0561,-7.0363,-7.0082,-6.9846,-6.9607,-6.9285,-6.9042,-6.8797,-6.8501,-6.8251,-6.7899,-6.7644,-6.7388,-6.7109,-6.6849,-6.667,0.0,0.0,0.0,0.0,0.0,0.0,0.0,0.0,0.0,0.0,0.0,0.0,0.0,0.0,0.0,0.0,0.0,0.0,0.0,0.0,0.0,-4.931,-4.9373,-4.9436,-4.9436,-4.9681,-4.9721,-4.9525,-4.966,-4.9624,-4.9487,-4.9967,-5.0471,-5.101,-5.1257,-5.1469,-5.1815,-5.2883,-5.3524,-5.3984,0.0,0.0,0.0,0.0,0.0,0.0,0.0,0.0,0.0,0.0,-6.0239,-6.042,-6.0633,0.0,0.0,0.0,0.0,0.0,-6.252,-6.2818,-6.3083,-6.4341,-6.4351,-6.4185,-6.4714,0.0,0.0,0.0,0.0,0.0,0.0,0.0,-6.6948,-6.7354,-6.803,-6.8538,-6.8538,-6.9214,-6.9688,-6.9688,-7.0331,-7.0804,-7.0804,-7.1109,-7.1312,-7.1312,-7.1312,-7.1312,-7.1312,-7.1312,-7.1312,-7.1312,-7.1312,-7.1222,-7.1086,-7.1052,-7.1052,-7.1052,-7.0825,-7.0561,-7.0316,-7.0223,-6.9988,-6.9607,-6.943,-6.914,-6.8797,-6.8649,-6.8351,-6.7949,-6.7695,-6.7388,-6.7161,-6.6901,-6.6723,-6.6617,0.0,0.0,0.0,0.0,0.0,0.0,0.0,0.0,0.0,0.0,0.0,0.0,0.0,0.0,0.0,0.0,0.0,0.0,0.0,0.0,-4.9086,-4.9823,-4.9991,-5.0024,-4.992,-5.0392,-5.0526,-5.029,-5.0285,-5.0311,-5.0298,-5.0497,-5.0904,-5.1424,-5.1437,-5.1718,-5.2268,-5.3175,-5.3887,-5.447,0.0,0.0,0.0,0.0,0.0,0.0,0.0,0.0,0.0,0.0,0.0,0.0,0.0,0.0,0.0,-6.1002,-6.1119,-6.1417,-6.2875,-6.3315,-6.3723,-6.537,0.0,-6.5124,-6.5811,-6.6249,0.0,0.0,0.0,0.0,0.0,-6.6948,-6.732,-6.8064,-6.8842,-6.935,-6.935,-6.9992,-7.0466,-7.0466,-7.0973,-7.1312,-7.1312,-7.1312,-7.1312,-7.1312,-7.1312,-7.1312,-7.1312,-7.1312,-7.1312,-7.1312,-7.1222,-7.1131,-7.0916,-7.0779,-7.0779,-7.0825,-7.0515,-7.0363,-7.0176,-7.0129,-6.9846,-6.9415,-6.9334,-6.9042,-6.86,-6.855,-6.8251,-6.7746,-6.7491,-6.7213,-6.6901,-6.667,-6.6617,-6.6617,0.0,0.0,0.0,0.0,0.0,0.0,0.0,0.0,0.0,0.0,0.0,0.0,0.0,0.0,0.0,0.0,0.0,0.0,0.0,0.0,-4.9856,-5.0593,-5.1127,-5.1025,-5.0359,-5.0426,-5.0256,-4.9946,-5.0639,-5.1083,-5.1373,-5.1215,-5.1172,-5.1237,-5.1847,-5.2139,-5.23,-5.3725,-5.4341,-5.447,-5.515,0.0,0.0,0.0,0.0,0.0,0.0,0.0,0.0,0.0,0.0,0.0,0.0,0.0,-6.076,-6.1002,-6.1119,-6.1417,-6.2875,-6.3315,-6.3723,-6.537,-6.5746,0.0,-6.6335,-6.6464,0.0,-6.6728,0.0,0.0,0.0,-6.7354,-6.8098,-6.8876,-6.962,-7.0094,-7.0094,-7.077,-7.1244,-7.1244,-7.1278,-7.1312,-7.1312,-7.1312,-7.1312,-7.1312,-7.1312,-7.1312,-7.1312,-7.1312,-7.1312,-7.1312,-7.1052,-7.0916,-7.0916,-7.0456,-7.0363,-7.0515,-7.0316,-7.0223,-7.0176,-6.9941,-6.9703,-6.9382,-6.914,-6.8847,-6.86,-6.8351,-6.805,-6.7746,-6.7491,-6.7109,-6.6617,-6.6617,-6.6617,-6.6565,0.0,0.0,0.0,0.0,0.0,0.0,0.0,0.0,0.0,0.0,0.0,0.0,0.0,0.0,0.0,0.0,0.0,0.0,0.0,0.0,-4.9826,-5.1023,-5.1254,-5.1416,-5.1475,-5.1475,-5.1404,-5.1262,-5.1306,-5.1312,-5.1312,-5.1237,-5.1199,-5.1199,-5.1879,-5.2462,-5.2948,-5.3984,-5.4632,-5.5053,-5.5312,-5.5409,0.0,0.0,0.0,0.0,0.0,0.0,0.0,0.0,-5.976,-5.9935,0.0,-6.0463,-6.0591,-6.0961,-6.1119,-6.1417,-6.2875,-6.3315,-6.3733,-6.5544,-6.5999,0.0,0.0,-6.6592,-6.6686,-6.677,-6.6812,-6.6948,-6.7421,-6.8504,-6.9417,-6.9722,-7.0398,-7.0872,-7.0872,-7.1142,-7.1312,-7.1312,-7.1312,-7.1312,-7.1312,-7.1312,-7.1312,-7.1312,-7.1312,-7.1312,-7.1312,-7.1312,-7.1222,-7.1086,-7.0961,-7.0779,-7.0456,-7.027,-7.0129,-7.0049,-6.9988,-6.9941,-6.9941,-6.9703,-6.9382,-6.914,-6.8847,-6.86,-6.8351,-6.805,-6.7797,-6.7491,-6.7057,-6.6796,-6.6617,-6.6617,-6.6512,-6.6352,0.0,0.0,0.0,0.0,0.0,0.0,0.0,0.0,0.0,0.0,0.0,0.0,0.0,0.0,0.0,0.0,0.0,0.0,-4.9358,-4.9657,-5.0318,-5.1508,-5.1541,-5.1699,-5.2013,-5.1941,-5.1904,-5.1904,-5.1573,-5.135,-5.1199,-5.1199,-5.1297,-5.1523,-5.2236,-5.2981,-5.3693,-5.4405,-5.4988,-5.5409,-5.5409,-5.5539,0.0,0.0,0.0,0.0,0.0,0.0,0.0,0.0,0.0,0.0,0.0,0.0,0.0,-6.0961,-6.1119,-6.1417,-6.2875,-6.3315,-6.3733,0.0,0.0,0.0,-6.655,-6.6686,-6.6812,-6.6812,-6.7015,-6.7455,-6.8436,-6.9485,-7.0263,-7.05,-7.0973,-7.1312,-7.1312,-7.1312,-7.1312,-7.1312,-7.1312,-7.1312,-7.1312,-7.1312,-7.1312,-7.1312,-7.1312,-7.1312,-7.1312,-7.1222,-7.1086,-7.0916,-7.0733,-7.0502,-7.0176,-7.0082,-6.9988,-6.9798,-6.9798,-6.9798,-6.9798,-6.9526,-6.9237,-6.8994,-6.8699,-6.8401,-6.805,-6.7848,-6.7593,-6.7213,-6.6744,-6.6617,-6.6617,-6.6512,-6.6352,-6.6139,0.0,0.0,0.0,0.0,0.0,0.0,0.0,0.0,0.0,0.0,0.0,0.0,0.0,0.0,0.0,0.0,0.0,0.0,-5.0153,-5.0883,-5.1541,-5.2053,-5.2119,-5.1977,-5.1794,-5.161,-5.1499,-5.1499,-5.1312,-5.1199,-5.1199,-5.1237,-5.1556,-5.2236,-5.2981,-5.3725,-5.4438,-5.5118,-5.5409,-5.5409,-5.5409,-5.5863,-5.6575,0.0,0.0,0.0,0.0,0.0,0.0,0.0,-5.9716,0.0,0.0,0.0,0.0,-6.0961,-6.1119,-6.145,-6.2875,-6.3315,-6.3766,0.0,0.0,0.0,-6.6686,-6.6812,-6.6812,-6.6812,-6.7421,-6.8402,-6.9891,-7.0195,-7.0432,-7.1176,-7.1312,-7.1312,-7.1312,-7.1312,-7.1312,-7.1312,-7.1312,-7.1312,-7.1312,-7.1312,-7.1312,-7.1312,-7.1312,-7.1312,-7.1312,-7.1007,-7.0916,-7.087,-7.0456,-7.0176,-7.0209,-6.9941,-6.9798,-6.9798,-6.9798,-6.9798,-6.9798,-6.9526,-6.9237,-6.8994,-6.8699,-6.8301,-6.7797,-6.7797,-6.7491,-6.6953,-6.6691,-6.6617,-6.6565,-6.6299,-6.6192,-6.6085,0.0,0.0,0.0,0.0,0.0,0.0,0.0,0.0,0.0,0.0,0.0,0.0,0.0,0.0,0.0,0.0,0.0,0.0,-5.0465,-5.0761,-5.1152,-5.1871,-5.1904,-5.1794,-5.161,-5.1387,-5.1312,-5.1312,-5.1237,-5.1199,-5.1199,-5.1685,-5.2009,-5.2236,-5.3531,-5.4211,-5.4438,-5.5118,-5.5409,-5.5409,-5.5409,-5.5863,-5.6575,0.0,0.0,0.0,0.0,0.0,0.0,0.0,0.0,0.0,0.0,0.0,0.0,-6.0961,-6.145,-6.2047,-6.305,-6.3713,0.0,0.0,0.0,0.0,0.0,-6.6812,0.0,0.0,-6.8605,-6.9654,-7.0094,-7.0635,-7.1075,-7.1278,-7.1312,-7.1312,-7.1312,-7.1312,-7.1312,-7.1312,-7.1312,-7.1312,-7.1312,-7.1312,-7.1312,-7.1312,-7.1131,-7.1007,-7.1007,-7.0779,-7.0515,-7.041,-7.027,-7.0082,-6.9941,-6.9846,-6.9798,-6.9798,-6.9798,-6.9703,-6.9511,-6.9237,-6.8994,-6.8699,-6.8451,-6.8101,-6.7746,-6.7388,-6.7057,-6.6691,-6.667,-6.6512,-6.6299,-6.6192,-6.5924,-6.5515,0.0,0.0,0.0,0.0,0.0,0.0,0.0,0.0,0.0,0.0,0.0,0.0,0.0,0.0,0.0,0.0,0.0,0.0,0.0,-5.0943,-5.1299,-5.1651,-5.1684,-5.161,-5.1387,-5.1199,-5.1215,-5.1474,-5.155,-5.1588,-5.1588,-5.23,-5.2786,-5.311,-5.4017,-5.4567,-5.4826,-5.5247,-5.5409,-5.5442,-5.5733,-5.6284,0.0,0.0,0.0,0.0,0.0,0.0,0.0,0.0,0.0,0.0,0.0,0.0,0.0,-6.0961,-6.1616,-6.2387,-6.3116,0.0,0.0,0.0,0.0,-6.6196,-6.6929,0.0,0.0,0.0,-6.935,-7.0297,-7.0567,-7.1007,-7.1312,-7.1312,-7.1312,-7.1312,-7.1312,-7.1312,-7.1312,-7.1312,-7.1312,-7.1312,-7.1312,-7.1312,-7.1267,-7.1176,-7.1007,-7.087,-7.0779,-7.0502,-7.0316,-7.0176,-7.0082,-6.9941,-6.9798,-6.9798,-6.9798,-6.9798,-6.9703,-6.9478,-6.9237,-6.9091,-6.8847,-6.855,-6.8101,-6.7746,-6.7439,-6.7005,-6.6744,-6.6617,-6.6459,-6.6352,-6.6139,-6.5924,-6.5623,-6.5297,0.0,0.0,0.0,0.0,0.0,0.0,0.0,0.0,0.0,0.0,0.0,0.0,0.0,0.0,0.0,0.0,0.0,0.0,0.0,0.0,-5.161,-5.1462,-5.1424,-5.1345,-5.1259,-5.1069,-5.1308,-5.1952,-5.2081,-5.2197,-5.2223,-5.3039,-5.3718,-5.4365,-5.447,-5.4826,-5.5409,-5.5409,-5.5442,-5.5571,-5.6219,-5.6964,-5.7741,0.0,0.0,0.0,0.0,0.0,0.0,0.0,0.0,0.0,0.0,0.0,-6.0561,-6.106,-6.1748,-6.2553,0.0,0.0,0.0,0.0,0.0,0.0,-6.7329,-6.7791,-6.8233,-6.9045,-6.9789,-7.05,-7.1176,-7.1312,-7.1312,-7.1312,-7.1312,-7.1312,-7.1312,-7.1312,-7.1312,-7.1312,-7.1312,-7.1312,-7.1312,-7.1267,-7.1176,-7.0916,-7.087,-7.0733,-7.0469,-7.027,-7.0129,-7.0129,-6.9941,-6.9798,-6.9798,-6.9798,-6.9798,-6.9798,-6.9559,-6.9237,-6.8994,-6.8994,-6.8797,-6.8501,-6.7695,-6.7213,-6.7005,-6.6691,-6.6617,-6.6565,-6.6299,-6.6139,-6.6032,-6.5515,-6.5297,-6.5242,0.0,0.0,0.0,0.0,0.0,0.0,0.0,0.0,0.0,0.0,0.0,0.0,0.0,0.0,0.0,0.0,0.0,0.0,0.0,0.0,-5.0896,-5.101,-5.0858,-5.1038,-5.1506,-5.1499,-5.178,-5.2453,-5.1948,-5.2019,-5.2533,-5.3431,-5.393,-5.4124,-5.4875,-5.528,-5.5409,-5.5409,-5.5733,-5.6284,-5.6446,-5.7255,-5.8378,-5.854,-5.9025,0.0,0.0,0.0,0.0,0.0,0.0,0.0,-6.0249,-6.0771,-6.1392,-6.182,-6.2917,-6.3935,0.0,0.0,0.0,0.0,0.0,-6.6296,-6.7372,-6.8065,-6.8793,-6.9745,-7.0534,-7.1109,-7.1278,-7.1312,-7.1312,-7.1312,-7.1312,-7.1312,-7.1312,-7.1312,-7.1312,-7.1312,-7.1312,-7.1312,-7.1312,-7.1131,-7.0961,-7.0916,-7.0549,-7.0316,-7.027,-7.0035,-6.9893,-6.9893,-6.9846,-6.9798,-6.9798,-6.9798,-6.9798,-6.9798,-6.9559,-6.9237,-6.8994,-6.8797,-6.8451,-6.7949,-6.7336,-6.7057,-6.7005,-6.6691,-6.6459,-6.6246,-6.6192,-6.5924,-6.546,-6.5351,-6.5132,-6.4998,0.0,0.0,0.0,0.0,0.0,0.0,0.0,0.0,0.0,0.0,0.0,0.0,0.0,0.0,0.0,0.0,0.0,0.0,0.0,0.0,-5.0666,-5.0743,-5.0948,-5.1261,-5.1573,-5.1845,-5.2276,-5.2986,-5.2545,-5.2586,-5.3149,-5.3967,-5.4443,-5.4525,-5.5035,-5.5287,-5.5442,-5.5798,-5.6154,-5.6543,-5.7223,-5.7968,-5.8637,-5.8961,-5.9393,-5.9716,-5.9716,0.0,0.0,0.0,0.0,0.0,0.0,0.0,-6.2103,-6.2451,-6.3417,-6.4365,0.0,0.0,0.0,0.0,0.0,0.0,-6.7502,-6.8171,-6.8909,-7.0243,-7.0951,-7.1312,-7.1312,-7.1312,-7.1312,-7.1312,-7.1312,-7.1312,-7.1312,-7.1312,-7.1312,-7.1312,-7.1312,-7.1267,-7.1131,-7.0961,-7.0825,-7.0595,-7.0316,-7.0129,-6.9988,-6.9893,-6.9798,-6.9798,-6.9798,-6.9798,-6.9798,-6.9798,-6.9751,-6.9607,-6.9334,-6.8945,-6.8401,-6.8301,-6.8,-6.7593,-6.7213,-6.6901,-6.6796,-6.6512,-6.6299,-6.6139,-6.587,-6.5569,-6.5297,-6.5163,-6.4998,-6.4888,0.0,0.0,0.0,0.0,0.0,0.0,0.0,0.0,0.0,0.0,0.0,0.0,0.0,0.0,0.0,0.0,0.0,0.0,0.0,0.0,0.0,-5.0671,-5.1207,-5.1622,-5.1837,-5.225,-5.2803,-5.3502,-5.3334,-5.3418,-5.3761,-5.4441,-5.4822,-5.5031,-5.5201,-5.5398,-5.5636,-5.6381,-5.6737,-5.6964,-5.8119,-5.8669,-5.8831,-5.949,-5.9781,-5.9911,-5.9911,-5.9976,-6.0073,-6.0073,0.0,0.0,0.0,0.0,-6.2769,-6.3035,-6.3749,-6.452,0.0,0.0,0.0,0.0,0.0,0.0,-6.7678,-6.8259,-6.8908,-7.0477,-7.1052,-7.1267,-7.1312,-7.1312,-7.1312,-7.1312,-7.1312,-7.1312,-7.1312,-7.1312,-7.1312,-7.1312,-7.1267,-7.1176,-7.0916,-7.0825,-7.0595,-7.0223,-7.0129,-7.0035,-6.9798,-6.9798,-6.9798,-6.9798,-6.9798,-6.9798,-6.9798,-6.9798,-6.9655,-6.9415,-6.9091,-6.855,-6.7797,-6.7746,-6.7593,-6.7317,-6.7057,-6.6796,-6.6512,-6.6299,-6.6139,-6.5978,-6.546,-6.5297,-6.5187,-6.4998,-6.4888,-6.4888,0.0,0.0,0.0,0.0,0.0,0.0,0.0,0.0,0.0,0.0,0.0,0.0,0.0,0.0,0.0,0.0,0.0,0.0,0.0,0.0,0.0,-5.0937,-5.1032,-5.1625,-5.2891,-5.2944,-5.3323,-5.4019,-5.3976,-5.3988,-5.403,-5.4338,-5.4613,-5.4887,-5.5673,-5.614,-5.6413,-5.7126,-5.7773,-5.8313,-5.8508,-5.8961,-5.9587,-5.9684,-6.0105,-6.0656,-6.0656,-6.1044,-6.153,-6.153,-6.1595,0.0,0.0,0.0,-6.3297,-6.3747,-6.4374,-6.5057,0.0,0.0,0.0,0.0,0.0,0.0,0.0,0.0,-6.9315,-7.0348,-7.0779,-7.1007,-7.1267,-7.1312,-7.1312,-7.1312,-7.1312,-7.1312,-7.1312,-7.1312,-7.1312,-7.1312,-7.1098,-7.0916,-7.0916,-7.0549,-7.027,-7.0176,-6.9988,-6.9846,-6.9798,-6.9798,-6.9798,-6.9798,-6.9798,-6.9798,-6.9798,-6.9798,-6.9655,-6.9382,-6.8896,-6.8351,-6.7797,-6.7542,-6.7317,-6.7057,-6.6744,-6.6512,-6.6246,-6.6192,-6.587,-6.5406,-6.5351,-6.5132,-6.4943,-6.4888,-6.4888,-6.4888,0.0,0.0,0.0,0.0,0.0,0.0,0.0,0.0,0.0,0.0,0.0,0.0,0.0,0.0,0.0,0.0,0.0,0.0,0.0,0.0,0.0,-5.0812,-5.1568,-5.2303,-5.3092,-5.3471,-5.3787,-5.4103,-5.4103,0.0,0.0,-5.4758,-5.5016,-5.5389,-5.5762,-5.6401,-5.7158,-5.7871,-5.8356,-5.8637,-5.9025,-5.9684,-6.0332,-6.0332,-6.0753,-6.1368,-6.1368,-6.1562,-6.1821,-6.1821,-6.2081,-6.2404,-6.2574,0.0,0.0,0.0,-6.4518,-6.493,0.0,0.0,0.0,0.0,0.0,0.0,-6.8082,-6.8659,-6.9138,-7.0103,-7.041,-7.0595,-7.1007,-7.1222,-7.1312,-7.1312,-7.1312,-7.1312,-7.1312,-7.1176,-7.1086,-7.1086,-7.0825,-7.0641,-7.0502,-7.0316,-7.0129,-6.9988,-6.9893,-6.9798,-6.9798,-6.9798,-6.9798,-6.9798,-6.9798,-6.9798,-6.9798,-6.9225,-6.8591,-6.7766,-6.7622,-6.7368,-6.6965,-6.7125,-6.7109,-6.7005,-6.6565,-6.6299,-6.6139,-6.5817,-6.5515,-6.5297,-6.5132,-6.4998,-6.4888,-6.4888,-6.4888,-6.4888,0.0,0.0,0.0,0.0,0.0,0.0,0.0,0.0,0.0,0.0,0.0,0.0,0.0,0.0,0.0,0.0,0.0,0.0,0.0,0.0,0.0,-5.1132,-5.2103,-5.2816,-5.3291,-5.3765,-5.4155,-5.4356,0.0,0.0,-5.5399,-5.5442,-5.5768,-5.6349,-5.6349,-5.6895,-5.7903,-5.8615,-5.8961,-5.9187,-5.9781,-6.0429,-6.1044,-6.1044,-6.1465,-6.2081,-6.2081,-6.221,-6.2372,-6.2372,-6.2728,-6.3182,-6.3182,-6.3678,0.0,0.0,0.0,-6.4748,0.0,0.0,0.0,0.0,0.0,0.0,0.0,0.0,-6.9183,-6.9935,-7.0129,-7.0316,-7.0641,-7.0916,-7.1131,-7.1131,-7.1131,-7.1131,-7.1131,-7.0916,-7.0825,-7.0825,-7.0595,-7.0363,-7.0223,-7.0129,-6.9988,-6.9798,-6.9798,-6.9798,-6.9798,-6.9798,-6.9798,-6.9798,-6.9599,-6.95,-6.95,-6.8489,-6.7484,-6.6483,-6.6499,-6.6359,-6.6057,-6.6504,-6.6699,-6.649,-6.6258,-6.6085,-6.5924,-6.546,-6.5242,-6.5187,-6.4998,-6.4888,-6.4888,-6.4888,-6.4888,-6.4888,0.0,0.0,0.0,0.0,0.0,0.0,0.0,0.0,0.0,0.0,0.0,0.0,-4.8049,-4.8218,-4.8427,-4.8604,-4.8841,0.0,0.0,0.0,0.0,-5.2223,-5.2379,0.0,-5.3726,-5.3833,-5.4234,-5.5039,0.0,0.0,-5.6125,-5.6315,-5.6929,-5.7788,-5.7788,-5.8084,-5.8572,-5.936,-6.0073,-6.0688,-6.072,-6.1141,-6.1757,-6.1757,-6.221,-6.2825,-6.2825,-6.3279,-6.3894,-6.3894,-6.3926,-6.3959,-6.3959,-6.3991,-6.4038,0.0,0.0,0.0,0.0,0.0,0.0,0.0,0.0,0.0,0.0,0.0,-6.9732,-6.9798,-7.0035,-7.0209,-7.0223,-7.041,-7.0515,-7.0515,-7.0515,-7.0515,-7.0515,-7.0515,-7.0515,-7.0515,-7.0363,-7.0176,-7.0176,-6.9988,-6.9798,-6.9798,-6.9798,-6.9798,-6.9798,-6.9798,-6.9798,-6.9798,-6.9103,-6.8738,-6.8738,-6.7575,-6.6802,-6.6483,-6.5982,-6.5638,-6.5372,-6.5855,-6.5762,-6.5272,-6.591,-6.587,-6.5351,-6.5297,-6.5132,-6.4888,-6.4888,-6.4888,-6.4888,-6.4888,-6.4888,-6.4888,0.0,0.0,0.0,0.0,0.0,0.0,0.0,0.0,0.0,0.0,0.0,0.0,0.0,-4.8049,-4.8133,-4.8218,-4.8825,0.0,0.0,0.0,0.0,-5.2132,-5.2598,-5.3072,-5.354,-5.4154,-5.4587,0.0,0.0,-5.6157,-5.6852,-5.7077,-5.7726,-5.8588,-5.8285,-5.857,-5.9317,-6.0105,-6.0558,-6.085,-6.1271,-6.1854,-6.2502,-6.2502,-6.2955,-6.3603,-6.3603,-6.3797,-6.4024,-6.4024,-6.4024,-6.4024,-6.4024,-6.4024,-6.4024,-6.4085,-6.4565,-6.5157,0.0,0.0,0.0,0.0,0.0,-6.8236,-6.8983,-6.9361,-6.9607,-6.9751,-6.9893,-6.9941,-6.9941,-7.027,-7.0515,-7.0515,-7.0515,-7.0515,-7.0515,-7.041,-7.0316,-7.0316,-7.0082,-6.9941,-6.9941,-6.9846,-6.9798,-6.9798,-6.9798,-6.9798,-6.9798,-6.9798,-6.9566,-6.9103,-6.8837,-6.8101,-6.6851,-6.626,-6.5523,-6.4641,-6.4706,-6.4636,-6.442,-6.4665,-6.4569,-6.4236,-6.4742,-6.511,-6.5297,-6.5108,-6.4998,-6.4888,-6.4888,-6.4888,-6.4888,-6.4888,-6.4888,-6.4888,0.0,0.0,0.0,0.0,0.0,0.0,0.0,0.0,-4.7193,-4.7366,0.0,0.0,0.0,0.0,-4.797,-4.8298,-4.8852,-4.9494,-5.0199,-5.1059,-5.1775,-5.2211,-5.2675,-5.3179,-5.3663,-5.4322,0.0,0.0,0.0,0.0,0.0,-5.7897,-5.8422,-5.8972,-5.9105,-5.9487,-6.0105,-6.0591,-6.1077,-6.153,-6.1983,-6.2599,-6.3279,-6.3279,-6.357,-6.4024,-6.3897,-6.385,-6.3882,-6.4013,-6.4062,-6.4142,-6.4448,-6.4608,-6.4704,-6.4704,-6.5123,-6.5623,-6.5623,0.0,0.0,0.0,0.0,-6.8355,-6.909,-6.9237,-6.9285,-6.9478,-6.9526,-6.9526,-6.9526,-6.9765,-7.0049,-7.0236,-7.0236,-7.0236,-7.0236,-7.0176,-7.0082,-7.0082,-6.9893,-6.9798,-6.9798,-6.9798,-6.9798,-6.9798,-6.9798,-6.9798,-6.9798,-6.9566,-6.897,-6.7976,-6.793,-6.7103,-6.5423,-6.519,-6.4586,-6.3612,-6.3773,-6.3753,-6.3571,-6.3684,-6.3588,-6.336,-6.3814,-6.4282,-6.4792,-6.485,-6.4888,-6.4888,-6.4888,-6.4888,-6.4888,-6.4888,-6.4888,-6.4888,0.0,0.0,0.0,0.0,0.0,0.0,0.0,0.0,-4.6887,-4.6887,0.0,0.0,0.0,0.0,0.0,-4.8923,-4.9057,-4.9691,-5.1161,-5.1328,-5.1723,-5.2653,-5.276,0.0,0.0,0.0,0.0,0.0,0.0,0.0,0.0,0.0,-5.9004,-5.9113,-6.027,-6.0818,-6.085,-6.085,-6.166,-6.289,-6.2923,-6.3376,-6.4024,-6.4024,-6.4024,-6.3976,-6.374,-6.3612,-6.3693,-6.4077,-6.4252,-6.4429,-6.5381,-6.5852,-6.6096,-6.6096,-6.6129,-6.6129,0.0,0.0,0.0,-6.7574,-6.8111,-6.8649,-6.8945,-6.8994,-6.8994,-6.8994,-6.8994,-6.8994,-6.8994,-6.8994,-6.9188,-6.9703,-6.9798,-6.9798,-6.9798,-6.9798,-6.9798,-6.9798,-6.9798,-6.9798,-6.9798,-6.9798,-6.9765,-6.9765,-6.9765,-6.9765,-6.9732,-6.9036,-6.7976,-6.6506,-6.6291,-6.5699,-6.4702,-6.4426,-6.4053,-6.358,-6.3325,-6.3051,-6.279,-6.294,-6.2899,-6.2591,-6.3099,-6.3463,-6.3841,-6.458,-6.4888,-6.4888,-6.4888,-6.4888,-6.4888,-6.4888,-6.4888,-6.4888,0.0,0.0,0.0,0.0,0.0,-4.6358,-4.6535,-4.6653,-4.6668,0.0,0.0,0.0,-4.6785,-4.7391,-4.8237,-4.9326,-4.9883,-5.0396,-5.106,-5.1666,-5.2382,-5.3101,-5.3346,-5.3775,-5.4545,-5.5425,0.0,0.0,0.0,0.0,-5.8321,-5.8778,-5.926,-5.9818,-6.0509,-6.1368,-6.2307,-6.2307,-6.2534,-6.2923,-6.3473,-6.3829,-6.4024,-6.4024,-6.4024,-6.4041,-6.424,-6.4304,-6.4352,-6.4846,-6.497,-6.5052,-6.5574,-6.5852,-6.6096,-6.6096,-6.6485,-6.6906,-6.6906,0.0,0.0,0.0,0.0,0.0,-6.8649,-6.8699,-6.8748,-6.8945,-6.8994,-6.8994,-6.8994,-6.8994,-6.9042,-6.9188,-6.9237,-6.9285,-6.9478,-6.9478,-6.9607,-6.9798,-6.9798,-6.9798,-6.9798,-6.9798,-6.9566,-6.9036,-6.9003,-6.8771,-6.8241,-6.7512,-6.6858,-6.6324,-6.5489,-6.4899,-6.4426,-6.4006,-6.3628,-6.3325,-6.3051,-6.2759,-6.2464,-6.2154,-6.1996,-6.1925,-6.2093,-6.2509,-6.3133,-6.3841,-6.4426,-6.4888,-6.4888,-6.4888,-6.4888,-6.4888,-6.4888,-6.4888,0.0,0.0,0.0,0.0,0.0,-4.6135,-4.6269,-4.6358,-4.6447,0.0,0.0,0.0,-4.7376,-4.7865,-4.8565,-4.9613,-5.0078,-5.0711,-5.1606,-5.2276,-5.2948,-5.3682,-5.3975,-5.4453,-5.513,-5.5922,-5.6498,-5.6949,-5.7729,-5.8308,-5.8763,-5.9224,-5.9836,-6.0554,0.0,0.0,-6.289,-6.3214,-6.3344,-6.3408,-6.3829,-6.4024,-6.4056,-6.4315,-6.4445,-6.4462,-6.4787,-6.4897,-6.4944,-6.5331,-6.5676,-6.6052,-6.6355,-6.6574,-6.6822,-6.6921,-6.7294,-6.7618,-6.7618,-6.791,-6.8201,-6.8201,0.0,0.0,-6.8251,-6.8251,-6.8301,-6.8351,-6.8351,-6.8351,-6.8351,-6.8351,-6.8254,-6.7962,-6.8028,-6.8373,-6.9107,-6.9007,-6.8906,-6.9145,-6.8928,-6.881,-6.8871,-6.8904,-6.8705,-6.8274,-6.8241,-6.7943,-6.7168,-6.6705,-6.625,-6.5771,-6.5069,-6.4564,-6.4333,-6.3817,-6.3469,-6.3228,-6.2905,-6.2612,-6.2216,-6.1784,-6.1531,-6.141,-6.1433,-6.1933,-6.2856,-6.3256,-6.3995,-6.4888,-6.4888,-6.4888,-6.4888,-6.4888,-6.4888,-6.4888,0.0,0.0,-4.4472,-4.5663,-4.5895,-4.5895,-4.5895,-4.6046,-4.6209,0.0,-4.7033,-4.7815,-4.8509,-4.8568,-4.8955,-5.005,-5.0109,-5.0832,-5.2532,-5.2907,-5.3462,-5.4338,-5.4635,-5.5083,-5.5807,-5.6091,-5.6668,-5.762,-5.7903,-5.8483,-5.9412,-5.9926,-6.054,-6.1244,0.0,0.0,-6.3052,-6.3732,-6.4024,-6.4024,-6.4024,-6.4056,-6.4185,-6.4753,-6.5012,-6.511,-6.5346,-6.5404,-6.54,-6.5655,-6.6289,-6.7057,-6.7317,-6.7593,-6.7848,-6.8101,-6.8201,-6.8201,-6.8201,-6.8201,-6.8201,-6.8151,-6.8151,0.0,-6.7797,-6.7746,-6.7695,-6.7439,-6.7388,-6.7388,-6.7388,-6.7324,-6.7068,-6.6511,-6.6502,-6.7113,-6.8471,-6.8192,-6.7943,-6.8149,-6.7636,-6.7367,-6.7553,-6.7599,-6.7533,-6.7466,-6.7367,-6.7082,-6.6419,-6.6341,-6.594,-6.5087,-6.4793,-6.4518,-6.424,-6.377,-6.3389,-6.318,-6.2856,-6.2464,-6.2016,-6.1683,-6.1461,-6.1206,-6.0897,-6.1585,-6.2786,-6.2825,-6.3602,-6.4888,-6.4888,-6.4888,-6.4888,-6.4888,-6.4888,-6.4888,0.0,-4.4385,-4.4966,-4.575,-4.5895,-4.5895,-4.5895,-4.594,-4.6114,-4.6608,-4.7294,-4.8074,-4.8875,-4.8981,-4.9669,-5.1309,-5.1446,-5.1917,-5.2983,-5.3363,-5.3905,-5.4831,-5.5101,-5.5647,-5.6546,-5.6834,-5.7382,-5.8417,-5.8577,-5.9207,-6.0107,-6.0659,-6.1276,-6.2028,-6.264,0.0,-6.3797,-6.3959,-6.4024,-6.4024,-6.4024,-6.4347,-6.4833,-6.4915,-6.5239,-6.5608,-6.5984,-6.5988,-6.5861,-6.6248,-6.6701,-6.7057,-6.7317,-6.7593,-6.7848,-6.8101,-6.8201,-6.8201,-6.8201,-6.8201,-6.8151,-6.7949,-6.7899,0.0,-6.7542,-6.7491,-6.7439,-6.7388,-6.7388,-6.7388,-6.7388,-6.694,-6.6575,-6.6415,-6.5934,-6.5831,-6.655,-6.6728,-6.6903,-6.7141,-6.7057,-6.7086,-6.732,-6.7367,-6.7196,-6.6738,-6.6187,-6.579,-6.5624,-6.5478,-6.5186,-6.4793,-6.4518,-6.4193,-6.3723,-6.3469,-6.3148,-6.2856,-6.2414,-6.2116,-6.1966,-6.1512,-6.1226,-6.1195,-6.0949,-6.1525,-6.2819,-6.2794,-6.364,-6.4888,-6.4888,-6.4888,-6.4888,-6.4888,-6.4888,-6.4888,-4.4298,-4.4676,-4.5082,-4.5779,-4.5895,-4.5895,-4.5895,-4.6156,-4.6475,-4.6749,-4.7927,-4.9068,-4.9805,-5.0155,-5.0769,-5.1807,-5.2014,-5.2506,-5.3426,-5.3879,-5.4703,-5.5918,-5.6195,-5.6794,-5.7795,-5.7894,-5.8324,-5.9086,-5.9201,-5.9787,-6.0834,-6.1249,-6.187,-6.2684,-6.3112,-6.3541,-6.4024,-6.4024,-6.3897,-6.3835,-6.4332,-6.4736,-6.5044,-6.5691,-6.6029,-6.6299,-6.6569,-6.6465,-6.6269,-6.6544,-6.6723,-6.6849,-6.7109,-6.7317,-6.7491,-6.7899,-6.8,-6.8,-6.8,-6.8,-6.7949,-6.7644,-6.7593,0.0,0.0,-6.7109,-6.6953,-6.6796,-6.6691,-6.6459,-6.6112,-6.5816,-6.5342,-6.4678,-6.4469,-6.4338,-6.4252,-6.5029,-6.5674,-6.5914,-6.573,-6.569,-6.5969,-6.614,-6.6113,-6.5944,-6.5624,-6.5425,-6.5425,-6.5234,-6.4963,-6.4702,-6.4472,-6.41,-6.358,-6.3325,-6.3083,-6.2808,-6.2266,-6.1916,-6.1815,-6.1359,-6.1155,-6.1021,-6.0845,-6.1598,-6.2768,-6.2809,-6.3664,-6.4888,-6.4888,-6.4888,-6.4888,-6.4888,-6.4888,-6.4888,-4.4689,-4.4862,-4.5094,-4.5644,-4.573,-4.5788,-4.5904,-4.6367,-4.683,-4.7253,-4.8779,-5.0104,-5.0772,-5.141,-5.1948,-5.2318,-5.2738,-5.3343,-5.4298,-5.481,-5.5741,-5.7102,-5.7414,-5.7909,-5.8762,-5.8793,-5.9154,-5.9773,-5.9773,-6.0411,-6.1593,-6.1867,-6.2444,-6.3228,-6.3517,-6.3707,0.0,-6.3897,-6.3819,-6.379,-6.469,-6.5029,-6.5191,-6.6284,-6.6763,-6.6855,-6.6918,-6.6796,-6.6617,-6.6617,-6.6617,-6.667,-6.6901,-6.7005,-6.7109,-6.7593,-6.7695,-6.7695,-6.7695,-6.7695,-6.7644,-6.742,-6.7317,-6.7265,0.0,0.0,0.0,-6.6139,-6.5799,-6.5326,-6.4764,-6.4505,-6.3922,-6.2861,-6.2958,-6.2946,-6.2428,-6.3432,-6.4352,-6.469,-6.441,-6.4286,-6.461,-6.4872,-6.5099,-6.5336,-6.5336,-6.5336,-6.5336,-6.5144,-6.4918,-6.4656,-6.4379,-6.4006,-6.3564,-6.3325,-6.3002,-6.2661,-6.2166,-6.1815,-6.1481,-6.1257,-6.1,-6.0794,-6.0794,-6.1598,-6.2768,-6.2809,-6.3609,-6.4888,-6.4888,-6.4888,-6.4888,-6.4888,-6.4888,-6.4888,-4.4371,-4.4715,-4.507,-4.5155,-4.5184,-4.5356,-4.6003,-4.6146,-4.6852,-4.8758,-4.9927,-5.0801,-5.1439,-5.2078,-5.2843,-5.3574,-5.4502,-5.5381,-5.6295,-5.6639,-5.7166,-5.7861,-5.7912,-5.8197,-5.8793,-5.8793,-5.9371,-6.0509,-6.0509,-6.1101,-6.2319,-6.2534,-6.289,-6.3228,-6.3517,-6.3612,-6.366,-6.366,-6.3838,-6.4205,-6.4991,-6.5279,-6.5344,-6.6094,-6.6646,-6.6962,-6.6744,-6.6617,-6.6617,-6.6617,-6.6617,-6.667,-6.6901,-6.7005,-6.7057,-6.7368,-6.7439,-6.7439,-6.7439,-6.7439,-6.7388,-6.7109,-6.7057,-6.6901,-6.6406,0.0,-6.6139,-6.5808,0.0,-6.4764,-6.4671,0.0,0.0,-6.2705,-6.2195,-6.1878,-6.2016,-6.2428,-6.2952,-6.3661,-6.3692,-6.3865,-6.4333,-6.461,-6.4839,-6.5099,-6.5144,-6.5144,-6.5144,-6.4885,-6.461,-6.4379,-6.4132,-6.3755,-6.3276,-6.3228,-6.2808,-6.2116,-6.1784,-6.1512,-6.1206,-6.0949,-6.0845,-6.0794,-6.0794,-6.1598,-6.2799,-6.2778,-6.3617,-6.4888,-6.4888,-6.4888,-6.4888,-6.4888,-6.4888,-6.4888,-4.475,-4.4938,-4.5252,-4.5624,-4.5681,-4.5909,-4.6538,-4.7348,-4.8526,-5.0198,-5.1519,-5.2426,-5.2688,-5.3617,-5.442,-5.5031,-5.556,-5.609,-5.6621,-5.6937,-5.7535,-5.8529,-5.858,-5.9021,-5.9932,-5.9963,-6.0341,-6.1145,-6.1145,-6.1634,-6.2446,-6.2661,-6.2954,-6.3228,-6.3517,-6.358,-6.3612,-6.4031,-6.4142,-6.4133,-6.5217,-6.5562,-6.5555,-6.6377,-6.6751,-6.6744,-6.667,-6.6617,-6.6617,-6.6617,-6.6617,-6.6617,-6.6744,-6.6744,-6.6796,-6.7109,-6.7161,-6.7161,-6.7161,-6.7161,-6.7057,-6.667,-6.6565,-6.6459,-6.6,-6.5785,-6.5623,-6.5515,0.0,0.0,0.0,0.0,0.0,0.0,-6.1443,-6.1461,-6.1734,-6.2016,-6.2414,-6.3051,-6.3389,-6.377,-6.4254,-6.4426,-6.4564,-6.4839,-6.4839,-6.4839,-6.4839,-6.461,-6.4426,-6.43,-6.3959,-6.3612,-6.3228,-6.3051,-6.2661,-6.2016,-6.1734,-6.1461,-6.1155,-6.0897,-6.0794,-6.0824,-6.1196,-6.1919,-6.283,-6.3224,-6.4003,-6.4888,-6.4888,-6.4888,-6.4888,-6.4888,-6.4998,-6.5132,-4.5419,-4.5277,-4.5363,-4.6016,-4.613,-4.6386,-4.7182,-4.8623,-5.0083,-5.1449,-5.2636,-5.354,-5.3994,-5.5155,-5.6049,-5.6406,-5.7,-5.7503,-5.7773,-5.8041,-5.8677,-5.9773,-5.9804,-6.028,-6.1348,-6.1215,-6.1433,-6.1863,-6.1777,-6.1966,-6.2446,-6.2661,-6.2954,-6.3228,-6.3389,-6.3613,-6.3806,-6.4223,-6.4409,-6.4456,-6.544,-6.5825,-6.5974,-6.6606,-6.6744,-6.6617,-6.6617,-6.6617,-6.6617,-6.6512,-6.6512,-6.6459,-6.6374,-6.6374,-6.6374,-6.6586,-6.6638,-6.6638,-6.6638,-6.6638,-6.6533,-6.6161,-6.6085,-6.5947,-6.5646,-6.546,-6.5235,-6.494,-6.4135,0.0,0.0,0.0,-6.1379,-6.0886,0.0,-6.1206,-6.1531,-6.1765,-6.2116,-6.271,-6.3244,-6.377,-6.4193,-6.4193,-6.4333,-6.4564,-6.461,-6.461,-6.461,-6.4426,-6.4286,-6.4193,-6.3817,-6.3437,-6.3228,-6.2905,-6.2513,-6.1916,-6.1683,-6.141,-6.1052,-6.0897,-6.0794,-6.0824,-6.1515,-6.2176,-6.2814,-6.35,-6.4212,-6.4918,-6.5004,-6.5035,-6.5004,-6.4998,-6.5163,-6.5382,-4.632,-4.5717,-4.5493,-4.6187,-4.63,-4.6673,-4.7881,-4.9375,-5.0934,-5.2452,-5.2919,-5.3675,-5.5159,-5.649,-5.7358,-5.7722,-5.9146,-6.0166,-6.0449,-6.0816,-6.1262,-6.1898,-6.1898,-6.2171,-6.2679,-6.2381,-6.2301,-6.258,-6.2179,-6.2116,-6.2446,-6.2661,-6.2954,-6.3228,-6.3228,-6.358,-6.4188,-6.3988,-6.4533,-6.5563,-6.5595,-6.5954,-6.6586,-6.6586,-6.6617,-6.6617,-6.6617,-6.6617,-6.6565,-6.6299,-6.6192,-6.6139,-6.5808,-6.5754,-6.5754,-6.5754,-6.5754,-6.5754,-6.5754,-6.5754,-6.5754,-6.57,-6.57,-6.5646,-6.5406,-6.5297,-6.5056,-6.4049,-6.3318,-6.2641,-6.1963,-6.1286,-6.0824,-6.0794,-6.0794,0.0,0.0,-6.1582,-6.1885,-6.271,-6.3244,-6.3707,-6.3944,-6.4024,-6.4085,-6.4286,-6.43,-6.43,-6.43,-6.43,-6.4193,-6.4024,-6.3755,-6.3437,-6.3228,-6.2905,-6.2383,-6.1582,-6.1582,-6.1328,-6.0794,-6.0794,-6.0794,-6.0824,-6.1515,-6.2187,-6.2884,-6.3532,-6.4212,-6.4918,-6.5183,-6.53,-6.5269,-6.5297,-6.546,-6.5693,-4.6912,-4.6729,-4.6645,-4.6869,-4.7235,-4.805,-4.9679,-5.1059,-5.2231,-5.3194,-5.4806,-5.609,-5.6607,-5.7826,-5.8839,-5.9352,-5.9878,-6.0428,-6.088,-6.1186,-6.1519,-6.1989,-6.2177,-6.2449,-6.2825,-6.2876,-6.3068,-6.3329,-6.3338,-6.3299,-6.3141,-6.3557,-6.3547,-6.3228,-6.3854,-6.4174,-6.4235,-6.4944,-6.5389,-6.5658,-6.608,-6.6396,-6.6617,-6.6617,-6.6617,-6.6565,-6.6406,-6.6352,-6.6299,-6.5947,-6.5893,-6.5839,-6.5754,-6.57,-6.57,-6.57,-6.57,-6.57,-6.57,-6.57,-6.5646,-6.5483,-6.546,-6.5351,-6.5108,-6.5053,-6.4727,-6.3746,-6.3125,-6.2556,-6.1668,-6.1151,-6.0794,-6.0794,-6.0794,-6.1,0.0,-6.1916,-6.2315,-6.2759,-6.3099,-6.3324,-6.3264,-6.3279,-6.3098,-6.2658,-6.2672,-6.2672,-6.2672,-6.2672,-6.2853,-6.3246,-6.2824,-6.2812,-6.3228,-6.2759,-6.2216,-6.1582,-6.1582,-6.1308,-6.0794,-6.0794,-6.0794,-6.0824,-6.2001,-6.2624,-6.2889,-6.4034,-6.4771,-6.5183,-6.53,-6.5561,-6.5853,-6.5634,-6.5768,-6.6058,-4.8207,-4.819,-4.8106,-4.7909,-4.8555,-4.9567,-5.0972,-5.2164,-5.3286,-5.448,-5.6102,-5.7393,-5.7971,-5.8958,-5.9859,-6.0467,-6.073,-6.1166,-6.1765,-6.2074,-6.2354,-6.2718,-6.2933,-6.3262,-6.3564,-6.3694,-6.3888,-6.4078,-6.4162,-6.4126,-6.3868,-6.4356,-6.438,-6.3964,-6.4559,-6.4912,-6.497,-6.5574,-6.5857,-6.5985,-6.6575,-6.6805,-6.6837,-6.6982,-6.6919,-6.6784,-6.6766,-6.6596,-6.6322,-6.602,-6.5756,-6.5538,-6.546,-6.5406,-6.5406,-6.5406,-6.5406,-6.5406,-6.5406,-6.5406,-6.5406,-6.5187,-6.5077,-6.4912,-6.4746,-6.4482,-6.3948,-6.308,-6.2517,-6.1921,-6.1194,-6.084,-6.069,-6.0794,-6.0794,-6.1,0.0,-6.2066,-6.2418,-6.2409,-6.2668,-6.2795,-6.2737,-6.2617,-6.2307,-6.1854,-6.1821,-6.1821,-6.1821,-6.1821,-6.2016,-6.2469,-6.2216,-6.2332,-6.2812,-6.2565,-6.2166,-6.1734,-6.1633,-6.1359,-6.0949,-6.0845,-6.0794,-6.0824,-6.195,-6.2593,-6.2889,-6.4181,-6.4918,-6.53,-6.5561,-6.5862,-6.6175,-6.5964,-6.6079,-6.6403,-5.0118,-5.0041,-4.982,-4.9206,-5.0129,-5.114,-5.1731,-5.268,-5.4117,-5.6223,-5.6795,-5.7657,-5.9161,-5.9887,-6.0559,-6.1232,-6.1792,-6.2469,-6.3169,-6.3457,-6.3713,-6.4023,-6.4331,-6.461,-6.4888,-6.4785,-6.4764,-6.4764,-6.4632,-6.4595,-6.4563,-6.509,-6.5308,-6.5276,-6.5308,-6.5674,-6.623,-6.5833,-6.6017,-6.6659,-6.7054,-6.7197,-6.7268,-6.7683,-6.7613,-6.7331,-6.7627,-6.7298,-6.6651,-6.6375,-6.5885,-6.5304,-6.4998,-6.4888,-6.4888,-6.4888,-6.4832,-6.4832,-6.4832,-6.4832,-6.4832,-6.4832,-6.4635,-6.4382,-6.4382,-6.367,-6.2809,-6.2141,-6.1443,-6.0852,-6.0447,-6.0377,-6.0481,-6.0742,-6.0794,-6.1,-6.1531,-6.2066,-6.226,-6.1854,-6.1966,-6.2139,-6.2374,-6.2008,-6.1757,-6.1692,-6.1692,-6.1692,-6.1692,-6.1692,-6.1724,-6.1757,-6.1895,-6.2044,-6.2108,-6.228,-6.2234,-6.2016,-6.1734,-6.1461,-6.1155,-6.0949,-6.0794,-6.0824,-6.1515,-6.2187,-6.2884,-6.3942,-6.4709,-6.5404,-6.5982,-6.6206,-6.6206,-6.6206,-6.6354,-6.6617,-5.0118,-5.0379,-5.0747,-5.1028,-5.1337,-5.1759,-5.2377,-5.4317,-5.5852,-5.6451,-5.8176,-5.9538,-5.9916,-6.0763,-6.1614,-6.2529,-6.2972,-6.3594,-6.4426,-6.5044,-6.518,-6.4722,-6.5202,-6.5355,-6.4918,-6.5274,-6.5451,-6.5451,-6.588,-6.5796,-6.529,-6.5619,0.0,-6.5007,-6.5549,-6.5816,-6.6039,-6.6269,-6.6638,-6.7054,-6.7189,-6.7402,-6.7659,-6.8064,-6.8106,-6.7946,-6.7548,-6.733,-6.7026,-6.6282,-6.5892,-6.5676,-6.5042,-6.4721,-6.4524,-6.4524,-6.4356,-6.4218,-6.4218,-6.4218,-6.4218,-6.4218,-6.4162,-6.4075,-6.4075,-6.3533,-6.2754,-6.1836,-6.1304,-6.0829,-6.0213,-6.0302,-6.0481,-6.0742,-6.1155,-6.143,-6.1582,-6.2066,-6.2211,-6.1774,-6.1503,-6.1242,-6.0959,-6.1006,-6.085,-6.0299,-6.0267,-6.0267,-6.0267,-6.0267,-6.0494,-6.1044,-6.0706,-6.1052,-6.2108,-6.1804,-6.1761,-6.2016,-6.1916,-6.1664,-6.1206,-6.1103,-6.1,-6.0824,-6.1743,-6.2498,-6.3273,-6.4203,-6.5173,-6.5982,-6.6154,-6.6322,-6.6501,-6.6501,-6.6501,-6.6617,-5.1276,-5.1674,-5.2208,-5.2545,-5.3051,-5.3529,-5.3866,-5.5424,-5.6795,-5.7624,-5.9186,-6.0409,-6.0961,-6.1639,-6.2435,-6.3472,-6.3831,-6.4338,-6.5172,-6.5674,-6.5842,-6.5562,-6.6051,-6.618,-6.578,-6.6361,-6.6449,-6.6137,-6.6762,-6.6681,-6.6017,-6.6246,0.0,0.0,0.0,-6.6349,-6.6413,-6.6744,-6.7013,-6.7229,-6.7551,-6.7828,0.0,-6.8405,-6.8567,-6.8506,-6.8104,-6.7795,-6.7517,-6.6976,-6.6283,-6.5642,-6.5274,-6.4713,-6.4244,-6.4244,-6.4132,-6.3993,-6.3993,-6.3993,-6.3993,-6.3993,-6.388,-6.3766,-6.3766,-6.2954,-6.2001,-6.1443,-6.0711,-6.0089,-5.9834,-6.0039,-6.0324,-6.0742,-6.1257,-6.1582,-6.1582,-6.2066,-6.2084,-6.1217,-6.1105,-6.0747,-5.9858,-6.0077,-6.017,-5.9749,-5.9716,-5.9716,-5.9716,-5.9716,-5.9911,-6.0299,-6.0264,-6.0665,-6.166,-6.1551,-6.1719,-6.2166,-6.2066,-6.1866,-6.1563,-6.141,-6.1299,-6.1196,-6.1743,-6.2549,-6.35,-6.4178,-6.5116,-6.6206,-6.6322,-6.647,-6.6617,-6.6617,-6.6617,-6.6617,-5.2938,-5.3276,-5.3726,-5.3894,-5.4793,-5.558,-5.5892,-5.6475,-5.7481,-5.9171,-5.9994,-6.0874,-6.1977,-6.2485,-6.32,-6.415,-6.4573,-6.5084,-6.571,-6.6064,-6.6354,-6.6522,-6.684,-6.7012,-6.6919,-6.7454,-6.7509,-6.6854,-6.7454,-6.7407,-6.6744,0.0,0.0,0.0,0.0,0.0,0.0,-6.7256,-6.7331,-6.741,-6.8039,-6.8338,-6.8436,-6.8791,-6.8889,-6.8889,-6.8889,-6.852,-6.8027,-6.7877,-6.6813,-6.5513,-6.5364,-6.468,-6.3936,-6.3936,-6.3936,-6.388,-6.388,-6.388,-6.388,-6.388,-6.3652,-6.3481,-6.3481,-6.2232,-6.1104,-6.1104,-6.0027,-5.9153,-5.9476,-5.9827,-6.0197,-6.069,-6.1206,-6.1531,-6.1582,-6.2016,-6.186,-6.0503,-6.0803,0.0,-5.9178,-5.9452,-5.9716,-5.9716,-5.9716,-5.9716,-5.9716,-5.9716,-5.9716,-5.9716,-6.0077,-6.0514,-6.1084,-6.1408,-6.1867,-6.2396,-6.2166,-6.2016,-6.2016,-6.1734,-6.1617,-6.1588,-6.1619,-6.2441,-6.3744,-6.4016,-6.4967,-6.6291,-6.6501,-6.6617,-6.6617,-6.6617,-6.6617,-6.6617,-5.3613,-5.3585,-5.3978,-5.499,-5.5355,-5.6148,-5.7938,-5.8526,-5.8999,-5.9642,-6.0926,-6.1832,-6.2064,-6.3137,-6.4089,-6.4769,-6.5408,-6.6132,-6.7095,-6.7426,-6.7541,-6.7255,-6.7546,-6.7473,-6.6919,-6.7454,-6.7728,-6.7603,-6.8209,-6.8134,-6.7439,-6.7461,0.0,0.0,0.0,0.0,-6.7202,-6.7786,-6.8027,-6.8137,-6.8241,-6.8502,-6.8794,-6.8886,-6.8889,-6.8889,-6.8889,-6.8797,-6.8584,-6.7767,-6.6916,-6.6067,-6.5258,-6.4307,-6.3595,-6.3595,-6.3424,-6.3252,-6.3252,-6.3252,-6.3252,-6.3252,-6.3194,-6.3194,-6.3194,-6.2118,-6.1104,-6.1104,-6.0027,-5.9153,-5.9476,-5.9955,-6.0429,-6.0742,-6.1052,-6.1359,-6.1531,-6.1866,-6.168,-6.0725,-6.0897,-6.0587,-5.937,-5.9508,-5.9716,-5.9716,-5.9716,-5.9716,-5.9716,-5.9716,-5.9716,-5.9716,-5.9593,-6.0,-6.1084,-6.093,-6.1392,-6.2396,-6.2315,-6.2216,-6.2016,-6.1966,-6.1796,-6.1574,-6.1832,-6.2764,-6.4034,-6.4308,-6.526,-6.6501,-6.6586,-6.6617,-6.6617,-6.6617,-6.6617,-6.6617,-5.4655,-5.4878,-5.5442,-5.6547,-5.6971,-5.78,-5.9505,-6.0205,-6.0528,-6.071,-6.1852,-6.2732,-6.3051,-6.3989,-6.4828,-6.5477,-6.6153,-6.6762,-6.7457,-6.7789,-6.7997,-6.7928,-6.8221,-6.8274,-6.7935,-6.8396,-6.8525,-6.8321,-6.8799,-6.8697,-6.8166,-6.8166,-6.8008,-6.7692,0.0,-6.7526,-6.7762,-6.812,-6.8282,-6.8307,-6.8563,-6.8729,-6.8889,-6.8889,-6.8889,-6.8889,-6.8889,-6.8889,-6.8769,-6.8137,-6.7138,-6.608,-6.5397,-6.4322,-6.3309,-6.3309,-6.3194,-6.3079,-6.3079,-6.3079,-6.3079,-6.3079,-6.3079,-6.3079,-6.3079,-6.2331,-6.1523,-6.1194,-6.0326,-5.9627,-5.9536,-5.9849,-6.0302,-6.0534,-6.0949,-6.1308,-6.1531,-6.1866,-6.1631,-6.063,-6.085,-6.0587,-5.9236,-5.9496,-5.9716,-5.9716,-5.9716,-5.9716,-5.9716,-5.9716,-5.9716,-5.9716,-5.994,-6.0393,-6.1084,-6.1295,-6.1758,-6.2396,-6.2396,-6.2315,-6.2216,-6.2216,-6.2116,-6.2016,-6.216,-6.2807,-6.3857,-6.4716,-6.567,-6.6617,-6.6617,-6.6617,-6.6617,-6.6617,-6.6617,-6.6617,-5.6011,-5.646,-5.7087,-5.7976,-5.8689,-5.9497,-6.0736,-6.1545,-6.1977,-6.1924,-6.2691,-6.3486,-6.3917,-6.4718,-6.5418,-6.5978,-6.6629,-6.7121,-6.7487,-6.7789,-6.8119,-6.8386,-6.8713,-6.8889,-6.8889,-6.924,-6.9224,-6.8924,-6.9352,-6.9287,-6.8815,-6.8924,-6.8829,-6.8594,-6.839,-6.8287,-6.8263,-6.8443,-6.8493,-6.844,-6.8791,-6.8889,-6.8889,-6.883,-6.8772,-6.8772,-6.8713,-6.8772,-6.8772,-6.8358,-6.7236,-6.5908,-6.5498,-6.436,-6.3079,-6.3079,-6.3079,-6.3079,-6.3079,-6.3079,-6.3079,-6.3079,-6.3079,-6.3079,-6.3079,-6.257,-6.1912,-6.1253,-6.0446,-5.9837,-5.9566,-5.9773,-6.0092,-6.0324,-6.0794,-6.1206,-6.1512,-6.1765,-6.1482,-6.0359,-6.0709,-6.0494,-5.9132,-5.9363,-5.9628,-5.9716,-5.9716,-5.9716,-5.9716,-5.9716,-5.9716,-5.9716,-6.0429,-6.0916,-6.1116,-6.1756,-6.2204,-6.2396,-6.2396,-6.2396,-6.2396,-6.2396,-6.2396,-6.2396,-6.2396,-6.2911,-6.3825,-6.5071,-6.5996,-6.6617,-6.6617,-6.6617,-6.6617,-6.6617,-6.6617,-6.6617,-5.8021,-5.8078,-5.8334,-5.9051,-5.9679,-6.0369,-6.1369,-6.2553,-6.3255,-6.3018,-6.3482,-6.3917,-6.3975,-6.5128,-6.5948,-6.6007,-6.6629,-6.7121,-6.7487,-6.7789,-6.8119,-6.8386,-6.8713,-6.8889,-6.8889,-6.924,-6.9414,-6.9352,-6.9896,-6.9866,-6.9263,-6.9509,-6.913,-6.8233,-6.8614,-6.8613,-6.836,-6.8984,-6.9089,-6.8855,-6.8858,-6.8889,-6.8889,-6.8564,-6.8446,-6.8386,-6.8179,-6.8238,-6.8327,-6.7759,-6.6911,-6.5908,-6.5261,-6.4126,-6.3079,-6.3079,-6.3079,-6.3079,-6.3079,-6.3079,-6.3079,-6.3079,-6.3079,-6.3079,-6.3079,-6.257,-6.1912,-6.1253,-6.0086,-5.9297,-5.9476,-5.9773,-6.0092,-6.0324,-6.0638,-6.0949,-6.1206,-6.1461,-6.1233,-6.0101,-6.0424,-6.0308,-5.9132,-5.9197,-5.9419,-5.9673,-5.9716,-5.9716,-5.9716,-5.9716,-5.9716,-5.9716,-6.0429,-6.0916,-6.1116,-6.1756,-6.2204,-6.2396,-6.2396,-6.2396,-6.2396,-6.2396,-6.2396,-6.2396,-6.2396,-6.3168,-6.447,-6.5301,-6.5996,-6.6617,-6.6617,-6.6617,-6.6617,-6.6617,-6.6617,-6.6617,-5.8854,-5.8911,-5.9314,-6.0438,-6.0901,-6.1451,-6.2861,-6.3439,-6.3878,-6.4212,-6.4444,-6.4619,-6.4619,-6.5421,-6.6007,-6.6007,-6.6629,-6.706,-6.7182,-6.7729,-6.803,-6.8119,-6.8654,-6.8889,-6.8889,-6.9006,-6.9182,-6.9387,-6.9677,-6.9693,-6.9583,-6.9697,-6.954,-6.9177,-6.9174,-6.91,-6.8984,-6.9089,-6.9006,-6.8889,-6.8713,-6.8595,-6.8595,-6.8238,-6.8179,-6.8119,-6.803,-6.8179,-6.8358,-6.797,-6.703,-6.5849,-6.5202,-6.4126,-6.3079,-6.3079,-6.3079,-6.3079,-6.3079,-6.3079,-6.3079,-6.3079,-6.3079,-6.3079,-6.3079,-6.2869,-6.2391,-6.1343,-6.0027,-5.9153,-5.9261,-5.9667,-6.0069,-6.0144,-6.0512,-6.0897,-6.1155,-6.1461,-6.134,-6.0617,-6.0629,-6.0421,-5.9663,-5.9409,-5.9419,-5.9673,-5.9716,-5.9716,-5.9716,-5.9716,-5.9911,-6.0364,-6.1044,-6.1529,-6.1692,-6.2428,-6.2619,-6.2396,-6.2396,-6.2396,-6.2396,-6.2396,-6.2396,-6.2396,-6.2396,-6.2942,-6.397,-6.4632,-6.5376,-6.6027,-6.6438,-6.6617,-6.6617,-6.6617,-6.6617,-6.6617,-6.0359,-6.0384,-6.0732,-6.187,-6.2188,-6.2683,-6.383,-6.4183,-6.4473,-6.4938,-6.5124,-6.5158,-6.5158,-6.5694,-6.6007,-6.6132,-6.6691,-6.6999,-6.6999,-6.7608,-6.803,-6.803,-6.8595,-6.8889,-6.8889,-6.8889,-6.9006,-6.924,-6.9387,-6.9472,-6.9703,-6.9703,-6.9703,-6.9703,-6.9356,-6.924,-6.924,-6.9006,-6.883,-6.8772,-6.8535,-6.8327,-6.8238,-6.7939,-6.785,-6.785,-6.785,-6.7999,-6.8238,-6.809,-6.7089,-6.5908,-6.532,-6.4185,-6.3079,-6.3079,-6.3079,-6.3079,-6.3079,-6.3079,-6.3079,-6.3079,-6.3079,-6.3079,-6.3079,-6.3079,-6.272,-6.1373,-6.0206,-5.9338,-5.9129,-5.9613,-6.0016,-6.0016,-6.046,-6.0845,-6.1052,-6.141,-6.1433,-6.0926,-6.0691,-6.0422,-5.994,-5.9479,-5.9331,-5.9552,-5.9673,-5.9716,-5.9716,-5.9716,-6.004,-6.0785,-6.1465,-6.1916,-6.2108,-6.2844,-6.2937,-6.2396,-6.2396,-6.2396,-6.2396,-6.2396,-6.2396,-6.2396,-6.2396,-6.2798,-6.3535,-6.4011,-6.4748,-6.567,-6.6143,-6.6438,-6.6586,-6.6354,-6.6322,-6.6291,-6.3051,-6.3051,-6.3051,-6.308,-6.3603,-6.3946,-6.3975,-6.4561,-6.4967,-6.4996,-6.5285,-6.5475,-6.5475,-6.5819,-6.6132,-6.6444,-6.6814,-6.6999,-6.6999,-6.7608,-6.803,-6.803,-6.8595,-6.8889,-6.8889,-6.8889,-6.8889,-6.8889,-6.924,-6.9387,-6.9414,-6.9414,-6.9414,-6.9387,-6.9065,-6.8889,-6.8889,-6.8889,-6.8713,-6.8386,-6.8386,-6.8238,-6.797,-6.7669,-6.7487,-6.7487,-6.7487,-6.7729,-6.803,-6.803,-6.7089,-6.5908,-6.5615,-6.436,-6.3079,-6.3079,-6.3079,-6.3079,-6.3079,-6.3079,-6.3079,-6.3079,-6.3079,-6.3079,-6.3079,-6.3079,-6.272,-6.1373,-6.0565,-5.9877,-5.9219,-5.9613,-6.0016,-6.0016,-6.046,-6.0794,-6.0794,-6.1226,-6.1333,-6.0677,-6.0401,-6.0139,-5.9708,-5.9284,-5.9062,-5.9286,-5.9552,-5.9716,-5.9716,-5.9716,-6.004,-6.0785,-6.1465,-6.1916,-6.2108,-6.2844,-6.2937,-6.2396,-6.2396,-6.2396,-6.2396,-6.2396,-6.2396,-6.2396,-6.2396,-6.2798,-6.349,-6.3521,-6.433,-6.5586,-6.5586,-6.6027,-6.6501,-6.5849,-6.5586,-6.5523,-6.308,-6.308,-6.3225,-6.3661,-6.3893,-6.4246,-6.4935,-6.5232,-6.5412,-6.563,-6.5756,-6.5945,-6.6195,-6.6257,-6.6382,-6.6506,-6.6814,-6.6999,-6.6999,-6.7608,-6.803,-6.803,-6.8595,-6.8889,-6.8889,-6.8889,-6.8889,-6.8889,-6.9006,-6.9065,-6.9065,-6.9065,-6.9065,-6.9065,-6.8948,-6.8889,-6.8889,-6.8654,-6.8505,-6.8327,-6.7939,-6.7699,-6.7608,-6.7304,-6.7182,-6.7182,-6.7426,-6.7729,-6.803,-6.803,-6.7089,-6.5908,-6.5615,-6.4419,-6.3079,-6.3079,-6.3079,-6.3079,-6.3079,-6.3079,-6.3079,-6.3079,-6.3079,-6.3079,-6.3079,-6.272,-6.2301,-6.1882,-6.0864,-6.0027,-5.9817,-5.9915,-6.0016,-6.0016,-6.046,-6.0794,-6.0794,-6.1257,-6.152,-6.1301,-6.0683,-6.0297,-6.0344,-5.9539,-5.9062,-5.9286,-5.9552,-5.9716,-5.9716,-6.017,-6.0785,-6.1465,-6.2178,-6.2658,-6.2844,-6.31,-6.2937,-6.2396,-6.2396,-6.2396,-6.2396,-6.2396,-6.2396,-6.2396,-6.2396,-6.2509,-6.2798,-6.3313,-6.3739,-6.4222,-6.4685,-6.4967,-6.5145,-6.4935,-6.483,-6.4824,-6.3806,-6.3806,-6.3922,-6.4328,-6.4386,-6.4658,-6.5353,-6.568,-6.5982,-6.6298,-6.6516,-6.6612,-6.6862,-6.6778,-6.6691,-6.6691,-6.6876,-6.6999,-6.6999,-6.7487,-6.7789,-6.7789,-6.8417,-6.8713,-6.8713,-6.883,-6.8889,-6.8889,-6.8889,-6.8889,-6.8889,-6.8889,-6.883,-6.8713,-6.8713,-6.8654,-6.8535,-6.8358,-6.8179,-6.8059,-6.7638,-6.7426,-6.7304,-6.7121,-6.706,-6.7243,-6.7548,-6.791,-6.8119,-6.8119,-6.7177,-6.5908,-6.5615,-6.4419,-6.3079,-6.3079,-6.3079,-6.3079,-6.3079,-6.3079,-6.3079,-6.3079,-6.3079,-6.3079,-6.3079,-6.275,-6.2391,-6.2151,-6.1433,-6.0685,-6.0176,-6.0247,-6.0289,-6.0047,-6.046,-6.0794,-6.0794,-6.1257,-6.1582,-6.1582,-6.0809,-6.0345,-6.0535,-5.9529,-5.8927,-5.9152,-5.9677,-6.0016,-6.0137,-6.0558,-6.1239,-6.2178,-6.2663,-6.3013,-6.3228,-6.3228,-6.2937,-6.2396,-6.2396,-6.2396,-6.2396,-6.2396,-6.2396,-6.2396,-6.2396,-6.2396,-6.2446,-6.2911,-6.3232,-6.3535,-6.3968,-6.4306,-6.4484,-6.4192,-6.4108,-6.407,-6.4996,-6.4996,-6.4996,-6.4996,-6.4996,-6.5124,-6.5533,-6.6153,-6.6691,-6.7103,-6.739,-6.7549,-6.7549,-6.7202,-6.6999,-6.6999,-6.6999,-6.6999,-6.6999,-6.7304,-6.7487,-6.7487,-6.8059,-6.8386,-6.8386,-6.8713,-6.883,-6.883,-6.883,-6.883,-6.883,-6.883,-6.8654,-6.8386,-6.8386,-6.8238,-6.803,-6.797,-6.7789,-6.7487,-6.7487,-6.7304,-6.6999,-6.6999,-6.7182,-6.7487,-6.785,-6.8119,-6.8327,-6.8327,-6.7295,-6.5908,-6.5556,-6.436,-6.3079,-6.3079,-6.3079,-6.3079,-6.3079,-6.3079,-6.3079,-6.3079,-6.3079,-6.3079,-6.3079,-6.3079,-6.2899,-6.2301,-6.2121,-6.1702,-6.0446,-6.0584,-6.0691,-6.0168,-6.049,-6.0794,-6.0845,-6.1308,-6.1582,-6.1633,-6.089,-6.036,-6.036,-5.9393,-5.886,-5.9132,-5.9968,-6.058,-6.0947,-6.0947,-6.153,-6.2858,-6.2955,-6.3077,-6.3228,-6.3228,-6.2937,-6.2396,-6.2396,-6.2396,-6.2396,-6.2396,-6.2396,-6.2396,-6.2396,-6.2396,-6.2396,-6.2396,-6.2798,-6.3408,-6.3408,-6.3811,-6.4278,-6.3634,-6.3408,-6.3345,-6.4996,-6.4996,-6.4996,-6.4996,-6.4996,-6.5333,-6.6466,-6.6765,-6.7284,-6.8359,-6.816,-6.7894,-6.7894,-6.7326,-6.6999,-6.6999,-6.6999,-6.6999,-6.6999,-6.7304,-6.7487,-6.7487,-6.7879,-6.8059,-6.8059,-6.8179,-6.8209,-6.8209,-6.8209,-6.8209,-6.8209,-6.8209,-6.8209,-6.8059,-6.8059,-6.809,-6.797,-6.7729,-6.7608,-6.7487,-6.7243,-6.706,-6.6999,-6.6999,-6.706,-6.7182,-6.7487,-6.7669,-6.7699,-6.7699,-6.6762,-6.5556,-6.5202,-6.4185,-6.3079,-6.3079,-6.3079,-6.3079,-6.3079,-6.3079,-6.3079,-6.3079,-6.3079,-6.3079,-6.3079,-6.3079,-6.3019,-6.2869,-6.245,-6.2002,-6.1672,-6.1217,-6.0843,-6.0691,-6.0766,-6.0845,-6.1052,-6.141,-6.1714,-6.1916,-6.146,-6.115,-6.115,-6.0567,-6.0293,-6.0558,-6.0995,-6.1579,-6.2372,-6.2404,-6.2534,-6.289,-6.3441,-6.3688,-6.3517,-6.3325,-6.2937,-6.2396,-6.2396,-6.2396,-6.2396,-6.2396,-6.2396,-6.2396,-6.2396,-6.2396,-6.2396,-6.2396,-6.2509,-6.2653,-6.2653,-6.2766,-6.2879,-6.2735,-6.2653,-6.2622,-6.4996,-6.4996,-6.4996,-6.4996,-6.4996,-6.5304,-6.6163,-6.6584,-6.7098,-6.8181,-6.8008,-6.7832,-6.7956,-6.7388,-6.6999,-6.6999,-6.6999,-6.6999,-6.6999,-6.7182,-6.7304,-6.7304,-6.7608,-6.7789,-6.7789,-6.791,-6.803,-6.803,-6.803,-6.803,-6.803,-6.803,-6.791,-6.7789,-6.7789,-6.7669,-6.7548,-6.7365,-6.7304,-6.7243,-6.706,-6.6999,-6.6999,-6.6999,-6.7121,-6.7243,-6.7426,-6.7608,-6.7729,-6.7548,-6.6613,-6.5439,-6.5083,-6.4126,-6.3079,-6.3079,-6.3079,-6.3079,-6.3079,-6.3079,-6.3079,-6.3079,-6.3079,-6.3079,-6.3079,-6.3079,-6.3079,-6.3079,-6.278,-6.245,-6.2151,-6.1911,-6.1601,-6.0994,-6.1133,-6.1267,-6.1216,-6.1461,-6.1683,-6.1966,-6.1667,-6.1403,-6.1403,-6.0979,-6.0803,-6.107,-6.1638,-6.2238,-6.2858,-6.3214,-6.3408,-6.3408,-6.3797,-6.385,-6.358,-6.3196,-6.2808,-6.2396,-6.2396,-6.2396,-6.2396,-6.2396,-6.2396,-6.2396,-6.2396,-6.2396,-6.2396,-6.2396,-6.2396,-6.2396,-6.2396,-6.2396,-6.2396,-6.2396,-6.2396,-6.2396,-6.4996,-6.4996,-6.4996,-6.4996,-6.4996,-6.5153,-6.5621,-6.6119,-6.6755,-6.7479,-6.7482,-6.7549,-6.7894,-6.7326,-6.6937,-6.6999,-6.6999,-6.6999,-6.6999,-6.6999,-6.6999,-6.6999,-6.7304,-6.7426,-6.7426,-6.7729,-6.785,-6.785,-6.785,-6.785,-6.785,-6.785,-6.7729,-6.7426,-6.7426,-6.7304,-6.6999,-6.6999,-6.6999,-6.6999,-6.6999,-6.6999,-6.6999,-6.6999,-6.7182,-6.7426,-6.7426,-6.7608,-6.7789,-6.7548,-6.6523,-6.538,-6.5083,-6.4126,-6.3079,-6.3079,-6.3079,-6.3079,-6.3079,-6.3079,-6.3079,-6.3079,-6.3079,-6.3079,-6.3079,-6.3079,-6.3079,-6.3079,-6.3079,-6.2899,-6.2361,-6.263,-6.2481,-6.1237,-6.15,-6.1668,-6.1299,-6.1461,-6.1683,-6.2016,-6.1761,-6.1561,-6.1561,-6.1233,-6.1122,-6.1389,-6.2184,-6.2787,-6.3052,-6.3667,-6.4024,-6.4024,-6.4024,-6.385,-6.3564,-6.3051,-6.2661,-6.2396,-6.2396,-6.2396,-6.2396,-6.2396,-6.2396,-6.2396,-6.2396,-6.2396,-6.2396,-6.2396,-6.2396,-6.2396,-6.2396,-6.2396,-6.2396,-6.2396,-6.2396,-6.2396,-6.4996,-6.4996,-6.4996,-6.4996,-6.4996,-6.5298,-6.6236,-6.6411,-6.6867,-6.7782,-6.7432,-6.7234,-6.7549,-6.6954,-6.6691,-6.6999,-6.6999,-6.6999,-6.6999,-6.6999,-6.6999,-6.6999,-6.706,-6.706,-6.706,-6.7121,-6.7182,-6.7182,-6.7182,-6.7182,-6.7182,-6.7182,-6.7121,-6.706,-6.706,-6.706,-6.6999,-6.6999,-6.6999,-6.6999,-6.6999,-6.6999,-6.6999,-6.6999,-6.706,-6.706,-6.706,-6.7121,-6.7182,-6.7121,-6.6162,-6.5083,-6.5024,-6.4126,-6.3079,-6.3079,-6.3079,-6.3079,-6.3079,-6.3079,-6.3079,-6.3079,-6.3079,-6.3079,-6.3079,-6.3079,-6.3079,-6.3079,-6.3079,-6.3049,-6.2929,-6.2932,-6.2632,-6.1844,-6.1806,-6.172,-6.1523,-6.1582,-6.1784,-6.2266,-6.227,-6.2207,-6.2207,-6.2407,-6.2587,-6.2828,-6.3212,-6.3514,-6.3829,-6.3959,-6.4024,-6.4024,-6.4024,-6.3755,-6.3276,-6.2954,-6.2661,-6.2396,-6.2396,-6.2396,-6.2396,-6.2396,-6.2396,-6.2396,-6.2396,-6.2396,-6.2396,-6.2396,-6.2396,-6.2396,-6.2396,-6.2396,-6.2396,-6.2396,-6.2396,-6.2396,-6.4996,-6.4996,-6.4996,-6.4996,-6.4996,-6.5147,-6.5659,-6.5688,-6.5932,-6.6608,-6.6373,-6.6323,-6.6638,-6.6559,-6.6568,-6.6753,-6.6876,-6.6999,-6.6999,-6.6999,-6.6999,-6.6999,-6.6999,-6.6999,-6.6999,-6.6999,-6.6999,-6.6999,-6.6999,-6.6999,-6.6999,-6.6999,-6.6999,-6.6999,-6.6999,-6.6999,-6.6999,-6.6999,-6.6999,-6.6999,-6.6999,-6.6999,-6.6999,-6.6999,-6.6999,-6.6999,-6.6999,-6.6999,-6.6939,-6.658,-6.5832,-6.4964,-6.4605,-6.3827,-6.3079,-6.3079,-6.3079,-6.3079,-6.3079,-6.3079,-6.3079,-6.3079,-6.3079,-6.3079,-6.3079,-6.3079,-6.3079,-6.3079,-6.3079,-6.3079,-6.3079,-6.3324,-6.3264,-6.2541,-6.2418,-6.2223,-6.196,-6.173,-6.1765,-6.2116,-6.2315,-6.2396,-6.2396,-6.2759,-6.3083,-6.318,-6.3564,-6.385,-6.4024,-6.385,-6.3802,-6.3802,-6.3802,-6.3517,-6.3002,-6.2856,-6.2661,-6.2396,-6.2396,-6.2396,-6.2396,-6.2396,-6.2396,-6.2396,-6.2396,-6.2396,-6.2396,-6.2396,-6.2396,-6.2396,-6.2396,-6.2396,-6.2396,-6.2396,-6.2396,-6.2396,-6.4804,-6.4804,-6.4804,-6.4804,-6.4804,-6.4804,-6.4868,-6.4868,-6.4996,-6.5348,-6.5348,-6.5475,-6.5882,-6.6132,-6.6319,-6.6382,-6.6691,-6.6876,-6.6876,-6.6937,-6.6999,-6.6999,-6.6999,-6.6999,-6.6999,-6.6999,-6.6999,-6.6999,-6.6999,-6.6999,-6.6999,-6.6999,-6.6999,-6.6999,-6.6999,-6.6999,-6.6999,-6.6999,-6.6999,-6.6999,-6.6999,-6.6999,-6.6999,-6.6999,-6.6999,-6.6999,-6.6999,-6.6999,-6.6879,-6.6221,-6.5562,-6.4904,-6.4216,-6.3588,-6.3079,-6.3079,-6.3079,-6.3079,-6.3079,-6.3079,-6.3079,-6.3079,-6.3079,-6.3079,-6.3079,-6.3079,-6.3079,-6.3079,-6.3079,-6.3079,-6.3079,-6.3538,-6.3694,-6.2996,-6.2768,-6.2579,-6.2217,-6.1814,-6.1683,-6.1966,-6.2216,-6.2396,-6.2396,-6.2808,-6.3131,-6.318,-6.3564,-6.385,-6.3897,-6.366,-6.3517,-6.3389,-6.3389,-6.3196,-6.2808,-6.2759,-6.2612,-6.2396,-6.2396,-6.2396,-6.2396,-6.2396,-6.2396,-6.2396,-6.2396,-6.2396,-6.2396,-6.2396,-6.2396,-6.2396,-6.2396,-6.2396,-6.2396,-6.2396,-6.2396,-6.2396,-6.4095,-6.4095,-6.4095,-6.4095,-6.4095,-6.416,-6.4483,-6.4576,-6.4676,-6.4996,-6.506,-6.5158,-6.5475,-6.5538,-6.5664,-6.6007,-6.6319,-6.6568,-6.6568,-6.6814,-6.6999,-6.6999,-6.6999,-6.6999,-6.6999,-6.6999,-6.6999,-6.6999,-6.6999,-6.6999,-6.6999,-6.6999,-6.6999,-6.6999,-6.6999,-6.6999,-6.6999,-6.6999,-6.6999,-6.6999,-6.6999,-6.6999,-6.6999,-6.6999,-6.6999,-6.6999,-6.6999,-6.6999,-6.6879,-6.6221,-6.5562,-6.4904,-6.4216,-6.3588,-6.3079,-6.3079,-6.3079,-6.3079,-6.3079,-6.3079,-6.3079,-6.3079,-6.3079,-6.3079,-6.3079,-6.3079,-6.3079,-6.3079,-6.3079,-6.3079,-6.3079,-6.3367,-6.3411,-6.2996,-6.2634,-6.2396,-6.2217,-6.1814,-6.1683,-6.1966,-6.2216,-6.2396,-6.2396,-6.2661,-6.2905,-6.318,-6.3228,-6.3373,-6.3612,-6.3373,-6.3131,-6.2856,-6.2856,-6.2856,-6.2808,-6.2562,-6.2414,-6.2396,-6.2396,-6.2396,-6.2396,-6.2396,-6.2396,-6.2396,-6.2396,-6.2396,-6.2396,-6.2396,-6.2396,-6.2396,-6.2396,-6.2396,-6.2396,-6.2396,-6.2396,-6.2396,-6.403,-6.403,-6.403,-6.403,-6.403,-6.403,-6.416,-6.416,-6.4289,-6.4612,-6.4676,-6.4804,-6.5158,-6.5348,-6.5538,-6.5664,-6.6007,-6.6195,-6.6195,-6.6506,-6.6814,-6.6999,-6.6999,-6.6999,-6.6999,-6.6999,-6.6999,-6.6999,-6.6999,-6.6999,-6.6999,-6.6999,-6.6999,-6.6999,-6.6999,-6.6999,-6.6999,-6.6999,-6.6999,-6.6999,-6.6999,-6.6999,-6.6999,-6.6999,-6.6999,-6.6999,-6.6999,-6.6729,-6.6281,-6.5622,-6.4934,-6.4276,-6.3617,-6.3258,-6.3079,-6.3079,-6.3079,-6.3079,-6.3079,-6.3079,-6.3079,-6.3079,-6.3079,-6.3079,-6.3079,-6.3079,-6.3079,-6.3079,-6.3079,-6.3079,-6.3079,-6.3309,-6.3505,-6.3572,-6.3244,-6.2901,-6.2624,-6.2207,-6.1928,-6.1746,-6.2016,-6.2216,-6.2365,-6.2661,-6.2856,-6.2954,-6.3131,-6.3228,-6.3373,-6.3099,-6.2808,-6.2562,-6.2562,-6.2562,-6.2562,-6.2464,-6.2396,-6.2396,-6.2396,-6.2396,-6.2396,-6.2396,-6.2396,-6.2396,-6.2396,-6.2396,-6.2396,-6.2396,-6.2396,-6.2396,-6.2396,-6.2396,-6.2396,-6.2396,-6.2396,-6.2396,-6.3638,-6.3638,-6.3638,-6.3638,-6.3638,-6.3704,-6.3834,-6.3834,-6.3965,-6.4289,-6.4354,-6.4483,-6.4804,-6.506,-6.5222,-6.5348,-6.5694,-6.5819,-6.5819,-6.6132,-6.6568,-6.6999,-6.6999,-6.6999,-6.6999,-6.6999,-6.6999,-6.6999,-6.6999,-6.6999,-6.6999,-6.6999,-6.6999,-6.6999,-6.6999,-6.6999,-6.6999,-6.6999,-6.6999,-6.6999,-6.6999,-6.6999,-6.6999,-6.6999,-6.6999,-6.6999,-6.6999,-6.658,-6.5922,-6.5263,-6.4575,-6.3887,-6.3258,-6.3079,-6.3079,-6.3079,-6.3079,-6.3079,-6.3079,-6.3079,-6.3079,-6.3079,-6.3079,-6.3079,-6.3079,-6.3079,-6.3079,-6.3079,-6.3079,-6.3079,-6.3079,-6.3252,-6.3481,-6.3823,-6.3498,-6.3104,-6.2703,-6.2399,-6.2084,-6.1625,-6.1866,-6.2116,-6.2365,-6.2562,-6.271,-6.2808,-6.2905,-6.2937,-6.2937,-6.2759,-6.2612,-6.2446,-6.2396,-6.2396,-6.2396,-6.2396,-6.2396,-6.2396,-6.2396,-6.2396,-6.2396,-6.2396,-6.2396,-6.2396,-6.2396,-6.2396,-6.2396,-6.2396,-6.2396,-6.2396,-6.2396,-6.2396,-6.2396,-6.2396,-6.2396,-6.2396,-6.2942,-6.2942,-6.2942,-6.2942,-6.2942,-6.298,-6.3348,-6.3413,-6.3545,-6.3965,-6.403,-6.4095,-6.4418,-6.4512,-6.4612,-6.4996,-6.5285,-6.5475,-6.5475,-6.5819,-6.6319,-6.6999,-6.6999,-6.6999,-6.6999,-6.6999,-6.6999,-6.6999,-6.6999,-6.6999,-6.6999,-6.6999,-6.6999,-6.6999,-6.6999,-6.6999,-6.6999,-6.6999,-6.6999,-6.6999,-6.6999,-6.6999,-6.6999,-6.6999,-6.6999,-6.6999,-6.6999,-6.658,-6.5892,-6.5233,-6.4575,-6.3887,-6.3258,-6.3079,-6.3079,-6.3079,-6.3079,-6.3079,-6.3079,-6.3079,-6.3079,-6.3079,-6.3079,-6.3079,-6.3079,-6.3079,-6.3079,-6.3079,-6.3079,-6.3079,-6.3079,-6.3079,-6.3194,-6.3481,-6.3161,-6.2773,-6.2463,-6.2324,-6.2032,-6.1625,-6.1866,-6.2116,-6.2365,-6.2396,-6.2513,-6.2808,-6.2562,-6.2396,-6.2396,-6.2396,-6.2396,-6.2396,-6.2396,-6.2396,-6.2396,-6.2396,-6.2396,-6.2396,-6.2396,-6.2396,-6.2396,-6.2396,-6.2396,-6.2396,-6.2396,-6.2396,-6.2396,-6.2396,-6.2396,-6.2396,-6.2396,-6.2396,-6.2396,-6.2396,-6.2396,-6.2396,-6.2942,-6.2942,-6.2942,-6.2942,-6.2942,-6.2914,-6.3046,-6.3046,-6.3178,-6.3545,-6.3545,-6.3675,-6.4095,-6.416,-6.4224,-6.4289,-6.4612,-6.4996,-6.5475,-6.5601,-6.5853,-6.6257,-6.6506,-6.6753,-6.6999,-6.6999,-6.6999,-6.6999,-6.6999,-6.6999,-6.6999,-6.6999,-6.6999,-6.6999,-6.6999,-6.6999,-6.6999,-6.6999,-6.6999,-6.6999,-6.6999,-6.6999,-6.6999,-6.6999,-6.6999,-6.6999,-6.6999,-6.6281,-6.5293,-6.5084,-6.4276,-6.3318,-6.3139,-6.3079,-6.3079,-6.3079,-6.3079,-6.3079,-6.3079,-6.3079,-6.3079,-6.3079,-6.3079,-6.3079,-6.3079,-6.3079,-6.3079,-6.3079,-6.3079,-6.3079,-6.3079,-6.3079,-6.3194,-6.3481,-6.3414,-6.3248,-6.3134,-6.2656,-6.2249,-6.2063,-6.167,-6.1613,-6.2066,-6.2116,-6.2216,-6.2513,-6.2414,-6.2396,-6.2396,-6.2396,-6.2396,-6.2396,-6.2396,-6.2396,-6.2396,-6.2396,-6.2396,-6.2396,-6.2396,-6.2396,-6.2396,-6.2396,-6.2396,-6.2396,-6.2396,-6.2396,-6.2396,-6.2396,-6.2396,-6.2396,-6.2396,-6.2396,-6.2365,-6.2189,-6.2108,-6.2076,-6.2942,-6.2942,-6.2942,-6.2942,-6.2942,-6.2942,-6.2942,-6.2942,-6.298,-6.3178,-6.3178,-6.3376,-6.3675,-6.3769,-6.3834,-6.3965,-6.416,-6.4547,-6.506,-6.5094,-6.5285,-6.5819,-6.6007,-6.6257,-6.6629,-6.6753,-6.6814,-6.6814,-6.6937,-6.6999,-6.6999,-6.6999,-6.6999,-6.6999,-6.6999,-6.6999,-6.6999,-6.6999,-6.6999,-6.6999,-6.6999,-6.6999,-6.6999,-6.6999,-6.6999,-6.6969,-6.67,-6.5922,-6.4994,-6.4695,-6.3947,-6.3079,-6.3079,-6.3079,-6.3079,-6.3079,-6.3079,-6.3079,-6.3079,-6.3079,-6.3079,-6.3079,-6.3079,-6.3079,-6.3079,-6.3079,-6.3079,-6.3079,-6.3079,-6.3079,-6.3079,-6.3079,-6.3137,-6.3309,-6.3424,-6.3411,-6.3108,-6.2659,-6.2311,-6.206,-6.1536,-6.1359,-6.1815,-6.1966,-6.2116,-6.2396,-6.2396,-6.2396,-6.2396,-6.2396,-6.2396,-6.2396,-6.2396,-6.2396,-6.2396,-6.2396,-6.2396,-6.2396,-6.2396,-6.2396,-6.2396,-6.2396,-6.2396,-6.2396,-6.2396,-6.2315,-6.2216,-6.2247,-6.2166,-6.2053,-6.2085,-6.2066,-6.2066,-6.1891,-6.1853,-6.1796,-6.2942,-6.2942,-6.2942,-6.2942,-6.2942,-6.2942,-6.2942,-6.2942,-6.2942,-6.2942,-6.2942,-6.298,-6.3282,-6.3348,-6.3479,-6.39,-6.3965,-6.4095,-6.4418,-6.4418,-6.474,-6.5348,-6.5412,-6.5567,-6.5882,-6.6257,-6.6444,-6.6444,-6.6753,-6.6937,-6.6937,-6.6937,-6.6937,-6.6937,-6.6937,-6.6937,-6.6937,-6.6937,-6.6937,-6.6937,-6.6937,-6.6999,-6.6999,-6.6999,-6.6999,-6.6909,-6.6251,-6.5592,-6.4904,-6.4156,-6.3528,-6.3079,-6.3079,-6.3079,-6.3079,-6.3079,-6.3079,-6.3079,-6.3079,-6.3079,-6.3079,-6.3079,-6.3079,-6.3079,-6.3079,-6.3079,-6.3079,-6.3079,-6.3079,-6.3079,-6.3079,-6.3079,-6.3079,-6.3079,-6.3309,-6.327,-6.2638,-6.2475,-6.2265,-6.1888,-6.1473,-6.1319,-6.1563,-6.1815,-6.2066,-6.2315,-6.2365,-6.2365,-6.2396,-6.2396,-6.2396,-6.2396,-6.2396,-6.2396,-6.2396,-6.2396,-6.2396,-6.2396,-6.2396,-6.2396,-6.2396,-6.2396,-6.2365,-6.2365,-6.2315,-6.2166,-6.1966,-6.1979,-6.1815,-6.1609,-6.1602,-6.1582,-6.1613,-6.1582,-6.1546,-6.1598,-6.2942,-6.2942,-6.2942,-6.2942,-6.2942,-6.2942,-6.2942,-6.2942,-6.2942,-6.2942,-6.2942,-6.2942,-6.298,-6.298,-6.3046,-6.3112,-6.3376,-6.3675,-6.4095,-6.4095,-6.4289,-6.4676,-6.474,-6.4868,-6.5187,-6.5819,-6.6132,-6.6132,-6.6195,-6.6382,-6.6629,-6.6629,-6.6629,-6.6629,-6.6629,-6.6444,-6.6195,-6.6195,-6.6382,-6.6629,-6.6629,-6.6753,-6.6999,-6.6999,-6.6999,-6.6909,-6.6251,-6.5592,-6.4844,-6.3677,-6.3199,-6.3079,-6.3079,-6.3079,-6.3079,-6.3079,-6.3079,-6.3079,-6.3079,-6.3079,-6.3079,-6.3079,-6.3079,-6.3079,-6.3079,-6.3079,-6.3079,-6.3079,-6.3079,-6.3079,-6.3079,-6.3079,-6.3079,-6.3079,-6.3137,-6.3192,-6.327,-6.2837,-6.2395,-6.2272,-6.1706,-6.1357,-6.1268,-6.1563,-6.1815,-6.2066,-6.2066,-6.2166,-6.2365,-6.2396,-6.2396,-6.2396,-6.2396,-6.2396,-6.2396,-6.2396,-6.2396,-6.2396,-6.2396,-6.2396,-6.2365,-6.2166,-6.2066,-6.2066,-6.1866,-6.1734,-6.1683,-6.1714,-6.1633,-6.1602,-6.1582,-6.1594,-6.1554,-6.1379,-6.1299,-6.1227,-6.2648,-6.2781,-6.2942,-6.2942,-6.2942,-6.2942,-6.2942,-6.2942,-6.2942,-6.2942,-6.2942,-6.2942,-6.2942,-6.2942,-6.2942,-6.2942,-6.3046,-6.331,-6.3675,-6.3675,-6.39,-6.4224,-6.4224,-6.4418,-6.474,-6.5124,-6.5441,-6.5756,-6.5945,-6.607,-6.6257,-6.6257,-6.6257,-6.6257,-6.6257,-6.6132,-6.6007,-6.6007,-6.607,-6.6257,-6.6444,-6.6629,-6.6814,-6.6937,-6.6999,-6.6879,-6.5892,-6.4934,-6.4006,-6.3318,-6.3079,-6.3079,-6.3079,-6.3079,-6.3079,-6.3079,-6.3079,-6.3079,-6.3079,-6.3079,-6.3079,-6.3079,-6.3079,-6.3079,-6.3079,-6.3079,-6.3079,-6.3079,-6.3079,-6.3079,-6.3079,-6.3079,-6.3079,-6.3079,-6.3079,-6.3137,-6.3309,-6.2852,-6.2359,-6.1995,-6.1599,-6.1353,-6.1216,-6.1308,-6.1512,-6.1815,-6.1815,-6.1866,-6.2016,-6.2016,-6.2016,-6.2016,-6.2016,-6.2016,-6.2016,-6.2016,-6.2016,-6.2016,-6.2166,-6.2216,-6.2216,-6.1916,-6.1815,-6.1815,-6.1633,-6.1563,-6.141,-6.141,-6.1359,-6.1257,-6.1257,-6.1237,-6.1165,-6.1052,-6.1031,-6.0907,-6.2315,-6.2515,-6.2715,-6.2715,-6.2715,-6.2715,-6.2715,-6.2715,-6.2715,-6.2715,-6.2715,-6.2715,-6.2715,-6.2715,-6.2715,-6.2715,-6.2715,-6.2848,-6.3216,-6.3216,-6.3413,-6.39,-6.39,-6.4095,-6.4418,-6.4418,-6.474,-6.5412,-6.5694,-6.5882,-6.5882,-6.5882,-6.5882,-6.5882,-6.5882,-6.5882,-6.5819,-6.5819,-6.5882,-6.5945,-6.6257,-6.6444,-6.6568,-6.6876,-6.6909,-6.667,-6.5473,-6.4186,-6.3079,-6.3079,-6.3079,-6.3079,-6.3079,-6.3079,-6.3079,-6.3079,-6.3079,-6.3079,-6.3079,-6.3079,-6.3079,-6.3079,-6.3079,-6.3079,-6.3079,-6.3079,-6.3079,-6.3079,-6.3079,-6.3079,-6.3079,-6.3079,-6.3079,-6.3079,-6.3079,-6.3079,-6.3079,-6.2829,-6.2367,-6.1609,-6.1315,-6.1177,-6.1062,-6.1103,-6.1257,-6.1481,-6.1531,-6.1531,-6.1582,-6.1582,-6.1582,-6.1582,-6.1582,-6.1582,-6.1582,-6.1582,-6.1582,-6.1582,-6.1765,-6.1916,-6.1916,-6.1633,-6.1531,-6.1563,-6.1481,-6.1359,-6.1103,-6.1103,-6.1,-6.0794,-6.0794,-6.0794,-6.0794,-6.0671,-6.0547,-6.0311,-6.1884,-6.1951,-6.1951,-6.1951,-6.1951,-6.1951,-6.1951,-6.1951,-6.1951,-6.1951,-6.1951,-6.1951,-6.1951,-6.1951,-6.1951,-6.1951,-6.1951,-6.2086,-6.2515,-6.2515,-6.2848,-6.3413,-6.3479,-6.3675,-6.4095,-6.4095,-6.4418,-6.506,-6.5124,-6.5285,-6.5538,-6.5538,-6.5538,-6.5538,-6.5538,-6.5412,-6.5124,-6.5124,-6.5285,-6.5601,-6.5945,-6.6257,-6.6568,-6.6876,-6.664,-6.6041,-6.5293,-6.4186,-6.3079,-6.3079,-6.3079,-6.3079,-6.3079,-6.3079,-6.3079,-6.3079,-6.3079,-6.3079,-6.3079,-6.3079,-6.3079,-6.3079,-6.3079,-6.3079,-6.3079,-6.3079,-6.3079,-6.3079,-6.3079,-6.3079,-6.3079,-6.3079,-6.3079,-6.3079,-6.3079,-6.3079,-6.3079,-6.3047,-6.2652,-6.1584,-6.0943,-6.0521,-6.0481,-6.069,-6.0949,-6.1206,-6.1257,-6.1359,-6.1582,-6.1582,-6.1582,-6.1582,-6.1582,-6.1582,-6.1582,-6.1582,-6.1582,-6.1582,-6.141,-6.141,-6.1664,-6.1359,-6.1257,-6.1257,-6.1,-6.0897,-6.0845,-6.0845,-6.0845,-6.0794,-6.0794,-6.0794,-6.0732,-6.0147,-5.941,-5.8736,-6.1506,-6.1681,-6.1789,-6.1789,-6.1789,-6.1789,-6.1789,-6.1789,-6.1789,-6.1789,-6.1789,-6.1789,-6.1789,-6.1789,-6.1789,-6.1789,-6.1789,-6.1884,-6.2018,-6.2086,-6.2287,-6.2848,-6.2848,-6.3112,-6.361,-6.3675,-6.3965,-6.4483,-6.4612,-6.4868,-6.5222,-6.5222,-6.5222,-6.5222,-6.5222,-6.5158,-6.4996,-6.4996,-6.5124,-6.5222,-6.563,-6.5945,-6.6257,-6.6568,-6.6397,-6.5862,-6.4844,-6.3857,-6.3079,-6.3079,-6.3079,-6.3079,-6.3079,-6.3079,-6.3079,-6.3079,-6.3079,-6.3079,-6.3079,-6.3079,-6.3079,-6.3079,-6.3079,-6.3079,-6.3079,-6.3079,-6.3079,-6.3079,-6.3079,-6.3079,-6.3079,-6.3079,-6.3079,-6.3079,-6.3079,-6.3079,-6.3079,-6.275,-6.2145,-6.1072,-6.0318,-5.9955,-6.0144,-6.0429,-6.0638,-6.0742,-6.0897,-6.1052,-6.1155,-6.1155,-6.1155,-6.1155,-6.1155,-6.1155,-6.1155,-6.1155,-6.1155,-6.1155,-6.1052,-6.1103,-6.1359,-6.1103,-6.0949,-6.0949,-6.0445,-6.024,-6.0209,-5.9839,-5.9686,-5.9686,-5.9686,-5.9686,-5.9624,-5.9195,-5.8736,-5.8329]}]]